     2              OBSERVATION DATA    GPS                 RINEX VERSION / TYPE
ASRINEXO V2.7.2 UX SOPAC 02-MAR- 0 15:32                    PGM / RUN BY / DATE
                                                            COMMENT
Original Marker Name: 0101                                  COMMENT
Campaign Name: HPGN 1991                                    COMMENT
4-Character Station Name: 0101                              COMMENT
6-Character Antenna Code: ASHL12                            COMMENT
Vertical Measurement Point: BAS                             COMMENT
Vertical Offset to Rinex Ref. Point: 0.0000                 COMMENT
Radial Measurement Point: RRP                               COMMENT
Radial Offset to Rinex Ref. Point: 0.0000                   COMMENT
Antenna Height from Field Measurement: 2.2150 m             COMMENT
Additional Antenna Identification Info.:                    COMMENT
Original Ashtech L1/L2                                      COMMENT
Original XYZ: -2662527.8600 -4187023.8700 3995150.4000      COMMENT
New XYZ position is based on association with SCEC monument COMMENT
E1O4F3S2+0011. Position of that monument is believed to be  COMMENT
valid to within 1 m horizontally; vertical accuracy         COMMENT
should be no worse than 3-times this value.                 COMMENT
                                                            COMMENT
Revised Rinex header created by UCSD GPS archive for        COMMENT
GSAC on 17-Mar-2000 (2000:077) 23:04:16 GMT                 COMMENT
For assistance contact dagnew@ucsd.edu or hjohnson@ucsd.edu COMMENT
                                                            COMMENT
HPGN CA 01 01                                               MARKER NAME
JHB CALIF DEPT TRANSPORTATION                               OBSERVER / AGENCY
621 ASHTECH L-XII 6A                                        REC # / TYPE / VERS
183 ASHTECH GEODETIC L                                      ANT # / TYPE
 -2662518.7678 -4187022.7544  3995138.6521                  APPROX POSITION XYZ
        2.2150        0.0000        0.0000                  ANTENNA: DELTA H/E/N
     1     2     0                                          WAVELENGTH FACT L1/2
     3    C1    L1    L2                                    # / TYPES OF OBSERV
     0                                                      INTERVAL
  1991     7    23     0    56   15.000000                  TIME OF FIRST OBS
  1991     7    23     6    51   45.000000                  TIME OF LAST OBS
                                                            END OF HEADER
 91  7 23  0 56 15.0000000  0  4 03 20 16 17
  20150386.675           0.065 4         0.280 3
  22647707.316           0.613 3         0.139 1
  22055416.650           0.582 3         0.345 2
  20420749.712           0.319 4         0.241 3
 91  7 23  0 56 30.0000000  0  4 03 20 16 17
  20148525.862       -9778.784 4     -7619.680 3
  22658164.376       54963.064 3     42827.921 1
  22062903.971       39348.823 3     30661.299 2
  20417548.828      -16806.024 4    -13095.590 3
 91  7 23  0 56 45.0000000  0  4 03 20 16 17
  20746290.443      -19347.218 4    -15075.595 3
  23268240.235      110095.463 3     85788.140 1
  22670017.576       78919.738 3     61495.746 2
  21013980.221      -33398.526 4    -26024.792 3
 91  7 23  0 57  0.0000000  0  4 03 20 16 17
  20744510.573      -28703.314 4    -22366.060 3
  23278771.345      165416.155 3    128895.065 1
  22677591.826      118727.313 3     92514.600 2
  21010861.780      -49777.537 4    -38787.638 3
 91  7 23  0 57 15.0000000  0  5 03 23 20 16 17
  20742772.375      -37833.363 4    -29480.373 3
  23919018.307           0.688 2         0.461 1
  23289337.530      220929.535 3    172152.156 1
  22685211.952      158777.776 3    123722.738 2
  21007788.011      -65928.674 4    -51372.925 3
 91  7 23  0 57 30.0000000  0  5 03 23 20 16 17
  20741086.047      -46717.012 4    -36402.694 3
  23909378.178      -50635.052 2    -39455.816 1
  23299934.288      276655.598 3    215574.962 1
  22692884.839      199091.708 3    155136.162 2
  21004761.009      -81831.814 4    -63764.968 3
 91  7 23  0 57 45.0000000  0  5 03 23 20 16 17
  20739441.983      -55354.875 4    -43133.500 3
  23899782.426     -101063.597 2    -78750.642 1
  23310584.121      332593.162 3    259162.564 1
  22700606.002      239667.751 3    186753.834 2
  21001780.468      -97487.979 4    -75964.563 3
 91  7 23  0 58  0.0000000  0  5 03 23 20 16 17
  20737842.592      -63752.919 4    -49677.424 3
  23890231.337     -151290.776 2   -117888.572 1
  23321266.325      388735.558 3    302909.810 1
  22708377.221      280499.233 3    218570.552 2
  20998847.000     -112903.142 4    -87976.360 3
 91  7 23  0 58 15.0000000  0  5 03 23 20 16 17
  20736290.866      -71901.039 4    -56026.607 3
  23880703.632     -201306.361 2   -156861.639 1
  23331984.501      445092.447 3    346824.150 1
  22716197.004      321595.934 3    250593.935 2
  20995963.901     -128067.264 4    -99792.541 3
 91  7 23  0 58 30.0000000  0  5 03 23 20 16 17
  20734788.307      -79796.882 4    -62179.203 2
  23871234.088     -251108.159 2   -195668.114 1
  23342755.448      501665.403 3    390906.863 1
  22724068.352      362959.666 3    282825.406 2
  20993125.762     -142978.408 4   -111411.595 3
 91  7 23  0 58 45.0000000  0  5 03 23 20 16 17
  20733331.013      -87454.357 4    -68146.064 3
  23861797.821     -300709.627 2   -234318.456 1
  23353556.068      558440.269 3    435146.917 1
  22731987.069      404576.184 3    315253.833 2
  20990335.891     -157650.500 4   -122844.376 3
 91  7 23  0 59  0.0000000  0  5 03 23 20 16 17
  20731918.994      -94873.761 4    -73927.415 3
  23852391.831     -350111.312 2   -272813.138 1
  23364402.862      615415.808 3    479543.325 1
  22739957.054      446444.306 3    347878.337 2
  20987587.692     -172084.514 4   -134091.635 3
 91  7 23  0 59 15.0000000  0  5 03 23 20 16 17
  20730550.443     -102061.040 4    -79527.886 3
  23843026.919     -399319.036 2   -311156.668 1
  23375277.828      672585.720 3    524091.210 1
  22747972.306      488558.004 3    380694.179 2
  20984882.367     -186286.215 4   -145157.879 3
 91  7 23  0 59 30.0000000  0  5 03 23 20 16 17
  20729225.352     -109020.542 4    -84950.870 3
  23833698.870     -448337.257 2   -349352.535 1
  23386193.577      729944.974 3    568786.611 1
  22756031.924      530911.989 3    413697.244 2
  20982227.107     -200260.523 4   -156046.938 3
 91  7 23  0 59 45.0000000  0  5 03 23 20 16 17
  20727946.137     -115762.448 4    -90204.302 3
  23824400.809     -497176.077 2   -387408.653 1
  23397142.297      787482.914 3    613621.280 1
  22764132.917      573495.650 3    446879.292 2
  20979605.718     -214017.748 4   -166766.825 3
 91  7 23  1  0  0.0000000  0  5 03 23 20 16 17
  20726697.208     -122290.434 4    -95291.039 3
  23815147.413     -545838.770 2   -425327.485 1
  23408123.989      845195.359 2    658591.916 2
  22772281.576      616305.065 3    480237.248 2
  20977030.807     -227561.539 4   -177320.420 3
 91  7 23  1  0 15.0000000  0  5 03 23 20 16 17
  20725498.936     -128608.341 4   -100214.078 3
  23805915.009     -594329.099 2   -463112.010 1
  23419138.968      903077.706 3    703694.938 1
  22780468.311      659335.674 3    513767.582 1
  20974489.462     -240896.418 4   -187711.216 3
 91  7 23  1  0 30.0000000  0  5 03 23 20 16 17
  20724337.537     -134710.144 4   -104968.720 3
  23796719.171     -642641.141 2   -500757.594 1
  23430187.216      961135.421 3    748934.617 1
  22788699.413      702593.034 3    547474.597 2
  20971996.088     -254016.352 4   -197934.522 3
 91  7 23  1  0 45.0000000  0  5 03 23 20 16 17
  20723218.411     -140604.877 4   -109562.016 3
  23787562.615     -690783.774 2   -538271.193 1
  23441265.452     1019358.948 2    794303.488 1
  22796971.889      746067.515 3    581350.788 2
  20969537.492     -266930.395 4   -207997.395 3
 91  7 23  1  1  0.0000000  0  5 03 23 20 16 17
  20722134.369     -146299.530 4   -113999.403 3
  23778433.935     -738764.164 2   -575658.403 1
  23452376.660     1077740.458 2    839795.468 1
  22805283.934      789751.638 3    615390.342 2
  20967117.565     -279646.280 4   -217905.857 3
 91  7 23  1  1 15.0000000  0  5 03 23 20 16 17
  20721086.588     -151805.537 4   -118289.787 3
  23769330.435     -786593.478 2   -612927.868 1
  23463510.946     1136268.257 2    885401.445 1
  22813631.655      833633.507 3    649583.991 2
  20964732.714     -292175.310 4   -227668.717 3
 91  7 23  1  1 30.0000000  0  5 03 23 20 16 17
  20720076.587     -157117.941 4   -122429.317 3
  23760259.018     -834266.996 2   -650075.908 1
  23474679.120     1194946.677 2    931124.782 1
  22822024.338      877717.169 3    683934.871 2
  20962383.243     -304512.685 4   -237282.237 3
 91  7 23  1  1 45.0000000  0  5 03 23 20 16 17
  20719098.668     -162240.448 4   -126420.876 3
  23751214.273     -881788.255 2   -687105.332 1
  23485870.067     1253771.429 2    976962.116 1
  22830452.104      921998.655 3    718439.912 2
  20960075.443     -316662.480 4   -246749.594 3
 91  7 23  1  2  0.0000000  0  5 03 23 20 16 17
  20718160.919     -167183.413 4   -130272.535 3
  23742203.417     -929167.411 2   -724023.992 1
  23497098.793     1312731.677 2   1022905.078 1
  22838914.351      966467.381 3    753090.836 2
  20957794.621     -328635.283 4   -256079.038 3
 91  7 23  1  2 15.0000000  0  5 03 23 20 16 17
  20717249.843     -171949.363 4   -133986.259 3
  23733208.441     -976407.037 2   -760833.954 1
  23508338.915     1371824.106 2   1068951.004 1
  22847409.265     1011119.816 3    787884.924 2
  20955550.671     -340434.021 4   -265272.847 3
 91  7 23  1  2 30.0000000  0  5 03 23 20 16 17
  20716378.650     -176542.290 4   -137565.155 2
  23724244.945    -1023510.819 2   -797538.075 1
  23519608.414     1431044.363 2   1115096.541 1
  22855940.764     1055951.862 3    822818.969 2
  20953336.710     -352062.363 4   -274333.868 3
 91  7 23  1  2 45.0000000  0  5 03 23 20 16 17
  20715534.731     -180977.831 4   -141021.415 3
  23715312.030    -1070494.391 2   -834148.520 1
  23530899.795     1490375.994 2   1161328.930 1
  22864506.736     1100947.163 3    857880.203 2
  20951155.415     -363536.803 4   -283274.977 3
 91  7 23  1  3  0.0000000  0  5 03 23 20 16 17
  20714717.503     -185269.998 4   -144365.949 3
  23706382.710    -1117371.864 2   -870676.268 1
  23542207.667     1549804.498 2   1207636.731 1
  22873095.183     1146091.082 3    893057.268 2
  20948996.012     -374871.374 4   -292107.103 3
 91  7 23  1  3 15.0000000  0  5 03 23 20 16 17
  20713931.440     -189404.268 4   -147587.449 3
  23697487.871    -1164128.699 2   -907110.041 1
  23553544.018     1609343.908 2   1254030.974 1
  22881714.518     1191397.680 3    928361.117 1
  20946869.284     -386051.741 4   -300819.061 3
 91  7 23  1  3 30.0000000  0  5 03 23 20 16 17
  20713175.366     -193374.654 4   -150681.251 3
  23688616.713    -1210759.121 2   -943445.288 1
  23564895.358     1668999.368 2   1300515.635 1
  22890366.833     1236872.233 3    963795.796 1
  20944772.832     -397072.189 4   -309406.406 3
 91  7 23  1  3 45.0000000  0  5 03 23 20 16 17
  20712448.669     -197194.069 4   -153657.409 3
  23679760.544    -1257275.562 2   -979691.736 1
  23576261.994     1728757.649 2   1347080.410 1
  22899052.120     1282501.739 3    999351.235 1
  20942703.969     -407945.781 4   -317879.317 3
 91  7 23  1  4  0.0000000  0  5 03 23 20 16 17
  20711748.357     -200866.605 4   -156519.119 3
  23670931.353    -1303681.957 2  -1015852.457 1
  23587652.606     1788614.243 2   1393721.773 1
  22907762.885     1328281.564 3   1035023.794 2
  20940659.685     -418676.990 4   -326241.285 3
 91  7 23  1  4 15.0000000  0  5 03 23 20 16 17
  20711076.218     -204396.722 4   -159269.853 3
  23662116.856    -1349982.946 2  -1051931.012 1
  23599064.508     1848563.910 2   1440435.703 1
  22916500.340     1374206.589 3   1070809.499 1
  20938644.481     -429270.464 4   -334495.921 3
 91  7 23  1  4 30.0000000  0  5 03 23 20 16 17
  20710433.465     -207779.227 4   -161905.570 3
  23653331.736    -1396173.226 2  -1087923.324 1
  23610488.703     1908611.273 2   1487225.769 1
  22925275.566     1420281.387 3   1106711.929 1
  20936654.755     -439721.169 4   -342639.308 3
 91  7 23  1  4 45.0000000  0  5 03 23 20 16 17
  20709816.792     -211017.601 4   -164428.970 3
  23644558.010    -1442256.128 2  -1123831.943 1
  23621933.576     1968752.461 2   1534088.911 1
  22934067.876     1466501.913 3   1142727.873 2
  20934692.312     -450033.198 4   -350674.639 3
 91  7 23  1  5  0.0000000  0  5 03 23 20 16 17
  20709228.903     -214114.392 4   -166842.062 3
  23635807.974    -1488234.197 2  -1159658.907 1
  23633394.644     2028984.257 2   1581022.668 1
  22942887.469     1512865.045 3   1178854.999 1
  20932756.551     -460208.889 4   -358603.729 3
 91  7 23  1  5 15.0000000  0  5 03 23 20 16 17
  20708667.983     -217053.478 4   -169132.248 3
  23627085.212    -1534091.374 2  -1195391.686 1
  23644876.695     2089321.973 2   1628038.944 1
  22951741.238     1559386.630 3   1215105.560 1
  20930849.870     -470232.611 4   -366414.408 3
 91  7 23  1  5 30.0000000  0  5 03 23 20 16 17
  20708140.655     -219838.493 4   -171302.382 3
  23618385.232    -1579831.177 2  -1231032.976 1
  23656378.230     2149761.577 2   1675134.640 1
  22960626.487     1606062.421 3   1251476.322 2
  20928968.676     -480108.048 4   -374109.539 3
 91  7 23  1  5 45.0000000  0  5 03 23 20 16 17
  20707640.000     -222470.145 4   -173353.022 3
  23609705.345    -1625454.388 2  -1266583.381 1
  23667895.661     2210301.650 2   1722308.641 1
  22969537.223     1652891.093 3   1287966.156 2
  20927119.860     -489836.405 4   -381690.058 3
 91  7 23  1  6  0.0000000  0  5 03 23 20 16 17
  20707164.525     -224957.095 4   -175290.902 3
  23601035.946    -1670969.365 2  -1302049.439 1
  23679437.366     2270933.111 2   1769553.821 1
  22978474.937     1699863.451 3   1324567.979 1
  20925295.021     -499426.276 4   -389162.668 3
 91  7 23  1  6 15.0000000  0  5 03 23 20 16 17
  20706722.031     -227297.394 4   -177114.505 3
  23592399.519    -1716374.086 2  -1337429.671 1
  23690991.967     2331657.242 2   1816871.206 1
  22987442.324     1746981.252 3   1361283.116 2
  20923496.261     -508876.037 4   -396526.105 3
 91  7 23  1  6 30.0000000  0  5 03 23 20 16 17
  20706301.123     -229499.956 4   -178830.785 3
  23583775.988    -1761677.475 2  -1372730.898 1
  23702559.760     2392464.596 2   1864253.454 1
  22996434.003     1794234.679 3   1398103.943 1
  20921725.090     -518194.713 4   -403787.398 3
 91  7 23  1  6 45.0000000  0  5 03 23 20 16 17
  20705908.694     -231562.962 4   -180438.319 3
  23575173.746    -1806877.769 2  -1407951.740 1
  23714151.538     2453356.426 2   1911701.531 1
  23005451.158     1841625.038 3   1435031.477 1
  20919976.404     -527380.847 4   -410945.412 3
 91  7 23  1  7  0.0000000  0  5 03 23 20 16 17
  20705544.150     -233484.788 4   -181935.852 3
  23566597.287    -1851973.113 2  -1443090.867 1
  23725752.600     2514333.883 2   1959216.337 1
  23014497.997     1889153.639 3   1472066.720 2
  20918251.694     -536433.001 4   -417999.020 3
 91  7 23  1  7 15.0000000  0  5 03 23 20 16 17
  20705208.382     -235243.819 4   -183306.523 3
  23558031.917    -1896941.873 2  -1478131.358 1
  23737375.256     2575417.905 2   2006814.169 1
  23023568.219     1936841.580 3   1509226.132 1
  20916562.068     -545329.984 4   -424931.722 3
 91  7 23  1  7 30.0000000  0  5 03 23 20 16 17
  20704895.996     -236877.803 4   -184579.757 2
  23549494.128    -1941821.942 2  -1513102.692 1
  23749008.400     2636570.016 2   2054465.022 1
  23032667.513     1984650.468 3   1546479.784 1
  20914889.221     -554109.942 4   -431773.231 3
 91  7 23  1  7 45.0000000  0  5 03 23 20 16 17
  20704606.401     -238406.109 4   -185770.646 3
  23540966.826    -1986632.322 2  -1548019.764 1
  23760655.042     2697770.597 2   2102153.694 1
  23041784.806     2032560.545 3   1583812.281 1
  20913237.069     -562792.200 4   -438538.610 3
 91  7 23  1  8  0.0000000  0  5 03 23 20 16 17
  20704337.781     -239813.816 4   -186867.562 3
  23532454.522    -2031358.046 2  -1582870.839 1
  23772321.464     2759033.859 2   2149891.186 1
  23050924.873     2080586.127 3   1621234.809 2
  20911604.994     -571362.033 4   -445216.383 3
 91  7 23  1  8 15.0000000  0  5 03 23 20 16 17
  20704093.758     -241106.179 4   -187874.594 3
  23523962.897    -2076004.697 2  -1617660.315 1
  23783988.191     2820353.761 2   2197672.784 1
  23060085.932     2128721.194 3   1658742.619 1
  20909994.810     -579824.966 4   -451810.858 3
 91  7 23  1  8 30.0000000  0  5 03 23 20 16 17
  20703868.310     -242282.122 4   -188790.910 3
  23515482.371    -2120571.011 2  -1652387.199 1
  23795668.101     2881731.022 2   2245499.147 1
  23069268.577     2176966.384 3   1696336.251 2
  20908408.306     -588180.083 4   -458321.331 3
 91  7 23  1  8 45.0000000  0  5 03 23 20 16 17
  20703662.955     -243350.122 4   -189623.123 3
  23507012.332    -2165065.303 2  -1687057.983 1
  23807351.912     2943156.576 2   2293363.067 1
  23078464.108     2225312.674 3   1734008.660 1
  20906837.699     -596436.326 4   -464754.756 3
 91  7 23  1  9  0.0000000  0  5 03 23 20 16 17
  20703482.476     -244312.436 4   -190372.980 3
  23498559.987    -2209489.861 2  -1721674.376 1
  23819054.909     3004627.561 2   2341262.421 1
  23087686.924     2273757.503 3   1771757.831 2
  20905281.174     -604595.998 4   -471112.926 3
 91  7 23  1  9 15.0000000  0  5 03 23 20 16 17
  20703316.089     -245174.778 4   -191044.928 3
  23490113.035    -2253850.090 2  -1756240.663 1
  23830759.110     3066137.788 2   2389192.366 1
  23096917.539     2322294.553 3   1809578.893 2
  20903746.236     -612665.026 4   -477400.471 3
 91  7 23  1  9 30.0000000  0  5 03 23 20 16 17
  20703169.498     -245937.948 4   -191639.603 3
  23481683.768    -2298146.944 2  -1790757.567 1
  23842471.697     3127685.804 2   2437151.722 1
  23106171.826     2370922.201 3   1847470.538 1
  20902230.484     -620644.495 4   -483618.224 3
 91  7 23  1  9 45.0000000  0  5 03 23 20 16 17
  20703044.781     -246599.868 4   -192155.388 3
  23473269.195    -2342378.415 2  -1825223.541 1
  23854190.888     3189272.872 2   2485141.537 1
  23115441.713     2419641.959 3   1885433.980 1
  20900725.228     -628532.873 4   -489765.002 3
 91  7 23  1 10  0.0000000  0  5 03 23 20 16 17
  20702942.855     -247160.846 4   -192592.518 3
  23464867.813    -2386544.528 2  -1859638.580 1
  23865912.173     3250898.577 2   2533161.455 1
  23124736.476     2468453.603 3   1923468.975 1
  20899243.958     -636330.363 4   -495840.963 3
 91  7 23  1 10 15.0010000  0  5 03 23 20 16 17
  20702849.613     -247638.453 4   -192964.675 3
  23456465.528    -2430665.725 2  -1894018.615 1
  23877649.943     3312548.670 2   2581200.372 1
  23134039.338     2517342.007 3   1961563.834 1
  20897773.771     -644055.248 4   -501860.335 3
 91  7 23  1 10 30.0010000  0  5 03 23 20 16 17
  20702773.765     -248023.583 4   -193264.780 3
  23448087.225    -2474727.211 2  -1928352.120 1
  23889388.320     3374223.415 2   2629258.508 1
  23143355.390     2566309.160 3   1999720.024 2
  20896318.580     -651698.013 4   -507815.727 3
 91  7 23  1 10 45.0010000  0  5 03 23 20 16 17
  20702719.207     -248327.247 4   -193501.394 3
  23439707.430    -2518742.625 2  -1962649.717 1
  23901126.995     3435915.497 2   2677330.162 1
  23152687.330     2615347.099 3   2037931.375 2
  20894878.379     -659270.179 4   -513716.106 3
 91  7 23  1 11 15.0010000  0  5 03 23 20 16 17
  20702648.752     -248680.794 4   -193776.871 3
  23422990.697    -2606626.320 2  -2031130.302 1
  23924616.933     3559358.250 2   2773519.534 1
  23171390.482     2713641.707 3   2114524.518 2
  20892037.841     -674194.095 4   -525345.092 3
 91  7 23  1 11 30.0010000  0  5 03 23 20 16 17
  20702639.460     -248736.553 4   -193820.339 3
  23414633.988    -2650500.359 2  -2065317.774 1
  23936366.697     3621101.801 2   2821631.319 1
  23180762.296     2762891.370 3   2152900.868 1
  20890637.217     -681552.504 4   -531078.923 3
 91  7 23  1 11 45.0010000  0  5 03 23 20 16 17
  20702645.759     -248702.388 4   -193793.699 2
  23406303.350    -2694319.406 2  -2099462.388 1
  23948121.862     3682868.890 2   2869761.325 1
  23190148.795     2812218.481 3   2191337.544 1
  20889249.776     -688832.504 4   -536751.643 3
 91  7 23  1 12  0.0010000  0  5 03 23 20 16 17
  20702679.935     -248534.896 4   -193663.199 3
  23397978.419    -2738040.449 2  -2133530.584 1
  23959890.516     3744702.176 2   2917943.033 1
  23199562.280     2861665.054 3   2229867.321 2
  20887891.713     -695991.382 4   -542329.990 3
 91  7 23  1 12 15.0010000  0  5 03 23 20 16 17
  20702726.999     -248260.166 4   -193449.114 3
  23389674.462    -2781689.484 2  -2167542.704 1
  23971664.561     3806575.294 2   2966155.736 1
  23208988.652     2911204.561 3   2268469.510 1
  20886549.547     -703055.445 4   -547834.435 3
 91  7 23  1 12 30.0010000  0  5 03 23 20 16 17
  20702799.251     -247897.778 4   -193166.728 3
  23381375.313    -2825286.152 2  -2201514.018 1
  23983442.507     3868467.745 2   3014383.479 1
  23218427.021     2960817.126 3   2307128.626 1
  20885214.265     -710044.454 4   -553280.403 3
 91  7 23  1 12 45.0010000  0  5 03 23 20 16 17
  20702884.688     -247443.770 4   -192812.958 2
  23373093.841    -2868826.294 2  -2235441.299 1
  23995219.555     3930383.080 2   3062629.120 1
  23227882.474     3010506.160 3   2345847.319 2
  20883901.476     -716954.512 4   -558664.849 3
 91  7 23  1 13  0.0010000  0  5 03 23 20 16 17
  20702990.514     -246896.249 4   -192386.320 2
  23364820.771    -2912307.854 2  -2269322.906 1
  24007005.292     3992322.680 2   3110893.581 1
  23237348.719     3060272.895 3   2384626.589 1
  20882600.676     -723783.869 4   -563986.417 3
 91  7 23  1 13 15.0010000  0  5 03 23 20 16 17
  20703110.738     -246258.748 4   -191889.561 3
  23356549.194    -2955734.639 2  -2303161.851 1
  24018798.533     4054282.041 2   3159173.500 1
  23246836.551     3110113.438 3   2423463.326 2
  20881317.867     -730536.702 4   -569248.351 3
 91  7 23  1 13 30.0010000  0  5 03 23 20 16 17
  20703248.036     -245541.029 4   -191330.301 3
  23348297.108    -2999116.027 2  -2336965.407 1
  24030586.373     4116251.319 2   3207461.138 1
  23256331.878     3160017.423 3   2462349.544 2
  20880044.350     -737222.794 4   -574458.280 3
 91  7 23  1 13 45.0010000  0  5 03 23 20 16 17
  20703404.233     -244730.313 4   -190698.569 3
  23340059.715    -3042439.358 2  -2370723.744 1
  24042384.701     4178242.467 2   3255765.780 1
  23265842.796     3209997.065 3   2501294.695 1
  20878788.815     -743829.641 4   -579606.461 3
 91  7 23  1 14  0.0010000  0  5 03 23 20 16 17
  20703575.411     -243826.662 4   -189994.419 3
  23331817.515    -3085704.413 2  -2404436.665 1
  24054188.735     4240255.215 2   3304087.280 1
  23275366.601     3260052.263 3   2540298.706 1
  20877543.777     -750357.400 4   -584693.012 3
 91  7 23  1 14 15.0010000  0  5 03 23 20 16 17
  20703762.181     -242835.699 4   -189222.236 3
  23323602.903    -3128916.846 2  -2438108.572 1
  24065987.359     4302283.036 2   3352420.567 1
  23284903.294     3310176.257 3   2579356.343 1
  20876317.629     -756812.164 4   -589722.688 3
 91  7 23  1 14 30.0010000  0  5 03 23 20 16 17
  20703966.043     -241760.755 4   -188384.610 3
  23315389.496    -3172080.220 2  -2471742.280 1
  24077797.990     4364321.928 2   3400762.397 1
  23294460.080     3360365.254 3   2618464.637 1
  20875101.366     -763197.655 4   -594698.381 3
 91  7 23  1 14 45.0010000  0  5 03 23 20 16 17
  20704187.591     -240596.035 4   -187477.033 3
  23307179.674    -3215188.342 2  -2505332.899 1
  24089604.711     4426377.420 2   3449117.202 1
  23304026.158     3410624.839 3   2657627.905 1
  20873897.703     -769507.902 4   -599615.449 3
 91  7 23  1 15  0.0010000  0  5 03 23 20 16 17
  20704420.228     -239337.577 4   -186496.407 3
  23298983.045    -3258237.267 2  -2538877.420 1
  24101419.233     4488452.900 2   3497487.593 1
  23313597.629     3460958.507 3   2696848.938 1
  20872716.218     -775739.207 4   -604470.996 3
 91  7 23  1 15 15.0010000  0  5 03 23 20 16 17
  20704687.644     -237972.511 4   -185432.708 3
  23290809.512    -3301214.035 2  -2572365.720 1
  24113239.155     4550560.746 2   3545883.199 1
  23323193.094     3511378.475 2   2736137.206 1
  20871546.425     -781878.659 4   -609254.968 3
 91  7 23  1 15 30.0010000  0  5 03 23 20 16 17
  20704964.056     -236525.772 4   -184305.384 3
  23282644.956    -3344143.711 2  -2605817.307 1
  24125056.373     4612675.219 2   3594283.935 1
  23332798.138     3561859.387 2   2775472.930 2
  20870389.528     -787951.887 4   -613987.349 3
 91  7 23  1 15 45.0010000  0  5 03 23 20 16 17
  20705256.050     -234987.127 4   -183106.424 3
  23274486.709    -3387015.934 2  -2639224.137 1
  24136875.388     4674806.078 2   3642697.432 1
  23342423.879     3612410.742 3   2814863.554 2
  20869248.223     -793948.929 4   -618660.359 3
 91  7 23  1 16  0.0010000  0  5 03 23 20 16 17
  20705566.036     -233362.161 4   -181840.215 2
  23266339.246    -3429836.223 2  -2672590.477 1
  24148700.999     4736947.257 2   3691119.007 1
  23352046.619     3663026.336 2   2854304.270 1
  20868119.203     -799875.623 4   -623278.547 3
 91  7 23  1 16 15.0010000  0  5 03 23 20 16 17
  20705892.512     -231648.665 4   -180505.016 2
  23258193.284    -3472602.479 2  -2705914.719 1
  24160531.409     4799100.118 2   3739549.696 1
  23361697.531     3713707.974 3   2893796.398 1
  20867007.868     -805730.107 4   -627840.469 3
 91  7 23  1 16 30.0010000  0  5 03 23 20 16 17
  20706236.072     -229848.044 4   -179101.938 2
  23250059.615    -3515315.862 2  -2739197.772 1
  24172362.124     4861263.032 2   3787988.203 1
  23371354.447     3764453.914 3   2933338.667 1
  20865901.638     -811513.712 4   -632347.161 3
 91  7 23  1 16 45.0010000  0  5 03 23 20 16 17
  20706594.019     -227963.953 4   -177633.804 3
  23241950.228    -3557980.036 2  -2772442.493 1
  24184191.034     4923431.690 2   3836431.153 1
  23381021.257     3815259.966 3   2972927.795 1
  20864818.485     -817230.410 4   -636801.725 3
 91  7 23  1 17  0.0010000  0  5 03 23 20 16 17
  20706968.161     -225990.977 4   -176096.420 3
  23233842.648    -3600589.519 2  -2805644.545 1
  24196023.241     4985610.881 2   3884882.348 1
  23390703.650     3866130.803 3   3012567.358 1
  20863743.735     -822875.025 4   -641200.111 3
 91  7 23  1 17 15.0010000  0  5 03 23 20 16 17
  20707359.395     -223934.527 4   -174493.983 2
  23225737.152    -3643149.651 2  -2838808.170 1
  24207863.545     5047794.645 2   3933337.106 1
  23400392.045     3917060.518 2   3052252.847 1
  20862686.959     -828453.333 4   -645546.829 3
 91  7 23  1 17 30.0010000  0  5 03 23 20 16 17
  20707767.110     -221786.171 4   -172819.940 3
  23217650.556    -3685652.054 2  -2871926.825 1
  24219700.246     5109990.792 2   3981801.492 1
  23410099.628     3968056.946 3   3091990.287 1
  20861636.490     -833956.953 4   -649835.352 3
 91  7 23  1 17 45.0010000  0  5 03 23 20 16 17
  20708189.519     -219557.824 4   -171083.567 2
  23209571.751    -3728108.498 2  -2905009.670 1
  24231530.962     5172186.895 2   4030265.845 1
  23419816.197     4019107.760 3   3131770.121 1
  20860603.708     -839398.071 4   -654075.176 3
 91  7 23  1 18  0.0010000  0  5 03 23 20 16 17
  20708632.013     -217244.816 4   -169281.219 2
  23201508.232    -3770514.326 2  -2938053.066 1
  24243371.563     5234387.062 2   4078733.377 1
  23429537.268     4070217.326 3   3171595.735 1
  20859579.310     -844772.525 4   -658263.046 3
 91  7 23  1 18 15.0010000  0  5 03 23 20 16 17
  20709088.598     -214852.762 4   -167417.281 3
  23193446.807    -3812875.143 3  -2971061.369 2
  24255199.276     5296585.380 2   4127199.444 1
  23439275.423     4121379.480 3   3211462.299 1
  20858569.309     -850085.899 4   -662403.330 3
 91  7 23  1 18 30.0010000  0  5 03 23 20 16 17
  20709560.172     -212374.413 4   -165486.089 3
  23185394.387    -3855183.479 3  -3004028.782 1
  24267033.578     5358788.446 2   4175669.249 1
  23449021.082     4172600.928 3   3251375.103 1
  20857567.405     -855331.146 4   -666490.516 3
 91  7 23  1 18 45.0010000  0  5 03 23 20 16 17
  20710044.634     -209810.678 4   -163488.378 3
  23177350.054    -3897440.358 3  -3036956.131 1
  24278873.586     5420994.609 2   4224141.438 1
  23458779.322     4223879.970 2   3291332.762 1
  20856582.890     -860509.617 4   -670525.681 3
 91  7 23  1 19  0.0010000  0  5 03 23 20 16 17
  20710553.683     -207157.371 4   -161420.861 2
  23169322.213    -3939641.648 3  -3069840.121 1
  24290714.788     5483207.354 2   4272618.721 1
  23468544.761     4275220.261 2   3331338.165 1
  20855612.457     -865617.277 4   -674505.669 3
 91  7 23  1 19 15.0010000  0  5 03 23 20 16 17
  20711069.023     -204423.565 4   -159290.617 3
  23161299.170    -3981796.196 3  -3102687.720 1
  24302555.093     5545417.121 2   4321093.739 1
  23478329.691     4326612.260 2   3371383.856 1
  20854649.528     -870663.512 4   -678437.783 3
 91  7 23  1 19 30.0010000  0  5 03 23 20 16 17
  20711609.256     -201605.196 4   -157094.477 3
  23153285.716    -4023899.556 3  -3135495.436 1
  24314390.598     5607627.752 2   4369569.440 1
  23488118.810     4378059.843 2   3411472.830 1
  20853702.478     -875644.271 4   -682318.874 3
 91  7 23  1 19 45.0010000  0  5 03 23 20 16 17
  20712164.164     -198701.364 4   -154831.751 3
  23145283.351    -4065951.094 3  -3168262.766 1
  24326226.104     5669839.518 2   4418046.009 1
  23497918.730     4429563.232 3   3451605.327 1
  20852765.035     -880558.725 4   -686148.310 3
 91  7 23  1 20  0.0010000  0  5 03 23 20 16 17
  20712730.476     -195711.637 4   -152502.098 2
  23137293.289    -4107950.653 3  -3200989.604 1
  24338073.004     5732051.863 2   4466522.975 1
  23507733.936     4481121.889 3   3491780.875 1
  20851845.269     -885407.273 4   -689926.385 3
 91  7 23  1 20 15.0010000  0  5 03 23 20 16 17
  20713318.967     -192637.004 4   -150106.269 2
  23129310.408    -4149898.717 3  -3233676.297 1
  24349905.508     5794263.650 2   4514999.587 1
  23517553.340     4532734.888 3   3531998.793 1
  20850933.600     -890190.812 4   -693653.810 3
 91  7 23  1 20 30.0010000  0  5 03 23 20 16 17
  20713915.555     -189480.030 4   -147646.288 3
  23121338.633    -4191798.168 2  -3266325.137 1
  24361744.015     5856471.822 2   4563473.311 1
  23527379.636     4584398.956 2   3572256.479 1
  20850034.818     -894912.173 4   -697332.778 3
 91  7 23  1 20 45.0010000  0  5 03 23 20 16 17
  20714528.930     -186225.106 4   -145109.980 2
  23113375.541    -4233633.002 2  -3298923.597 1
  24373583.717     5918691.326 2   4611955.892 1
  23537223.618     4636129.195 2   3612565.715 1
  20849153.128     -899555.748 4   -700951.136 3
 91  7 23  1 21  0.0010000  0  5 03 23 20 16 17
  20715173.183     -182879.281 4   -142502.845 3
  23105424.445    -4275410.542 3  -3331477.431 1
  24385422.521     5980914.487 2   4660441.354 1
  23547083.793     4687917.867 3   3652920.489 1
  20848282.231     -904129.183 4   -704514.837 3
 91  7 23  1 21 15.0010000  0  5 03 23 20 16 17
  20715825.237     -179441.990 4   -139824.422 2
  23097487.746    -4317129.681 3  -3363985.754 1
  24397265.225     6043141.532 2   4708929.813 1
  23556948.768     4739765.481 2   3693321.195 1
  20847425.731     -908631.750 4   -708023.315 3
 91  7 23  1 21 30.0010000  0  5 03 23 20 16 17
  20716498.562     -175925.623 4   -137084.401 3
  23089551.936    -4358803.117 2  -3396458.468 1
  24409109.124     6105359.218 2   4757410.999 1
  23566825.425     4791658.845 3   3733757.565 1
  20846579.413     -913076.484 4   -711486.728 3
 91  7 23  1 21 45.0010000  0  5 03 23 20 16 17
  20717182.096     -172322.351 4   -134276.658 3
  23081630.218    -4400423.180 3  -3428889.581 1
  24420946.427     6167574.754 2   4805890.495 1
  23576709.883     4843604.945 3   3774235.047 1
  20845747.491     -917455.873 4   -714899.228 3
 91  7 23  1 22  0.0010000  0  5 03 23 20 16 17
  20717883.307     -168631.393 4   -131400.593 2
  23073728.594    -4441988.570 3  -3461278.111 1
  24432783.433     6229788.671 2   4854368.739 1
  23586603.930     4895604.503 2   3814754.149 2
  20844926.659     -921768.914 4   -718260.025 3
 91  7 23  1 22 15.0010000  0  5 03 23 20 16 17
  20718601.008     -164852.367 4   -128455.891 3
  23065830.259    -4483499.071 3  -3493623.869 1
  24444623.737     6292000.796 2   4902845.552 1
  23596506.379     4947656.868 2   3855314.414 1
  20844116.620     -926015.815 4   -721569.292 3
 91  7 23  1 22 30.0010000  0  5 03 23 20 16 17
  20719335.802     -160991.713 4   -125447.588 2
  23057937.325    -4524961.053 3  -3525931.803 2
  24456458.946     6354204.064 2   4951315.472 1
  23606425.911     4999755.459 2   3895910.677 1
  20843321.265     -930203.130 4   -724832.118 3
 91  7 23  1 22 45.0010000  0  5 03 23 20 16 17
  20720087.679     -157045.620 4   -122372.706 3
  23050050.079    -4566370.646 2  -3558198.919 1
  24468297.147     6416401.906 2   4999781.132 1
  23616347.843     5051903.982 2   3936545.850 1
  20842533.414     -934326.960 4   -728045.488 3
 91  7 23  1 23  0.0010000  0  5 03 23 20 16 17
  20720858.150     -153009.297 4   -119227.523 2
  23042184.725    -4607723.100 3  -3590421.523 1
  24480135.654     6478598.474 2   5048245.919 1
  23626279.670     5104106.317 2   3977222.964 1
  20841763.249     -938383.188 4   -731206.168 3
 91  7 23  1 23 15.0010000  0  5 03 23 20 16 17
  20721639.405     -148878.133 4   -116008.441 2
  23034328.969    -4649013.808 3  -3622596.005 1
  24491974.161     6540797.859 2   5096712.810 1
  23636225.282     5156366.727 2   4017945.350 1
  20841010.167     -942367.412 4   -734310.744 3
 91  7 23  1 23 30.0010000  0  5 03 23 20 16 17
  20722446.146     -144658.731 4   -112720.589 2
  23026486.692    -4690249.327 3  -3654727.489 1
  24503806.072     6602992.650 2   5145176.124 1
  23646177.795     5208677.975 2   4058707.346 1
  20840258.892     -946286.465 4   -737364.542 3
 91  7 23  1 23 45.0010000  0  5 03 23 20 16 17
  20723264.282     -140350.467 4   -109363.487 3
  23018643.526    -4731428.555 3  -3686815.123 1
  24515640.975     6665183.285 2   5193636.191 1
  23656145.892     5261040.471 2   4099509.246 1
  20839527.396     -950139.602 4   -740366.980 3
 91  7 23  1 24  0.0010000  0  5 03 23 20 16 17
  20724100.401     -135953.012 4   -105936.898 2
  23010821.641    -4772551.481 3  -3718858.899 1
  24527478.278     6727369.451 2   5242093.142 1
  23666123.883     5313453.842 2   4140350.799 1
  20838802.200     -953927.038 4   -743318.215 3
 91  7 23  1 24 15.0010000  0  5 03 23 20 16 17
  20724952.713     -131477.184 4   -102449.237 2
  23002999.458    -4813628.957 3  -3750867.220 1
  24539303.296     6789539.678 2   5290537.443 1
  23676104.273     5365906.468 2   4181222.952 1
  20838096.487     -957659.671 4   -746226.743 3
 91  7 23  1 24 30.0010000  0  5 03 23 20 16 17
  20725824.212     -126904.698 4    -98886.256 2
  22995199.455    -4854642.609 3  -3782825.817 1
  24551139.700     6851711.724 2   5338983.033 1
  23686091.861     5418416.213 2   4222139.623 1
  20837399.464     -961319.561 4   -749078.597 3
 91  7 23  1 24 45.0010000  0  5 03 23 20 16 17
  20726709.199     -122240.479 4    -95251.798 2
  22987406.947    -4895596.949 3  -3814738.200 1
  24562968.313     6913880.331 2   5387426.036 1
  23696096.237     5470977.797 2   4263096.654 1
  20836716.541     -964911.565 4   -751877.559 3
 91  7 23  1 25  0.0010000  0  5 03 23 20 16 17
  20727616.366     -117491.425 4    -91551.235 2
  22979627.038    -4936499.158 3  -3846609.995 1
  24574796.620     6976037.817 2   5435860.285 1
  23706105.106     5523583.695 3   4304088.223 1
  20836044.106     -968443.137 4   -754629.416 3
 91  7 23  1 25 15.0010000  0  5 03 23 20 16 17
  20728533.436     -112654.109 4    -87781.891 2
  22971848.918    -4977345.801 3  -3878438.437 1
  24586625.530     7038187.058 2   5484288.105 1
  23716128.668     5576236.800 3   4345116.611 1
  20835380.064     -971911.066 4   -757331.686 3
 91  7 23  1 25 30.0010000  0  5 03 23 20 16 17
  20729472.389     -107726.533 4    -83942.221 2
  22964089.094    -5018134.738 3  -3910221.943 1
  24598442.756     7100329.504 2   5532710.619 1
  23726152.527     5628938.797 2   4386183.101 1
  20834738.507     -975313.549 4   -759982.959 3
 91  7 23  1 25 45.0010000  0  5 03 23 20 16 17
  20730428.120     -102707.523 4    -80031.300 2
  22956337.655    -5058864.576 3  -3941959.403 1
  24610275.557     7162466.027 2   5581128.536 1
  23736191.376     5681690.281 2   4427288.107 1
  20834098.153     -978649.754 4   -762582.589 3
 91  7 23  1 26  0.0010000  0  5 03 23 20 16 17
  20731398.247      -97598.484 4    -76050.225 2
  22948597.916    -5099536.762 3  -3973651.930 1
  24622092.181     7224594.446 2   5629540.139 1
  23746243.416     5734489.419 3   4468430.252 1
  20833479.386     -981921.206 4   -765131.768 3
 91  7 23  1 26 15.0010000  0  5 03 23 20 16 17
  20732390.563      -92400.943 4    -72000.181 2
  22940871.064    -5140152.951 3  -4005300.818 1
  24633913.595     7286712.517 2   5677943.642 1
  23756298.755     5787333.751 3   4509607.608 1
  20832863.306     -985129.666 4   -767631.851 3
 91  7 23  1 26 30.0010000  0  5 03 23 20 16 17
  20733397.266      -87110.494 4    -67877.746 2
  22933147.511    -5180708.537 3  -4036902.514 1
  24645737.409     7348824.479 2   5726342.434 1
  23766363.387     5840227.548 3   4550823.552 1
  20832273.314     -988270.929 4   -770079.580 3
 91  7 23  1 26 45.0010000  0  5 03 23 20 16 17
  20734421.960      -81725.289 4    -63681.486 2
  22925445.848    -5221201.892 3  -4068455.684 1
  24657554.034     7410931.496 2   5774737.371 1
  23776431.621     5893172.072 2   4592079.013 1
  20831685.425     -991343.499 4   -772473.778 3
 91  7 23  1 27  0.0010000  0  5 03 23 20 16 17
  20735462.839      -76246.567 4    -59412.345 2
  22917757.064    -5261634.022 3  -4099961.161 1
  24669368.250     7473031.919 2   5823127.146 1
  23786521.730     5946165.623 3   4633372.683 1
  20831116.714     -994348.655 4   -774815.453 3
 91  7 23  1 27 15.0010000  0  5 03 23 20 16 17
  20736522.303      -70681.129 4    -55075.626 2
  22910066.492    -5302011.390 3  -4131423.970 1
  24681188.172     7535118.552 2   5871506.134 1
  23796612.152     5999201.238 3   4674699.108 1
  20830551.013     -997293.371 4   -777110.025 3
 91  7 23  1 27 30.0010000  0  5 03 23 20 16 17
  20737595.561      -65024.239 4    -50667.663 2
  22902393.299    -5342329.541 3  -4162840.616 1
  24693000.294     7597195.334 2   5919877.519 1
  23806712.452     6052282.984 2   4716061.495 1
  20830006.583    -1000173.479 4   -779354.260 3
 91  7 23  1 27 45.0010000  0  5 03 23 20 16 17
  20738694.000      -59273.081 4    -46186.233 2
  22894735.402    -5382585.823 3  -4194209.083 1
  24704812.111     7659264.427 2   5968242.916 1
  23816820.857     6105412.723 2   4757461.249 1
  20829469.056    -1002986.290 4   -781546.041 3
 91  7 23  1 28  0.0010000  0  5 03 23 20 16 17
  20739804.733      -53430.602 4    -41633.659 2
  22887089.197    -5422782.718 3  -4225531.249 1
  24716614.645     7721322.549 2   6016599.691 1
  23826943.048     6158587.382 2   4798896.038 1
  20828948.620    -1005734.748 4   -783687.694 3
 91  7 23  1 28 15.0010000  0  5 03 23 20 16 17
  20740933.151      -47506.625 4    -37017.562 2
  22879444.492    -5462929.978 3  -4256814.763 2
  24728423.765     7783359.600 2   6064940.107 1
  23837068.240     6211796.678 2   4840357.808 1
  20828435.977    -1008428.898 4   -785787.028 3
 91  7 23  1 28 30.0010000  0  5 03 23 20 16 17
  20742081.358      -41485.615 4    -32325.863 2
  22871818.973    -5503012.006 3  -4288047.435 1
  24740226.299     7845390.564 2   6113275.768 1
  23847201.224     6265055.652 2   4881858.291 1
  20827933.218    -1011053.387 4   -787832.072 3
 91  7 23  1 28 45.0010000  0  5 03 23 20 16 17
  20743239.154      -35369.837 4    -27560.323 2
  22864199.441    -5543031.302 3  -4319231.215 2
  24752033.622     7907412.207 2   6161604.174 1
  23857345.306     6318361.277 2   4923395.097 1
  20827450.257    -1013610.946 4   -789824.964 3
 91  7 23  1 29  0.0010000  0  5 03 23 20 16 17
  20744426.929      -29153.984 4    -22716.802 3
  22856604.198    -5582982.546 3  -4350362.004 1
  24763830.161     7969429.381 2   6209929.176 1
  23867503.173     6371718.629 2   4964972.209 1
  20826973.884    -1016096.497 4   -791761.753 3
 91  7 23  1 29 15.0010000  0  5 03 23 20 16 17
  20745625.201      -22844.304 4    -17800.172 2
  22849008.363    -5622871.759 3  -4381444.442 1
  24775634.483     8031435.500 2   6258245.826 1
  23877662.542     6425120.804 2   5006584.259 1
  20826513.408    -1018516.434 4   -793647.404 3
 91  7 23  1 29 30.0010000  0  5 03 23 20 16 17
  20746842.057      -16437.746 4    -12808.037 2
  22841433.206    -5662695.866 3  -4412476.127 1
  24787429.522     8093432.872 2   6306555.329 1
  23887838.994     6478570.161 2   5048233.086 1
  20826068.514    -1020867.986 4   -795479.782 3
 91  7 23  1 29 45.0010000  0  5 03 23 20 16 17
  20748085.603       -9931.159 4     -7737.973 2
  22833864.645    -5702451.415 3  -4443454.395 1
  24799226.951     8155424.530 2   6354860.380 1
  23898014.853     6532069.770 2   5089921.080 1
  20825630.217    -1023147.942 4   -797256.368 3
 91  7 23  1 30  0.0010000  0  5 03 23 20 16 17
  20749340.832       -3327.177 4     -2592.019 2
  22826317.068    -5742141.516 3  -4474381.722 1
  24811024.685     8217407.115 2   6403158.330 1
  23908201.793     6585616.377 2   5131645.706 1
  20825208.411    -1025359.341 4   -798979.522 3
 91  7 23  1 30 15.0010000  0  5 03 23 20 16 17
  20750611.051        3369.506 4      2626.185 2
  22818772.493    -5781770.563 3  -4505261.402 2
  24822813.424     8279375.349 2   6451445.171 1
  23918400.433     6639204.864 2   5173402.937 1
  20824803.688    -1027507.279 4   -800653.236 3
 91  7 23  1 30 30.0010000  0  5 03 23 20 16 17
  20751904.059       10155.500 4      7913.970 2
  22811244.704    -5821341.866 3  -4536096.132 2
  24834603.664     8341325.426 2   6499717.803 1
  23928606.873     6692831.423 2   5215189.828 1
  20824404.662    -1029595.160 4   -802280.152 3
 91  7 23  1 30 45.0010000  0  5 03 23 20 16 17
  20753215.051       17039.926 4     13278.464 2
  22803728.006    -5860846.190 3  -4566878.664 2
  24846391.800     8403265.934 2   6547982.893 1
  23938823.496     6746504.875 2   5257013.298 1
  20824021.229    -1031613.779 4   -803853.091 3
 91  7 23  1 31  0.0010000  0  5 03 23 20 16 17
  20754543.728       24019.038 4     18716.735 2
  22796220.608    -5900287.606 3  -4597612.157 1
  24858167.652     8465192.468 2   6596237.172 1
  23949041.925     6800220.260 2   5298869.388 1
  20823650.089    -1033567.713 4   -805375.627 3
 91  7 23  1 31 15.0010000  0  5 03 23 20 16 17
  20755888.895       31092.812 4     24228.776 2
  22788724.291    -5939665.688 3  -4628296.306 2
  24869954.891     8527104.687 2   6644480.259 1
  23959271.137     6853977.361 2   5340758.032 1
  20823292.734    -1035457.038 4   -806847.816 3
 91  7 23  1 31 30.0010000  0  5 03 23 20 16 17
  20757254.148       38262.197 4     29815.298 2
  22781247.475    -5978979.365 3  -4658930.297 2
  24881736.431     8589003.014 2   6692712.613 1
  23969514.450     6907776.837 2   5382679.667 1
  20822942.273    -1037280.881 4   -808268.986 3
 91  7 23  1 31 45.0010000  0  5 03 23 20 16 17
  20758635.298       45532.518 4     35480.487 2
  22773778.441    -6018223.774 3  -4689510.275 2
  24893515.878     8650891.946 2   6740937.532 1
  23979752.659     6961623.009 2   5424637.672 1
  20822614.008    -1039034.419 4   -809635.378 3
 91  7 23  1 32  0.0010000  0  5 03 23 20 16 17
  20760038.321       52905.079 4     41225.338 2
  22766325.305    -6057397.225 3  -4720034.955 1
  24905283.031     8712772.408 2   6789155.938 1
  23990009.164     7015517.101 2   5466633.044 1
  20822288.431    -1040716.114 4   -810945.770 3
 91  7 23  1 32 15.0010000  0  5 03 23 20 16 17
  20761461.142       60378.315 4     47048.641 2
  22758872.762    -6096501.266 3  -4750505.589 1
  24917063.376     8774642.368 2   6837366.061 1
  24000280.048     7069457.132 2   5508664.230 1
  20821983.244    -1042327.959 4   -812201.753 3
 91  7 23  1 32 30.0010000  0  5 03 23 20 16 17
  20762904.040       67948.549 4     52947.521 2
  22751444.806    -6135539.533 3  -4780924.955 2
  24928831.733     8836497.747 2   6885564.863 1
  24010545.845     7123439.071 2   5550728.028 1
  20821688.841    -1043873.822 4   -813406.314 3
 91  7 23  1 32 45.0010000  0  5 03 23 20 16 17
  20764363.733       75620.646 4     58925.784 2
  22744032.730    -6174507.196 3  -4811289.277 1
  24940600.684     8898342.775 2   6933755.726 1
  24020825.132     7177466.946 2   5592827.629 1
  20821405.842    -1045349.067 4   -814555.853 3
 91  7 23  1 33  0.0010000  0  5 03 23 20 16 17
  20765844.707       83399.868 4     64987.514 2
  22736632.058    -6213398.848 3  -4841594.410 2
  24952367.531     8960182.280 2   6981942.236 1
  24031116.406     7231545.918 2   5634967.070 1
  20821140.826    -1046748.796 4   -815646.541 3
 91  7 23  1 33 15.0010000  0  5 03 23 20 16 17
  20767343.366       91279.789 4     71127.700 2
  22729244.273    -6252220.599 3  -4871845.053 2
  24964134.388     9022009.495 2   7030119.130 1
  24041418.474     7285669.022 2   5677140.856 1
  20820888.103    -1048079.392 4   -816683.365 3
 91  7 23  1 33 30.0010000  0  5 03 23 20 16 17
  20768860.017       99251.635 4     77339.525 2
  22721869.375    -6290981.720 3  -4902048.458 2
  24975897.946     9083814.728 2   7078278.947 1
  24051722.042     7339826.476 2   5719341.429 1
  20820644.664    -1049350.277 4   -817673.650 3
 91  7 23  1 33 45.0010000  0  5 03 23 20 16 17
  20770394.057      107319.914 4     83626.510 2
  22714506.770    -6329677.102 3  -4932200.614 1
  24987644.115     9145602.369 2   7126424.916 1
  24062032.503     7394022.789 2   5761572.285 1
  20820417.122    -1050556.602 4   -818613.634 3
 91  7 23  1 34  0.0010000  0  5 03 23 20 16 17
  20771949.674      115492.435 4     89994.697 2
  22707158.265    -6368299.478 3  -4962295.903 2
  24999411.268     9207379.266 2   7174562.656 1
  24072364.550     7448265.206 2   5803839.066 1
  20820200.076    -1051691.261 4   -819497.777 3
 91  7 23  1 34 15.0010000  0  5 03 23 20 16 17
  20773526.589      123770.800 4     96445.370 2
  22699819.044    -6406846.894 3  -4992332.795 2
  25011165.228     9269146.941 2   7222693.116 1
  24082689.399     7502554.777 2   5846142.609 1
  20819999.817    -1052752.625 4   -820324.802 3
 91  7 23  1 34 30.0010000  0  5 03 23 20 16 17
  20775119.384      132148.688 4    102973.597 2
  22692500.213    -6445325.438 3  -5022315.995 2
  25022922.793     9330898.454 2   7270811.060 1
  24093028.941     7556884.642 2   5888477.519 1
  20819810.046    -1053747.001 4   -821099.630 3
 91  7 23  1 34 45.0010000  0  5 03 23 20 16 17
  20776728.966      140617.863 4    109572.956 2
  22685188.869    -6483743.317 3  -5052251.942 2
  25034657.567     9392624.896 2   7318909.363 1
  24103373.884     7611246.026 2   5930836.987 1
  20819632.569    -1054683.117 4   -821829.068 3
 91  7 23  1 35  0.0010000  0  5 03 23 20 16 17
  20778364.034      149190.024 4    116252.560 2
  22677892.226    -6522089.256 3  -5082131.850 2
  25046406.135     9454337.364 2   7366996.863 1
  24113726.313     7665650.141 2   5973229.745 1
  20819468.284    -1055549.671 4   -822504.286 3
 91  7 23  1 35 15.0010000  0  5 03 23 20 16 17
  20780009.302      157852.033 4    123002.167 2
  22670609.360    -6560375.861 3  -5111965.487 2
  25058138.510     9516022.612 2   7415063.163 1
  24124085.347     7720084.120 2   6015645.807 1
  20819312.985    -1056359.452 4   -823135.282 3
 91  7 23  1 35 30.0010000  0  5 03 23 20 16 17
  20781678.546      166607.832 4    129824.865 2
  22663333.998    -6598599.276 3  -5141749.906 1
  25069878.388     9577683.934 2   7463110.787 1
  24134452.163     7774550.836 2   6058087.350 1
  20819169.990    -1057108.948 4   -823719.302 3
 91  7 23  1 35 45.0010000  0  5 03 23 20 16 17
  20783364.280      175467.609 4    136728.586 2
  22656069.725    -6636749.606 3  -5171477.365 2
  25081611.661     9639330.712 2   7511147.036 1
  24144824.084     7829059.666 2   6100561.759 1
  20819042.873    -1057788.756 4   -824249.010 3
 91  7 23  1 36  0.0010000  0  5 03 23 20 16 17
  20785067.099      184426.454 4    143709.504 2
  22648830.040    -6674831.161 3  -5201151.235 1
  25093332.048     9700958.035 2   7559168.212 1
  24155206.501     7883605.751 2   6143065.177 1
  20818924.456    -1058403.399 4   -824727.938 3
 91  7 23  1 36 15.0010000  0  5 03 23 20 16 17
  20786792.402      193484.140 4    150767.440 2
  22641586.760    -6712844.497 3  -5230771.963 2
  25105058.428     9762564.978 2   7607173.399
  24165591.309     7938188.188 2   6185596.858 1
  20818821.927    -1058953.581 4   -825156.648 3
 91  7 23  1 36 30.0010000  0  5 03 23 20 16 17
  20788534.195      202642.482 4    157903.802 2
  22634377.045    -6750787.738 3  -5260338.066 1
  25116775.220     9824152.581 2   7655163.617 1
  24175982.713     7992808.126 2   6228157.841 1
  20818725.698    -1059437.715 4   -825533.889 3
 91  7 23  1 36 45.0010000  0  5 03 23 20 16 17
  20790299.075      211903.541 4    165120.211 2
  22627161.642    -6788658.519 3  -5289847.695 1
  25128496.802     9885722.740 2   7703140.186 1
  24186386.114     8047467.621 2   6270749.629 1
  20818648.054    -1059853.691 4   -825858.024 3
 91  7 23  1 37  0.0010000  0  5 03 23 20 16 17
  20792076.546      221268.750 4    172417.773 2
  22619975.014    -6826455.479 3  -5319299.835 1
  25140216.586     9947276.258 2   7751103.764 1
  24196792.211     8102167.416 2   6313372.818 1
  20818583.898    -1060200.308 4   -826128.098 3
 91  7 23  1 37 15.0010000  0  5 03 23 20 16 17
  20793880.096      230734.658 4    179793.801 2
  22612795.288    -6864181.843 3  -5348696.942 2
  25151914.793    10008809.219 2   7799051.373 1
  24207215.095     8156903.523 2   6356024.309 1
  20818531.434    -1060481.373 4   -826347.100 3
 91  7 23  1 37 30.0010000  0  5 03 23 20 16 17
  20795698.941      240295.850 4    187244.075 2
  22605627.846    -6901843.509 3  -5378043.630 2
  25163619.885    10070315.518 2   7846978.193 1
  24217635.580     8211670.036 2   6398699.429 1
  20818483.463    -1060702.779 4   -826519.618 3
 91  7 23  1 37 45.0010000  0  5 03 23 20 16 17
  20797538.167      249958.318 4    194773.266 2
  22598474.802    -6939433.757 3  -5407334.675 1
  25175322.585    10131801.073 2   7894888.848 1
  24228059.363     8266472.970 2   6441402.982 1
  20818455.883    -1060857.863 4   -826640.455 4
 91  7 23  1 38  0.0010000  0  4 03 23 16 17
  20799394.478      259724.434 4    202383.226 2
  22591331.049    -6976950.786 3  -5436568.667 1
  24238499.636     8321313.644 2   6484135.917 1
  20818440.597    -1060945.145 4   -826708.465 4
 91  7 23  1 38 15.0010000  0  4 03 23 16 17
  20801273.282      269588.651 4    210069.626 2
  22584206.177    -7014399.725 3  -5465749.596 2
  24248936.009     8376186.228 2   6526893.714 1
  20818435.501    -1060970.150 4   -826727.930 4
 91  7 23  1 38 30.0010000  0  4 03 23 16 17
  20803171.560      279553.016 4    217834.065 2
  22577095.100    -7051778.322 3  -5494875.703 2
  24259384.973     8431092.618 2   6569677.914 1
  20818444.488    -1060930.796 4   -826697.264 3
 91  7 23  1 38 45.0010000  0  4 03 23 16 17
  20805085.142      289627.092 4    225683.973 2
  22569999.013    -7089077.476 3  -5523939.919 2
  24269841.440     8486041.339 2   6612495.107 1
  20818463.675    -1060818.508 4   -826609.763 3
 91  7 23  1 39  0.0010000  0  4 03 23 16 17
  20807023.600      299804.349 4    233614.313 2
  22562914.617    -7126303.212 3  -5552946.921 1
  24280304.495     8541025.957 2   6655340.201 1
  20818499.954    -1060639.295 4   -826470.105 3
 91  7 23  1 39 15.0010000  0  4 03 23 16 17
  20808982.744      310087.495 4    241627.149 2
  22555841.014    -7163453.238 3  -5581894.940 2
  24290781.640     8596048.094 2   6698214.552 1
  20818545.525    -1060390.944 4   -826276.580 3
 91  7 23  1 39 30.0010000  0  4 03 23 16 17
  20810955.378      320471.236 4    249718.379 2
  22548785.097    -7200532.628 3  -5610787.893 2
  24301257.591     8651102.461 2   6741114.056 1
  20818604.280    -1060079.029 4   -826033.520 3
 91  7 23  1 39 45.0010000  0  4 03 23 16 17
  20812952.294      330959.659 4    257891.165 2
  22541744.772    -7237536.933 3  -5639622.374 2
  24311733.838     8706192.391 2   6784041.190 1
  20818677.431    -1059699.575 4   -825737.834 3
 91  7 23  1 40  0.0010000  0  4 03 23 16 17
  20814968.396      341556.987 4    266148.825 2
  22534720.937    -7274462.058 3  -5668395.133 2
  24322227.770     8761321.922 2   6826999.238 1
  20818760.468    -1059248.550 4   -825386.378 3
 91  7 23  1 40 15.0010000  0  4 03 23 16 17
  20817001.294      352258.782 4    274487.889 2
  22527703.698    -7311312.391 3  -5697109.621 2
  24332729.503     8816486.169 2   6869984.340 1
  20818859.105    -1058730.529 4   -824982.719 3
 91  7 23  1 40 30.0010000  0  4 03 23 16 17
  20819065.960      363067.317 4    282910.111 2
  22520705.341    -7348085.816 3  -5725764.195 2
  24343228.235     8871686.819 2   6912997.819 1
  20818973.326    -1058143.550 4   -824525.326 3
 91  7 23  1 40 45.0010000  0  4 03 23 16 17
  20821139.028      373980.999 4    291414.273 2
  22513727.374    -7384783.806 3  -5754359.970 2
  24353739.557     8926921.694 2   6956037.916 1
  20819097.737    -1057489.311 4   -824015.523 3
 91  7 23  1 41  0.0010000  0  4 03 23 16 17
  20823234.573      385008.058 4    300006.782 2
  22506758.394    -7421398.028 3  -5782890.487 2
  24364260.476     8982198.682 2   6999110.839 1
  20819237.138    -1056759.718 4   -823446.998 3
 91  7 23  1 41 15.0010000  0  4 03 23 16 17
  20825355.908      396144.174 4    308684.277 2
  22499811.602    -7457932.596 3  -5811358.912 2
  24374787.390     9037513.047 2   7042212.903 1
  20819387.637    -1055959.655 4   -822823.564 3
 91  7 23  1 41 30.0010000  0  4 03 23 16 17
  20827494.023      407383.651 4    317442.312 2
  22492864.217    -7494392.932 3  -5839769.515 2
  24385317.898     9092859.043 2   7085339.587 1
  20819552.228    -1055094.411 4   -822149.340 3
 91  7 23  1 41 45.0010000  0  4 03 23 16 17
  20829653.435      418732.507 4    326285.568 2
  22485945.903    -7530773.465 3  -5868117.944 2
  24395858.894     9148241.702 2   7128494.892 1
  20819732.401    -1054158.601 4   -821420.134 3
 91  7 23  1 42  0.0010000  0  4 03 23 16 17
  20831835.017      430194.101 4    335216.683 2
  22479036.586    -7567070.801 3  -5896401.509 2
  24406408.598     9203663.803 2   7171680.871 1
  20819924.266    -1053149.059 4   -820633.464 3
 91  7 23  1 42 15.0010000  0  4 03 23 16 17
  20834037.592      441766.890 4    344234.438 2
  22472144.657    -7603286.184 3  -5924621.235 2
  24416959.488     9259123.783 2   7214896.434 1
  20820131.121    -1052067.210 4   -819790.462 3
 91  7 23  1 42 30.0010000  0  4 03 23 16 17
  20836263.254      453450.043 4    353338.198 2
  22465270.414    -7639420.583 3  -5952777.865 2
  24427518.484     9314620.243 2   7258140.394 1
  20820348.176    -1050914.349 4   -818892.122 3
 91  7 23  1 42 45.0010000  0  4 03 23 16 17
  20838505.703      465235.552 4    362521.704 2
  22458409.067    -7675481.822 3  -5980877.464 2
  24438081.668     9370144.779 2   7301406.210 1
  20820577.210    -1049698.532 4   -817944.724 3
 91  7 23  1 43  0.0010000  0  4 03 23 16 17
  20840766.737      477131.438 4    371791.218 2
  22451563.303    -7711462.076 3  -6008913.961 2
  24448657.146     9425705.024 2   7344699.903 1
  20820825.143    -1048412.059 4   -816942.274 3
 91  7 23  1 43 15.0010000  0  4 03 23 16 17
  20843053.553      489135.780 4    381145.254 2
  22444729.833    -7747362.785 3  -6036888.494 2
  24459241.619     9481298.617 2   7388019.504 1
  20821082.664    -1047057.033 4   -815886.396 3
 91  7 23  1 43 30.0010000  0  4 03 23 16 17
  20845359.556      501250.080 4    390584.960 2
  22437914.353    -7783182.478 3  -6064799.888 2
  24469819.496     9536926.668 2   7431366.008 1
  20821353.082    -1045631.926 4   -814775.921 3
 91  7 23  1 43 45.0010000  0  4 03 23 16 17
  20847684.151      513475.559 4    400111.312 2
  22431110.269    -7818919.935 3  -6092647.206 2
  24480413.567     9592589.561 2   7474739.676 1
  20821642.380    -1044135.852 4   -813610.146 3
 91  7 23  1 44  0.0010000  0  4 03 23 16 17
  20850029.722      525813.294 4    409725.118 2
  22424329.263    -7854574.235 3  -6120429.717 2
  24491010.927     9648288.074 2   7518141.087 1
  20821937.673    -1042568.030 4   -812388.455 3
 91  7 23  1 44 15.0010000  0  4 03 23 16 17
  20852399.287      538261.211 4    419424.796 2
  22417558.151    -7890147.196 3  -6148148.858 2
  24501621.479     9704019.810 2   7561568.360 1
  20822249.456    -1040930.510 4   -811112.456 3
 91  7 23  1 44 30.0010000  0  4 03 23 16 17
  20854789.226      550815.766 4    429207.570 2
  22410804.123    -7925642.383 3  -6175807.379 2
  24512228.140     9759780.706 2   7605018.326 1
  20822574.431    -1039227.225 4   -809785.215 3
 91  7 23  1 44 45.0010000  0  4 03 23 16 17
  20857198.664      563481.877 4    439077.268 2
  22404066.288    -7961054.845 3  -6203401.455 2
  24522845.891     9815575.590 2   7648494.832 1
  20822906.299    -1037453.366 4   -808402.982 3
 91  7 23  1 45  0.0010000  0  4 03 23 16 17
  20859631.181      576256.129 4    449031.222 2
  22397337.449    -7996388.010 3  -6230933.720 2
  24533464.235     9871400.227 2   7691994.544 1
  20823257.956    -1035612.498 4   -806968.529 3
 91  7 23  1 45 15.0010000  0  4 03 23 16 17
  20862083.783      589138.281 4    459069.264 2
  22390634.690    -8031641.851 3  -6258404.199 2
  24544096.077     9927253.957 2   7735516.924 1
  20823621.304    -1033704.973 4   -805482.128 3
 91  7 23  1 45 30.0010000  0  4 03 23 16 17
  20864554.367      602135.170 4    469196.712 2
  22383940.917    -8066809.639 3  -6285807.612 2
  24554733.913     9983143.179 2   7779066.922 1
  20824001.143    -1031724.336 4   -803938.774 4
 91  7 23  1 45 45.0010000  0  4 03 23 16 17
  20867045.944      615235.835 4    479405.019 2
  22377263.042    -8101902.009 3  -6313152.262 2
  24565375.344    10039056.728 2   7822635.865 1
  20824389.376    -1029681.448 4   -802346.910 3
 91  7 23  1 46  0.0010000  0  4 03 23 16 17
  20869559.701      628443.754 4    489696.905 2
  22370598.961    -8136915.704 3  -6340435.612 2
  24576019.174    10094997.635 2   7866226.187 1
  20824790.801    -1027573.223 4   -800704.128 3
 91  7 23  1 46 15.0010000  0  4 03 23 16 17
  20872094.746      641763.710 4    500076.088 2
  22363947.758    -8171845.975 3  -6367653.947 2
  24586671.397    10150969.863 2   7909840.880 1
  20825204.510    -1025395.055 4   -799006.846 3
 91  7 23  1 46 30.0010000  0  4 03 23 16 17
  20874653.480      655195.406 4    510542.332 2
  22357320.252    -8206692.971 3  -6394807.406 2
  24597327.827    10206972.975 2   7953479.647 1
  20825633.515    -1023147.555 4   -797255.547 3
 91  7 23  1 46 45.0010000  0  4 03 23 16 17
  20877228.696      668740.296 4    521096.796 2
  22350707.431    -8241454.940 3  -6421894.595 2
  24607989.046    10263008.131 2   7997143.340 1
  20826077.510    -1020829.216 4   -795449.045 3
 91  7 23  1 47  0.0010000  0  4 03 23 16 17
  20879826.397      682396.460 4    531737.954 2
  22344105.996    -8276134.207 3  -6448917.352 2
  24618656.259    10319072.646 2   8040829.920 1
  20826526.897    -1018442.397 4   -793589.183 3
 91  7 23  1 47 15.0010000  0  4 03 23 16 17
  20882446.887      696163.830 4    542465.769 2
  22337524.656    -8310730.447 3  -6475875.409 2
  24629332.468    10375166.474 2   8084539.304 1
  20826993.969    -1015986.954 4   -791675.839 3
 91  7 23  1 47 30.0010000  0  4 03 23 16 17
  20885084.453      710033.232 4    553273.095 2
  22330953.506    -8345252.871 3  -6502775.934 2
  24640010.475    10431279.850 2   8128263.996 1
  20827475.735    -1013472.310 4   -789716.379 3
 91  7 23  1 47 45.0010000  0  4 03 23 16 17
  20887746.318      724017.504 4    564169.937 2
  22324398.541    -8379688.521 3  -6529608.859 2
  24650692.381    10487425.049 2   8172013.470 1
  20827966.199    -1010885.887 4   -787700.978 3
 91  7 23  1 48  0.0010000  0  4 03 23 16 17
  20890430.353      738116.056 4    575155.817 2
  22317867.858    -8414038.013 3  -6556374.651 2
  24661384.775    10543601.094 2   8215786.966 1
  20828472.247    -1008228.551 4   -785630.323 3
 91  7 23  1 48 15.0010000  0  4 03 23 16 17
  20893136.280      752334.997 4    586235.503 2
  22311345.874    -8448295.294 3  -6583068.572 2
  24672081.375    10599813.668 2   8259588.939 1
  20828994.192    -1005494.455 4   -783499.851 3
 91  7 23  1 48 30.0010000  0  4 03 23 16 17
  20895864.395      766670.843 4    597406.287 2
  22304845.476    -8482463.518 3  -6609693.116 2
  24682790.259    10656059.082 2   8303416.446 1
  20829524.818    -1002686.876 4   -781312.127 3
 91  7 23  1 48 45.0010000  0  4 03 23 16 17
  20898614.688      781122.771 4    608667.536 2
  22298358.863    -8516543.770 3  -6636249.098 2
  24693494.354    10712335.804 2   8347268.412 1
  20830074.343     -999807.025 4   -779068.077 3
 91  7 23  1 49  0.0010000  0  4 03 23 16 17
  20901384.474      795687.130 4    620016.373 2
  22291888.750    -8550539.574 3  -6662739.288 2
  24704207.435    10768639.896 2   8391141.699 1
  20830636.152     -996858.806 4   -776770.759 3
 91  7 23  1 49 15.0010000  0  4 03 23 16 17
  20904179.441      810368.084 4    631456.063 2
  22285436.017    -8584446.853 3  -6689160.495 2
  24714931.911    10824975.116 2   8435039.191 1
  20831211.155     -993838.089 4   -774416.946 3
 91  7 23  1 49 30.0010000  0  4 03 23 16 17
  20906997.485      825162.767 4    642984.397 2
  22279000.665    -8618267.852 3  -6715514.468 2
  24725661.483    10881338.278 2   8478958.529 1
  20831798.145     -990747.661 4   -772008.819 3
 91  7 23  1 49 45.0010000  0  4 03 23 16 17
  20909833.826      840077.004 4    654605.868 2
  22272584.211    -8651997.236 3  -6741797.049 2
  24736380.559    10937734.640 2   8522903.643 1
  20832401.329     -987582.367 4   -769542.356 3
 91  7 23  1 50  0.0010000  0  4 03 23 16 17
  20912692.041      855103.228 4    666314.605 2
  22266180.941    -8685642.280 3  -6768013.914 2
  24747123.323    10994156.510 2   8566868.703 1
  20833016.502     -984349.791 4   -767023.456 3
 91  7 23  1 50 15.0010000  0  4 03 23 16 17
  20915573.648      870246.743 4    678114.748 2
  22259792.364    -8719197.749 3  -6794160.991 2
  24757872.081    11050608.496 2   8610857.229 1
  20833646.664     -981044.837 4   -764448.165 3
 91  7 23  1 50 30.0010000  0  4 03 23 16 17
  20918477.442      885508.735 4    690007.207 2
  22253426.577    -8752662.197 3  -6820237.138 2
  24768619.042    11107091.767 2   8654870.082 1
  20834284.024     -977666.206 4   -761815.464 3
 91  7 23  1 50 45.0010000  0  4 03 23 16 17
  20921408.808      900893.885 4    701995.640 2
  22247075.474    -8786030.910 3  -6846238.688 2
  24779367.800    11163610.119 2   8698910.331 1
  20834947.168     -974209.553 4   -759121.964 3
 91  7 23  1 51  0.0010000  0  4 03 23 16 17
  20924355.173      916396.497 4    714075.592 2
  22240742.057    -8819309.609 3  -6872170.092 2
  24790128.250    11220157.430 2   8742973.120 1
  20835619.001     -970680.858 4   -756372.327 3
 91  7 23  1 51 15.0010000  0  4 03 23 16 17
  20927324.912      932010.659 4    726242.463 2
  22234426.623    -8852504.160 3  -6898035.924 2
  24800900.392    11276727.319 2   8787053.540 1
  20836301.924     -967086.225 4   -753571.303 3
 91  7 23  1 51 30.0010000  0  4 03 23 16 17
  20930322.240      947743.459 4    738501.779 2
  22228126.187    -8885607.238 3  -6923830.484 2
  24811666.539    11333326.826 2   8831157.032 1
  20836999.845     -963418.378 4   -750713.241 3
 91  7 23  1 51 45.0010000  0  4 03 23 16 17
  20933339.950      963595.214 4    750853.796 2
  22221846.133    -8918618.959 3  -6949553.847 2
  24822438.986    11389955.744 2   8875283.455 1
  20837712.748     -959677.509 4   -747798.270 4
 91  7 23  1 52  0.0010000  0  4 03 23 16 17
  20936378.347      979564.656 4    763297.516 2
  22215580.178    -8951540.105 3  -6975206.646 2
  24833221.022    11446612.701 2   8919431.703 1
  20838432.857     -955864.636 4   -744827.191 3
 91  7 23  1 52 15.0010000  0  4 03 23 16 17
  20939440.729      995661.295 4    775840.339 2
  22209335.496    -8984361.411 3  -7000781.647 2
  24844013.249    11503306.415 2   8963608.575 1
  20839175.739     -951970.957 4   -741793.148 4
 91  7 23  1 52 30.0010000  0  4 03 23 16 17
  20942525.291     1011875.219 4    788474.554 2
  22203109.703    -9017092.421 3  -7026286.274 2
  24854805.772    11560026.629 2   9007806.147
  20839930.313     -948006.180 4   -738703.712 3
 91  7 23  1 52 45.0010000  0  4 03 23 16 17
  20945632.642     1028201.424 4    801196.261 2
  22196895.305    -9049738.260 3  -7051724.553 2
  24865602.798    11616768.197 2   9052020.315 1
  20840698.681     -943975.729 4   -735563.104 3
 91  7 23  1 53  0.0010000  0  4 03 23 16 17
  20948763.377     1044651.382 4    814014.411 2
  22190698.899    -9082287.337 3  -7077087.425 2
  24876406.123    11673541.830 2   9096259.496 1
  20841480.241     -939867.955 4   -732362.239 3
 91  7 23  1 53 15.0010000  0  4 03 23 16 17
  20951918.385     1061221.831 4    826926.429 2
  22184523.476    -9114742.987 3  -7102377.487 2
  24887218.435    11730344.015 2   9140520.914 1
  20842275.596     -935686.342 4   -729103.827 3
 91  7 23  1 53 30.0010000  0  4 03 23 16 17
  20955091.690     1077911.075 4    839931.030 2
  22178365.434    -9147106.680 3  -7127595.899 2
  24898037.648    11787172.658 2   9184802.938 1
  20843084.134     -931432.837 4   -725789.410 3
 91  7 23  1 53 45.0010000  0  4 03 23 16 17
  20958291.379     1094722.723 4    853031.009 2
  22172221.195    -9179374.951 3  -7152739.962 2
  24908854.462    11844031.275 2   9229108.314 1
  20843905.568     -927104.054 4   -722416.331 3
 91  7 23  1 54  0.0010000  0  4 03 23 16 17
  20961514.749     1111652.515 4    866223.054 2
  22166099.728    -9211551.636 3  -7177812.654 2
  24919670.369    11900915.014 2   9273433.296 1
  20844744.383     -922704.275 4   -718987.925 3
 91  7 23  1 54 15.0010000  0  4 03 23 16 17
  20964756.397     1128703.543 4    879509.565 2
  22159996.253    -9243633.896 3  -7202811.780 2
  24930503.970    11957826.479 2   9317779.874 1
  20845598.196     -918230.750 4   -715502.057 3
 91  7 23  1 54 30.0010000  0  4 03 23 16 17
  20968025.041     1145870.670 4    892886.540 2
  22153907.165    -9275626.789 3  -7227741.263 2
  24941334.273    12014760.126 2   9362143.671 1
  20846462.793     -913688.669 4   -711962.771 3
 91  7 23  1 54 45.0010000  0  4 03 23 16 17
  20971315.559     1163161.072 4    906359.567 2
  22147835.170    -9307522.950 3  -7252595.363 2
  24952177.167    12071722.937 2   9406530.251 1
  20847337.887     -909070.868 4   -708364.483 3
 91  7 23  1 55  0.0010000  0  4 03 23 16 17
  20974629.468     1180576.299 4    919929.852 2
  22141789.263    -9339320.797 3  -7277372.869 2
  24963021.561    12128716.142 2   9450940.474 1
  20848231.573     -904376.045 4   -704706.173 3
 91  7 23  1 55 15.0010000  0  4 03 23 16 17
  20977965.854     1198114.481 4    933595.969 2
  22135755.937    -9371022.304 3  -7302075.305 2
  24973884.540    12185737.202 2   9495372.416 1
  20849143.539     -899606.196 4   -700989.403 3
 91  7 23  1 55 30.0010000  0  4 03 23 16 17
  20981325.326     1215777.160 4    947359.085 2
  22129742.697    -9402625.734 3  -7326701.320 2
  24984730.435    12242787.384 2   9539827.066 1
  20850063.000     -894759.898 4   -697213.068 3
 91  7 23  1 55 45.0010000  0  4 03 23 16 17
  20984710.285     1233561.051 4    961216.658 2
  22123743.853    -9434134.322 3  -7351253.419 2
  24995591.310    12299863.068 2   9584301.543 1
  20850997.756     -889840.569 4   -693379.819 3
 91  7 23  1 56  0.0010000  0  4 03 23 16 17
  20988116.532     1251467.845 4    975169.992 2
  22117768.986    -9465546.294 3  -7375730.225 2
  25006462.683    12356965.560 2   9628796.960 1
  20851952.291     -884846.658 4   -689488.449 3
 91  7 23  1 56 15.0010000  0  4 03 23 16 17
  20991551.250     1269500.928 4    989221.736 2
  22111807.913    -9496858.295 3  -7400129.150 2
  25017325.365    12414097.956 2   9673315.668 1
  20852915.229     -879775.008 4   -685536.519 3
 91  7 23  1 56 30.0010000  0  4 03 23 16 17
  20995006.358     1287657.794 4   1003369.949 2
  22105869.028    -9528072.611 3  -7424451.953 2
  25028209.327    12471257.269 2   9717855.348 1
  20853894.047     -874628.322 4   -681526.111 3
 91  7 23  1 56 45.0010000  0  4 03 23 16 17
  20998485.748     1305942.558 4   1017617.797 2
  22099948.422    -9559185.298 3  -7448695.567 2
  25039087.898    12528447.071 2   9762418.803 1
  20854889.364     -869402.544 4   -677454.074 3
 91  7 23  1 57  0.0010000  0  4 03 23 16 17
  21001987.929     1324351.356 4   1031962.316 2
  22094047.910    -9590200.105 3  -7472862.904 2
  25049978.456    12585663.108 2   9807002.673 1
  20855898.763     -864101.708 4   -673323.542 3
 91  7 23  1 57 15.0010000  0  4 03 23 16 17
  21005513.483     1342881.947 4   1046401.727 2
  22088162.981    -9621119.136 3  -7496955.619 2
  25060872.017    12642903.168 2   9851605.280 1
  20856921.956     -858728.267 4   -669136.441 3
 91  7 23  1 57 30.0010000  0  4 03 23 16 17
  21009064.227     1361537.945 4   1060938.866 2
  22082301.139    -9651938.780 3  -7520970.873 2
  25071767.680    12700170.185 2   9896228.883 1
  20857960.131     -853278.475 4   -664889.851 3
 91  7 23  1 57 45.0010000  0  4 03 23 16 17
  21012638.355     1380319.814 4   1075574.075 2
  22076453.990    -9682658.395 3  -7544908.206 2
  25082672.329    12757464.350 2   9940873.626 1
  20859005.512     -847752.030 4   -660583.532 3
 91  7 23  1 58  0.0010000  0  4 03 23 16 17
  21016234.365     1399224.990 4   1090305.375 2
  22070623.924    -9713280.553 3  -7568769.583 2
  25093576.080    12814782.924 2   9985537.403 1
  20860076.668     -842152.008 4   -656219.876 3
 91  7 23  1 58 15.0010000  0  4 03 23 16 17
  21019856.760     1418251.927 4   1105131.554 2
  22064817.547    -9743806.641 3  -7592556.102 2
  25104497.814    12872124.145 2  10030218.835 1
  20861156.226     -836479.876 4   -651800.033 3
 91  7 23  1 58 30.0010000  0  4 03 23 16 17
  21023500.435     1437399.120 4   1120051.435 2
  22059024.058    -9774238.059 3  -7616268.865 2
  25115398.869    12929485.827 2  10074916.236 1
  20862245.965     -830737.206 4   -647325.220 3
 91  7 23  1 58 45.0010000  0  4 03 23 16 17
  21027165.993     1456671.712 4   1135069.033 2
  22053251.255    -9804569.964 3  -7639904.073 2
  25126320.611    12986872.733 2  10119633.269 1
  20863354.002     -824918.948 4   -642791.516 3
 91  7 23  1 59  0.0010000  0  4 03 23 16 17
  21030857.944     1476068.977 4   1150183.785 2
  22047498.835    -9834803.003 3  -7663462.243 2
  25137248.941    13044283.836 2  10164369.128 1
  20864476.426     -819026.004 4   -638199.603 3
 91  7 23  1 59 15.0010000  0  4 03 23 16 17
  21034572.964     1495585.784 4   1165391.676 2
  22041767.101    -9864942.083 3  -7686947.197 2
  25148174.278    13101713.652 2  10209119.580 1
  20865610.839     -813063.731 4   -633553.673 3
 91  7 23  1 59 30.0010000  0  4 03 23 16 17
  21038312.581     1515230.087 4   1180698.925 2
  22036050.357    -9894978.976 3  -7710352.529 2
  25159110.408    13159169.796 2  10253890.521 1
  20866757.545     -807024.039 4   -628847.414 3
 91  7 23  1 59 45.0010000  0  4 03 23 16 17
  21042074.071     1534996.097 4   1196100.999 2
  22030348.010    -9924919.495 3  -7733682.776 2
  25170052.838    13216645.794 2  10298677.007 1
  20867921.335     -800913.011 4   -624085.579 3
 91  7 23  2  0  0.0010000  0  4 03 23 16 17
  21045857.759     1554885.038 4   1211598.873 2
  22024672.632    -9954762.504 3  -7756937.036 2
  25180988.069    13274142.989 2  10343479.951 1
  20869096.825     -794729.579 4   -619267.323 3
 91  7 23  2  0 15.0010000  0  4 03 23 16 17
  21049666.923     1574899.155 4   1227194.279 2
  22019013.457    -9984505.546 3  -7780113.389 2
  25191933.788    13331663.329 2  10388300.947 1
  20870291.502     -788471.629 4   -614390.993 3
 91  7 23  2  0 30.0010000  0  3 03 23 17
  21053497.368     1595037.205 4   1242886.257 2
  22013371.357   -10014149.970 3  -7803212.914 2
  20871496.064     -782140.567 4   -609457.702 3
 91  7 23  2  0 45.0010000  0  3 03 23 17
  21057355.393     1615296.883 4   1258673.014 2
  22007747.553   -10043697.683 3  -7826237.080 2
  20872713.522     -775738.768 4   -604469.286 3
 91  7 23  2  1  0.0010000  0  3 03 23 17
  21061230.510     1635683.025 4   1274558.316 2
  22002145.029   -10073143.971 3  -7849182.192 2
  20873944.173     -769261.473 4   -599422.044 3
 91  7 23  2  1 15.0010000  0  3 03 23 17
  21065137.108     1656194.201 4   1290541.036 2
  21996562.897   -10102490.423 3  -7872049.523 2
  20875194.900     -762710.438 4   -594317.336 3
 91  7 23  2  1 30.0010000  0  3 03 23 17
  21069063.189     1676825.567 4   1306617.429 2
  21990993.948   -10131741.606 3  -7894842.623 2
  20876450.731     -756090.400 4   -589158.861 3
 91  7 23  2  1 45.0010000  0  3 03 23 17
  21073012.653     1697587.742 4   1322795.737 2
  21985449.586   -10160887.018 3  -7917553.297 2
  20877728.750     -749390.818 4   -583938.402 3
 91  7 23  2  2  0.0010000  0  3 03 23 17
  21076986.103     1718473.681 4   1339070.481 2
  21979918.722   -10189933.308 3  -7940186.722 2
  20879015.162     -742619.038 4   -578661.685 3
 91  7 23  2  2 15.0010000  0  3 03 23 17
  21080982.639     1739482.238 4   1355440.767 2
  21974411.529   -10218881.854 3  -7962743.994 2
  20880318.353     -735776.324 4   -573329.691 3
 91  7 23  2  2 30.0010000  0  3 03 23 17
  21085005.856     1760612.470 4   1371905.882 2
  21968923.235   -10247733.479 3  -7985225.744 2
  20881633.847     -728863.717 4   -567943.243 3
 91  7 23  2  2 45.0010000  0  3 03 23 17
  21089051.253     1781868.494 4   1388469.001 2
  21963450.515   -10276483.985 3  -8007628.695 2
  20882960.430     -721877.152 4   -562499.167 3
 91  7 23  2  3  0.0010000  0  3 03 23 17
  21093119.440     1803250.624 4   1405130.387 2
  21957998.195   -10305133.123 3  -8029952.668 2
  20884305.597     -714816.487 4   -556997.355 3
 91  7 23  2  3 15.0010000  0  3 03 23 17
  21097209.509     1824753.830 4   1421886.122 2
  21952563.560   -10333685.624 3  -8052201.340 2
  20885664.559     -707686.837 4   -551441.779 3
 91  7 23  2  3 30.0010000  0  3 03 23 17
  21101328.057     1846383.645 4   1438740.519 2
  21947151.104   -10362136.052 3  -8074370.476 2
  20887030.108     -700482.964 4   -545828.373 3
 91  7 23  2  3 45.0010000  0  3 03 23 17
  21105466.088     1868138.477 4   1455692.317 2
  21941756.937   -10390485.864 3  -8096461.211 2
  20888417.549     -693206.333 4   -540158.269 3
 91  7 23  2  4  0.0010000  0  3 03 23 17
  21109632.005     1890010.086 4   1472735.125 2
  21936378.361   -10418742.954 3  -8118479.687 2
  20889813.985     -685865.257 4   -534437.955 3
 91  7 23  2  4 15.0010000  0  3 03 23 17
  21113812.309     1912001.343 4   1489871.149 2
  21931020.167   -10446904.627 3  -8140423.816 2
  20891225.106     -678456.950 4   -528665.244 3
 91  7 23  2  4 30.0010000  0  3 03 23 17
  21118025.594     1934120.222 4   1507106.628 2
  21925678.167   -10474963.025 3  -8162287.463 2
  20892650.317     -670973.811 4   -522834.228 3
 91  7 23  2  4 45.0010000  0  3 03 23 17
  21122255.370     1956359.463 4   1524435.891 2
  21920360.448   -10502924.993 3  -8184075.979 2
  20894084.525     -663422.782 4   -516950.309 3
 91  7 23  2  5  0.0010000  0  3 03 23 17
  21126513.023     1978724.756 4   1541863.373 2
  21915056.524   -10530785.109 3  -8205785.113 2
  20895536.723     -655798.515 4   -511009.325 3
 91  7 23  2  5 15.0010000  0  3 03 23 17
  21130791.057     2001214.720 4   1559388.019 2
  21909773.576   -10558544.455 3  -8227415.745 2
  20897002.105     -648102.509 4   -505012.432 3
 91  7 23  2  5 30.0010000  0  3 03 23 17
  21135096.078     2023830.566 4   1577010.737 2
  21904511.620   -10586201.849 3  -8248966.921 2
  20898477.085     -640333.933 4   -498958.996 3
 91  7 23  2  5 45.0010000  0  3 03 23 17
  21139422.982     2046568.049 4   1594728.238 2
  21899267.053   -10613761.614 3  -8270442.046 2
  20899969.750     -632496.833 4   -492852.162 3
 91  7 23  2  6  0.0010000  0  3 03 23 17
  21143769.674     2069429.507 4   1612542.343 2
  21894040.773   -10641221.137 3  -8291839.039 2
  20901478.609     -624588.670 4   -486689.960 3
 91  7 23  2  6 15.0010000  0  3 03 23 17
  21148145.141     2092415.142 4   1630453.216 2
  21888834.274   -10668580.160 3  -8313157.733 2
  20902994.056     -616609.641 4   -480472.530 3
 91  7 23  2  6 30.0010000  0  3 03 23 17
  21152545.502     2115525.412 4   1648461.204 2
  21883650.861   -10695838.263 3  -8334397.779 2
  20904527.799     -608559.687 4   -474199.843 3
 91  7 23  2  6 45.0010000  0  3 03 23 17
  21156966.837     2138751.861 4   1666559.721 2
  21878483.337   -10723003.803 3  -8355565.704 2
  20906068.732     -600447.131 4   -467878.373 3
 91  7 23  2  7  0.0010000  0  3 03 23 17
  21161404.960     2162099.060 4   1684752.326 2
  21873328.107   -10750072.058 3  -8376657.808 2
  20907630.352     -592267.231 4   -461504.429 3
 91  7 23  2  7 15.0010000  0  3 03 23 17
  21165874.868     2185570.521 4   1703041.755 2
  21868196.861   -10777039.539 3  -8397671.400 2
  20909196.762     -584016.948 4   -455075.639 3
 91  7 23  2  7 30.0010000  0  3 03 23 17
  21170361.563     2209168.282 4   1721429.612 2
  21863085.099   -10803904.011 4  -8418604.731 2
  20910781.765     -575694.086 4   -448590.289 3
 91  7 23  2  7 45.0010000  0  3 03 23 17
  21174876.441     2232888.943 4   1739913.226 2
  21857991.328   -10830668.959 3  -8439460.498 2
  20912376.960     -567302.232 4   -442051.176 3
 91  7 23  2  8  0.0010000  0  3 03 23 17
  21179413.497     2256727.658 4   1758488.834 2
  21852916.142   -10857339.116 3  -8460242.405 2
  20913987.144     -558846.066 4   -435461.961 4
 91  7 23  2  8 15.0010000  0  3 03 23 17
  21183973.937     2280691.431 4   1777161.898 2
  21847859.243   -10883907.248 3  -8480944.812 2
  20915610.825     -550318.697 4   -428817.255 4
 91  7 23  2  8 30.0010000  0  3 03 23 17
  21188556.565     2304776.123 4   1795929.168 2
  21842820.633   -10910377.546 3  -8501570.984 2
  20917245.588     -541724.809 4   -422120.720 3
 91  7 23  2  8 45.0010000  0  3 03 23 17
  21193164.077     2328989.693 4   1814796.887 2
  21837804.506   -10936741.901 3  -8522114.611 2
  20918895.349     -533056.188 4   -415365.950 3
 91  7 23  2  9  0.0010000  0  3 03 23 17
  21197794.972     2353324.451 4   1833759.020 2
  21832809.661   -10963007.851 4  -8542581.551 2
  20920555.598     -524320.552 4   -408558.960 4
 91  7 23  2  9 15.0010000  0  3 03 23 17
  21202453.447     2377781.993 4   1852816.824 2
  21827830.704   -10989174.189 3  -8562970.880 2
  20922231.743     -515517.026 4   -401699.072 3
 91  7 23  2  9 30.0010000  0  3 03 23 17
  21207129.608     2402364.189 4   1871971.777 2
  21822869.738   -11015238.742 3  -8583280.884 2
  20923920.174     -506643.498 4   -394784.630 3
 91  7 23  2  9 45.0010000  0  3 03 23 17
  21211824.956     2427068.909 4   1891222.203 2
  21817927.365   -11041203.291 3  -8603512.967 2
  20925620.593     -497701.729 4   -387817.012 3
 91  7 23  2 10  0.0010000  0  3 03 23 17
  21216555.082     2451901.997 4   1910572.645 2
  21813008.969   -11067062.263 3  -8623662.786 2
  20927337.808     -488686.304 4   -380792.012 3
 91  7 23  2 10 15.0010000  0  3 03 23 17
  21221305.293     2476856.052 4   1930017.345 2
  21808107.063   -11092823.059 4  -8643736.101 2
  20929065.214     -479604.835 4   -373715.534 3
 91  7 23  2 10 30.0010000  0  3 03 23 17
  21226073.495     2501931.697 4   1949556.796 2
  21803222.843   -11118484.713 4  -8663732.154 2
  20930806.108     -470456.447 4   -366586.918 3
 91  7 23  2 10 45.0010000  0  3 03 23 17
  21230872.872     2527131.706 4   1969193.150 2
  21798357.809   -11144044.270 3  -8683648.661 2
  20932561.086     -461238.507 4   -359404.110 3
 91  7 23  2 11  0.0010000  0  3 03 23 17
  21235689.638     2552448.465 4   1988920.489 2
  21793513.463   -11169509.487 3  -8703491.665 2
  20934325.966     -451958.951 4   -352173.294 3
 91  7 23  2 11 15.0010000  0  3 03 23 17
  21240528.287     2577890.667 4   2008745.566 2
  21788685.904   -11194871.476 4  -8723254.229 2
  20936104.937     -442608.968 4   -344887.596 3
 91  7 23  2 11 30.0010000  0  3 03 23 17
  21245399.018     2603462.983 4   2028672.038 2
  21783880.236   -11220125.622 4  -8742932.755 2
  20937899.491     -433184.127 4   -337543.567 3
 91  7 23  2 11 45.0010000  0  3 03 23 17
  21250284.730     2629160.260 4   2048695.873 2
  21779093.746   -11245276.954 3  -8762531.164 2
  20939707.543     -423689.292 4   -330144.993 3
 91  7 23  2 12  0.0010000  0  3 03 23 17
  21255201.032     2654982.439 4   2068817.031 2
  21774326.146   -11270325.483 4  -8782049.473 2
  20941523.989     -414124.514 4   -322691.917 4
 91  7 23  2 12 15.0010000  0  3 03 23 17
  21260132.315     2680928.486 4   2089034.723 2
  21769580.734   -11295272.188 4  -8801488.439 2
  20943357.212     -404491.482 4   -315185.662 3
 91  7 23  2 12 30.0010000  0  3 03 23 17
  21265097.783     2706999.832 4   2109350.044 2
  21764856.305   -11320115.587 4  -8820846.902 2
  20945205.435     -394788.436 4   -307624.844 3
 91  7 23  2 12 45.0010000  0  3 03 23 17
  21270083.625     2733198.243 4   2129764.377 2
  21760144.467   -11344853.532 4  -8840123.192 2
  20947063.551     -385013.829 4   -300008.265 3
 91  7 23  2 13  0.0010000  0  3 03 23 17
  21275095.257     2759522.831 4   2150277.023 2
  21755459.608   -11369487.002 4  -8859318.078 2
  20948936.649     -375168.657 4   -292336.704 3
 91  7 23  2 13 15.0010000  0  3 03 23 17
  21280126.077     2785974.742 4   2170888.895 2
  21750790.941   -11394014.977 4  -8878430.762 2
  20950826.543     -365251.749 4   -284609.248 3
 91  7 23  2 13 30.0010000  0  3 03 23 17
  21285186.875     2812550.465 4   2191597.239 2
  21746138.460   -11418440.930 4  -8897463.943 2
  20952725.432     -355266.613 4   -276828.620 3
 91  7 23  2 13 45.0010000  0  3 03 23 17
  21290266.555     2839249.794 4   2212401.897 2
  21741515.060   -11442764.663 4  -8916417.468 2
  20954638.708     -345213.602 4   -268995.104 3
 91  7 23  2 14  0.0010000  0  3 03 23 17
  21295372.323     2866077.600 4   2233306.677 2
  21736906.056   -11466981.139 4  -8935287.428 2
  20956567.272     -335087.843 4   -261104.902 3
 91  7 23  2 14 15.0010000  0  3 03 23 17
  21300498.770     2893028.655 4   2254307.470 2
  21732317.731   -11491095.878 4  -8954078.103 2
  20958507.526     -324895.064 4   -253162.487 3
 91  7 23  2 14 30.0010000  0  3 03 23 17
  21305648.006     2920102.928 4   2275404.301 2
  21727748.592   -11515108.922 4  -8972789.537 2
  20960457.379     -314634.770 4   -245167.453 3
 91  7 23  2 14 45.0010000  0  3 03 23 17
  21310825.119     2947307.010 4   2296602.266 2
  21723200.140   -11539013.266 4  -8991416.274 2
  20962425.214     -304300.518 4   -237114.788 3
 91  7 23  2 15  0.0010000  0  3 03 23 17
  21316025.921     2974633.079 4   2317895.296 2
  21718670.579   -11562816.722 4  -9009964.396 2
  20964406.241     -293900.414 4   -229010.816 3
 91  7 23  2 15 15.0010000  0  3 03 23 17
  21321250.106     3002082.787 4   2339284.655 2
  21714158.703   -11586517.547 4  -9028432.546 2
  20966395.967     -283432.514 4   -220854.011 4
 91  7 23  2 15 30.0010000  0  3 03 23 17
  21326497.674     3029663.206 4   2360775.885 2
  21709669.905   -11610108.731 4  -9046815.264 2
  20968403.676     -272890.258 4   -212639.273 3
 91  7 23  2 15 45.0010000  0  3 03 23 17
  21331769.525     3057365.850 4   2382362.347 2
  21705200.302   -11633598.658 4  -9065119.068 3
  20970416.785     -262282.003 4   -204373.098 3
 91  7 23  2 16  0.0010000  0  3 03 23 17
  21337065.055     3085194.428 4   2404046.946 2
  21700752.285   -11656983.597 4  -9083341.078 2
  20972449.675     -251603.920 4   -196052.511 4
 91  7 23  2 16 15.0010000  0  3 03 23 17
  21342386.377     3113148.859 4   2425829.591 2
  21696315.951   -11680263.376 4  -9101481.137 3
  20974496.062     -240856.220 4   -187677.681 4
 91  7 23  2 16 30.0010000  0  3 03 23 17
  21347727.479     3141227.188 4   2447708.787 2
  21691906.909   -11703439.805 4  -9119540.665 2
  20976558.930     -230040.862 4   -179250.131 3
 91  7 23  2 16 45.0010000  0  3 03 23 17
  21353092.862     3169431.329 3   2469686.033 2
  21687518.240   -11726511.105 4  -9137518.271 2
  20978626.301     -219156.192 4   -170768.568 3
 91  7 23  2 17  0.0010000  0  3 03 23 17
  21358485.529     3197761.285 4   2491761.299 2
  21683149.369   -11749477.259 4  -9155413.949 2
  20980711.655     -208202.172 4   -162232.966 3
 91  7 23  2 17 15.0020000  0  3 03 23 17
  21363900.082     3226221.243 4   2513937.882 2
  21678796.677   -11772337.218 4  -9173226.879 2
  20982808.101     -197175.787 4   -153640.974 3
 91  7 23  2 17 30.0020000  0  4 03 23 21 17
  21369340.414     3254812.012 3   2536216.386 2
  21674470.079   -11795083.118 4  -9190950.918 2
  25536844.412           0.683 2         0.215 1
  20984923.442     -186073.831 4   -144990.107 3
 91  7 23  2 17 45.0020000  0  4 03 23 21 17
  21374812.828     3283532.105 4   2558595.650 2
  21670160.556   -11817720.096 4  -9208590.090 2
  25527974.449      -46713.487 2    -36400.224 1
  20987049.568     -174899.174 4   -136282.581 3
 91  7 23  2 18  0.0020000  0  4 03 23 21 17
  21380297.825     3312374.250 3   2581070.040 2
  21665873.229   -11840255.368 4  -9226150.009 2
  25519085.003      -93405.476 2    -72783.408 1
  20989188.590     -163658.965 4   -127523.975 3
 91  7 23  2 18 15.0020000  0  4 03 23 21 17
  21385811.011     3341345.609 3   2603645.105 2
  21661605.080   -11862681.544 4  -9243624.928 3
  25510208.452     -140067.984 2   -109143.621 1
  20991338.997     -152346.066 4   -118708.729 4
 91  7 23  2 18 30.0020000  0  4 03 23 21 17
  21391348.777     3370443.826 3   2626319.014 2
  21657358.526   -11885000.831 4  -9261016.548 2
  25501333.690     -186703.227 2   -145482.646 1
  20993507.396     -140962.992 4   -109838.805 3
 91  7 23  2 18 45.0020000  0  4 03 23 21 17
  21396909.629     3399668.223 4   2649091.259 2
  21653131.150   -11907213.719 4  -9278325.265 2
  25492466.135     -233311.708 2   -181800.768 1
  20995686.885     -129510.320 4   -100914.639 3
 91  7 23  2 19  0.0020000  0  4 03 23 21 17
  21402492.660     3429017.219 4   2671960.581 2
  21648924.461   -11929322.013 4  -9295552.482 3
  25483596.774     -279894.991 2   -218099.181 1
  20997878.371     -117989.934 4    -91937.716 3
 91  7 23  2 19 15.0020000  0  4 03 23 21 17
  21408103.874     3458491.197 4   2694927.299 2
  21644738.162   -11951324.991 4  -9312697.638 2
  25474742.106     -326452.098 2   -254377.655 1
  21000082.743     -106401.152 4    -82907.491 3
 91  7 23  2 19 30.0020000  0  4 03 23 21 17
  21413736.979     3488098.083 4   2717997.580 2
  21640571.042   -11973214.630 4  -9329754.474 2
  25465882.037     -372975.290 2   -290629.466 1
  21002303.606      -94736.153 4    -73817.884 3
 91  7 23  2 19 45.0020000  0  4 03 23 21 17
  21419393.764     3517832.582 4   2741167.315 2
  21636425.812   -11994996.512 4  -9346727.343 2
  25457042.952     -419469.741 2   -326858.789 1
  21004535.864      -83000.446 4    -64673.168 3
 91  7 23  2 20  0.0020000  0  4 03 23 21 17
  21425081.426     3547698.043 4   2764439.068 1
  21632301.872   -12016667.025 4  -9363613.442 3
  25448198.780     -465931.868 2   -363062.865 1
  21006783.103      -71190.579 4    -55470.669 3
 91  7 23  2 20 15.0020000  0  4 03 23 21 17
  21430787.970     3577693.891 3   2787812.444 2
  21628198.907   -12038226.483 4  -9380412.988 3
  25439359.399     -512361.796 2   -399241.850 1
  21009045.637      -59307.145 4    -46210.850 3
 91  7 23  2 20 30.0020000  0  4 03 23 21 17
  21436518.203     3607818.973 4   2811286.518 2
  21624120.835   -12059675.928 4  -9397126.819 2
  25430526.011     -558760.595 2   -435396.962 1
  21011319.567      -47351.377 4    -36894.662 3
 91  7 23  2 20 45.0020000  0  4 03 23 21 17
  21442273.023     3638072.357 3   2834860.570 2
  21620058.049   -12081016.455 4  -9413755.774 2
  25421696.524     -605129.133 2   -471528.192 1
  21013609.681      -35324.266 4    -27522.884 3
 91  7 23  2 21  0.0020000  0  4 03 23 21 17
  21448056.017     3668460.860 3   2858539.910 2
  21616014.746   -12102240.911 4  -9430294.280 2
  25412896.414     -651460.412 2   -507630.344 1
  21015913.886      -23219.009 4    -18090.210 4
 91  7 23  2 21 15.0020000  0  4 03 23 21 17
  21453865.098     3698977.624 3   2882319.180 2
  21612003.822   -12123356.144 4  -9446747.687 2
  25404081.323     -697761.093 2   -543708.644 1
  21018229.181      -11042.474 4     -8602.005 3
 91  7 23  2 21 30.0020000  0  4 03 23 21 17
  21459696.961     3729623.613 4   2906199.156 2
  21608001.894   -12144361.401 4  -9463115.391 2
  25395286.605     -744030.196 2   -579762.284 1
  21020561.865        1206.260 4       942.472 3
 91  7 23  2 21 45.0020000  0  4 03 23 21 17
  21465553.106     3760395.512 4   2930177.234 2
  21604029.945   -12165259.581 4  -9479399.658 2
  25386477.805     -790270.431 2   -615793.474 1
  21022904.147       13524.108 4     10540.803 3
 91  7 23  2 22  0.0020000  0  4 03 23 21 17
  21471432.939     3791294.790 3   2954254.593 2
  21600069.086   -12186049.308 4  -9495599.415 3
  25377682.197     -836480.438 2   -651801.130 1
  21025261.418       25912.202 4     20193.866 4
 91  7 23  2 22 15.0020000  0  4 03 23 21 17
  21477340.047     3822323.552 4   2978432.833 2
  21596135.205   -12206728.138 4  -9511712.770 3
  25368897.679     -882657.609 2   -687783.207 1
  21027633.670       38372.812 4     29903.437 3
 91  7 23  2 22 30.0020000  0  4 03 23 21 17
  21483265.748     3853481.437 4   3002711.681 2
  21592223.817   -12227296.667 4  -9527740.166 2
  25360116.154     -928802.488 2   -723740.016 1
  21030017.920       50905.339 4     39669.046 3
 91  7 23  2 22 45.0020000  0  4 03 23 21 17
  21489219.021     3884770.693 3   3027092.914 2
  21588330.412   -12247752.532 4  -9543679.778 3
  25351335.536     -974912.521 2   -759669.747 1
  21032417.761       63512.025 4     49492.447 3
 91  7 23  2 23  0.0020000  0  4 03 23 21 17
  21495198.085     3916190.195 4   3051575.628 2
  21584457.389   -12268096.597 4  -9559532.266 2
  25342567.805    -1020988.709 2   -795573.257 1
  21034831.091       76191.907 4     59372.874 4
 91  7 23  2 23 15.0020000  0  4 03 23 21 17
  21501205.026     3947739.467 4   3076159.465 2
  21580608.054   -12288329.241 4  -9575297.942 2
  25333815.962    -1067031.237 2   -831450.769 1
  21037254.612       88944.525 4     69309.985 4
 91  7 23  2 23 30.0020000  0  4 03 23 21 17
  21507232.052     3979420.713 4   3100846.113 2
  21576778.804   -12308448.133 4  -9590974.977 3
  25325060.228    -1113037.531 2   -867299.625 1
  21039697.023      101771.950 4     79305.383 4
 91  7 23  2 23 45.0020000  0  4 03 23 21 17
  21513284.861     4011229.677 4   3125632.310 2
  21572970.242   -12328457.738 4  -9606566.848 2
  25316308.080    -1159011.755 2   -903123.590 1
  21042152.618      114669.947 4     89355.778 3
 91  7 23  2 24  0.0020000  0  4 03 23 21 17
  21519364.953     4043169.979 4   3150520.840 1
  21569185.063   -12348354.170 4  -9622070.542 2
  25307564.038    -1204950.053 2   -938919.494 1
  21044619.014      127642.408 4     99464.190 4
 91  7 23  2 24 15.0020000  0  4 03 23 21 17
  21525467.826     4075240.694 4   3175510.989 2
  21565417.875   -12368138.217 4  -9637486.663 3
  25298824.192    -1250853.387 2   -974688.183 1
  21047103.690      140688.018 4    109629.599 4
 91  7 23  2 24 30.0020000  0  4 03 23 21 17
  21531591.387     4107433.263 3   3200596.083 2
  21561674.062   -12387818.493 4  -9652821.924 2
  25290092.732    -1296730.126 2  -1010436.519 1
  21049599.464      153798.357 4    119845.451 4
 91  7 23  2 24 45.0020000  0  4 03 23 21 17
  21537747.632     4139761.863 4   3225787.176 2
  21557951.537   -12407380.695 4  -9668065.176 2
  25281372.073    -1342565.796 2  -1046152.455 1
  21052103.334      166987.424 4    130122.652 3
 91  7 23  2 25  0.0020000  0  4 03 23 21 17
  21543920.952     4172217.692 3   3251077.422 2
  21554249.404   -12426833.328 4  -9683223.046 2
  25272660.104    -1388368.845 2  -1081842.981 1
  21054630.580      180246.716 4    140454.568 3
 91  7 23  2 25 15.0020000  0  4 03 23 21 17
  21550123.361     4204800.586 4   3276466.679 2
  21550570.348   -12446176.474 4  -9698295.599 2
  25263941.539    -1434139.273 2  -1117508.097 1
  21057166.524      193575.895 4    150840.939 3
 91  7 23  2 25 30.0020000  0  4 03 23 21 17
  21556345.856     4237515.917 4   3301959.120 2
  21546910.183   -12465404.952 4  -9713278.806 2
  25255245.755    -1479871.692 2  -1153143.581 1
  21059719.264      206980.145 4    161285.810 3
 91  7 23  2 25 45.0020000  0  4 03 23 21 17
  21562596.829     4270364.946 3   3327555.745 2
  21543273.104   -12484517.183 4  -9728171.430 2
  25246544.884    -1525564.601 2  -1188748.231 1
  21062280.991      220461.081 4    171790.442 3
 91  7 23  2 26  0.0020000  0  4 03 23 21 17
  21568871.177     4303344.706 3   3353254.234 2
  21539660.001   -12503516.183 4  -9742975.822 3
  25237865.888    -1571220.662 2  -1224324.150 1
  21064863.099      234015.571 4    182352.370 3
 91  7 23  2 26 15.0020000  0  4 03 23 21 17
  21575174.614     4336453.799 3   3379053.527 2
  21536065.195   -12522403.181 4  -9757692.945 3
  25229177.607    -1616841.149 2  -1259872.475 1
  21067456.001      247642.045 4    192970.401 3
 91  7 23  2 26 30.0020000  0  4 03 23 21 17
  21581498.739     4369690.835 3   3404952.491 2
  21532492.865   -12541179.478 4  -9772323.796 2
  25220508.208    -1662426.959 2  -1295393.735 1
  21070062.104      261339.606 4    203643.829 3
 91  7 23  2 26 45.0020000  0  4 03 23 21 17
  21587844.450     4403062.859 3   3430956.646 2
  21528938.526   -12559838.038 4  -9786862.919 2
  25211831.908    -1707971.135 2  -1330882.476 1
  21072684.383      275115.123 4    214377.997 4
 91  7 23  2 27  0.0020000  0  4 03 23 21 17
  21594219.834     4436565.980 3   3457062.962 2
  21525411.767   -12578382.635 4  -9801313.220 3
  25203187.096    -1753477.355 2  -1366341.735 1
  21075319.863      288964.431 4    225169.664 4
 91  7 23  2 27 15.0020000  0  4 03 23 21 17
  21600622.503     4470194.147 3   3483266.691 2
  21521903.296   -12596818.993 4  -9815679.192 3
  25194527.591    -1798951.326 2  -1401775.795 1
  21077968.527      302881.734 4    236014.303 4
 91  7 23  2 27 30.0020000  0  4 03 23 21 17
  21607047.952     4503951.694 3   3509571.244 2
  21518414.911   -12615143.029 4  -9829957.648 3
  25185875.581    -1844388.698 2  -1437181.379 1
  21080630.680      316871.245 4    246915.221 4
 91  7 23  2 27 45.0020000  0  4 03 23 21 17
  21613495.886     4537841.907 3   3535979.195 2
  21514949.612   -12633350.908 4  -9844145.559 2
  25177238.858    -1889785.653 2  -1472555.528 1
  21083306.932      330936.470 4    257875.129 3
 91  7 23  2 28  0.0020000  0  4 03 23 21 17
  21619969.009     4571861.500 4   3562487.932 2
  21511505.898   -12651446.155 4  -9858245.752 2
  25168612.631    -1935145.597 2  -1507900.722 1
  21085993.673      345073.783 4    268891.222 3
 91  7 23  2 28 15.0020000  0  4 03 23 21 17
  21626469.111     4606005.854 4   3589093.895 2
  21508085.865   -12669433.254 4  -9872261.656 2
  25159990.600    -1980472.807 2  -1543220.509 1
  21088700.193      359278.850 4    279960.105 4
 91  7 23  2 28 30.0020000  0  4 03 23 21 17
  21632990.196     4640277.567 3   3615799.114 1
  21504684.713   -12687309.504 4  -9886191.188 2
  25151370.673    -2025764.556 2  -1578512.654 1
  21091414.522      373554.187 4    291083.743 3
 91  7 23  2 28 45.0020000  0  4 03 23 21 17
  21639534.665     4674677.872 3   3642604.520 2
  21501300.662   -12705073.482 4  -9900033.232 2
  25142747.438    -2071019.151 2  -1613776.186 1
  21094147.426      387901.225 4    302263.242 4
 91  7 23  2 29  0.0020000  0  4 03 23 21 17
  21646104.017     4709205.632 3   3669509.244 2
  21497942.088   -12722726.412 4  -9913788.740 3
  25134142.491    -2116237.736 2  -1649011.299 1
  21096891.430      402318.510 4    313497.485 4
 91  7 23  2 29 15.0020000  0  4 03 23 21 17
  21652702.145     4743862.724 3   3696514.752 2
  21494605.397   -12740266.112 4  -9927456.017 2
  25125555.536    -2161418.104 2  -1684216.639 1
  21099647.116      416808.161 4    324788.114 3
 91  7 23  2 29 30.0020000  0  4 03 23 21 17
  21659320.367     4778646.125 3   3723618.676 2
  21491291.784   -12757695.551 4  -9941037.380 3
  25116960.492    -2206563.071 2  -1719394.374 1
  21102417.503      431367.158 4    336132.782 3
 91  7 23  2 29 45.0020000  0  4 03 23 21 17
  21665964.363     4813556.822 4   3750821.776 2
  21487995.272   -12775013.850 4  -9954532.131 3
  25108382.532    -2251671.515 2  -1754543.699 1
  21105199.574      445996.515 4    347532.283 3
 91  7 23  2 30  0.0020000  0  4 03 23 21 17
  21672631.149     4848600.108 3   3778128.211 2
  21484721.236   -12792215.529 4  -9967936.019 3
  25099802.164    -2296737.924 2  -1789660.220 1
  21108001.137      460701.385 4    358990.619 3
 91  7 23  2 30 15.0020000  0  4 03 23 21 17
  21679324.616     4883771.877 3   3805534.765 2
  21481465.488   -12809304.707 4  -9981252.225 2
  25091234.404    -2341766.229 2  -1824746.988 1
  21110812.288      475477.821 4    370504.714 3
 91  7 23  2 30 30.0020000  0  4 03 23 21 17
  21686045.367     4919075.271 3   3833043.888 2
  21478240.025   -12826277.885 4  -9994478.074 2
  25082669.026    -2386753.039 2  -1859801.545 1
  21113636.929      490328.874 4    382076.961 3
 91  7 23  2 30 45.0020000  0  4 03 23 21 17
  21692788.297     4954509.682 3   3860655.091 2
  21475028.347   -12843135.716 4 -10007614.033 3
  25074121.045    -2431698.714 2  -1894823.969 1
  21116476.568      505254.034 4    393706.951 4
 91  7 23  2 31  0.0020000  0  4 03 23 21 17
  21699553.711     4990071.591 3   3888365.646 2
  21471841.850   -12859881.756 4 -10020662.875 3
  25065570.063    -2476606.668 2  -1929817.012 1
  21119330.595      520249.960 4    405392.084 3
 91  7 23  2 31 15.0020000  0  4 03 23 21 17
  21706344.612     5025757.361 3   3916172.712 2
  21468676.642   -12876519.255 4 -10033627.141 3
  25057029.883    -2521480.202 2  -1964783.353 1
  21122196.008      535313.109 4    417129.601 4
 91  7 23  2 31 30.0020000  0  4 03 23 21 17
  21713159.192     5061571.282 4   3944079.636 2
  21465531.520   -12893044.101 4 -10046503.620 3
  25048500.784    -2566314.955 2  -1999719.364 1
  21125078.513      550447.441 4    428922.577 3
 91  7 23  2 31 45.0020000  0  4 03 23 21 17
  21719998.657     5097516.221 4   3972088.659 1
  21462408.280   -12909453.031 4 -10059289.784 3
  25039970.786    -2611107.547 2  -2034622.586 1
  21127970.608      565656.305 4    440773.639 3
 91  7 23  2 32  0.0020000  0  4 03 23 21 17
  21726864.506     5133594.618 3   4000201.671 2
  21459308.432   -12925743.896 4 -10071983.955 2
  25031456.685    -2655855.526 2  -2069491.023 1
  21130881.897      580941.934 4    452684.522 4
 91  7 23  2 32 15.0020000  0  4 03 23 21 17
  21733754.332     5169802.109 3   4028415.281 1
  21456232.560   -12941920.587 4 -10084589.146 3
  25022953.072    -2700562.796 2  -2104327.929 1
  21133800.673      596299.794 4    464651.670 3
 91  7 23  2 32 30.0020000  0  4 03 23 21 17
  21740667.846     5206139.800 3   4056730.342 2
  21453172.874   -12957982.078 4 -10097104.572 3
  25014458.751    -2745228.074 2  -2139132.204 1
  21136741.340      611731.043 4    476676.014 4
 91  7 23  2 32 45.0020000  0  4 03 23 21 17
  21747611.646     5242606.922 3   4085146.271 2
  21450138.979   -12973928.806 4 -10109530.572 3
  25005958.436    -2789851.743 2  -2173903.684 1
  21139690.095      627235.484 4    488757.396 3
 91  7 23  2 33  0.0020000  0  4 03 23 21 17
  21754572.520     5279200.663 3   4113660.851 1
  21447128.459   -12989763.702 4 -10121869.430 2
  24997477.010    -2834436.650 2  -2208645.208 1
  21142655.044      642809.909 4    500893.311 3
 91  7 23  2 33 15.0020000  0  4 03 23 21 17
  21761559.186     5315925.193 3   4142277.349 1
  21444135.930   -13005482.493 4 -10134117.826 3
  24989005.471    -2878978.338 2  -2243352.799 1
  21145632.880      658458.558 4    513087.058 4
 91  7 23  2 33 30.0020000  0  4 03 23 21 17
  21768570.736     5352781.285 3   4170996.343 1
  21441169.786   -13021084.241 4 -10146275.010 3
  24980537.534    -2923475.895 2  -2278026.057 1
  21148622.111      674182.360 4    525339.367 4
 91  7 23  2 33 45.0020000  0  4 03 23 21 17
  21775613.155     5389771.527 3   4199819.886 2
  21438222.226   -13036566.570 4 -10158339.155 2
  24972081.586    -2967926.634 2  -2312662.892 1
  21151632.030      689983.687 4    537652.088 3
 91  7 23  2 34  0.0020000  0  4 03 23 21 17
  21782674.168     5426886.586 3   4228740.691 1
  21435296.252   -13051938.466 4 -10170317.243 3
  24963616.346    -3012339.397 2  -2347270.132 1
  21154652.139      705853.357 4    550018.066 3
 91  7 23  2 34 15.0020000  0  4 03 23 21 17
  21789764.863     5464135.106 3   4257765.504 1
  21432391.567   -13067191.022 4 -10182202.339 2
  24955181.687    -3056705.291 2  -2381840.861 1
  21157684.838      721800.433 4    562444.356 4
 91  7 23  2 34 30.0020000  0  4 03 23 21 17
  21796876.237     5501513.398 3   4286891.420 2
  21429512.656   -13082328.099 4 -10193997.448 3
  24946744.027    -3101027.936 2  -2416377.901 1
  21160733.426      737820.941 4    574927.868 4
 91  7 23  2 34 45.0020000  0  4 03 23 21 17
  21804016.098     5539026.200 3   4316122.139 2
  21426655.933   -13097344.579 4 -10205698.588 3
  24938320.764    -3145302.203 2  -2450877.230 1
  21163798.208      753919.743 4    587472.391 3
 91  7 23  2 35  0.0020000  0  4 03 23 21 17
  21811178.435     5576667.539 3   4345453.039 2
  21423818.100   -13112246.569 4 -10217310.509 3
  24929902.290    -3189533.821 2  -2485343.257 1
  21166873.774      770090.805 4    600073.215 4
 91  7 23  2 35 15.0020000  0  4 03 23 21 17
  21818366.258     5614441.012 3   4374886.896 1
  21421006.949   -13127030.262 4 -10228830.260 3
  24921499.103    -3233718.919 2  -2519773.134 1
  21169966.441      786337.940 4    612733.323 3
 91  7 23  2 35 30.0020000  0  4 03 23 21 17
  21825578.669     5652343.225 3   4404421.064 2
  21418216.179   -13141698.936 4 -10240260.377 3
  24913092.626    -3277860.800 2  -2554169.242 1
  21173075.887      802657.688 4    625450.009 3
 91  7 23  2 35 45.0020000  0  4 03 23 21 17
  21832813.555     5690374.034 3   4434055.433 1
  21415446.995   -13156252.557 4 -10251600.836 3
  24904702.334    -3321959.283 2  -2588531.628 1
  21176191.929      819050.164 4    638223.368 3
 91  7 23  2 36  0.0020000  0  4 03 23 21 17
  21840076.327     5728536.198 3   4463792.183 1
  21412700.000   -13170688.498 4 -10262849.607 2
  24896326.736    -3366011.464 2  -2622857.850 1
  21179324.461      835517.835 4    651055.317 3
 91  7 23  2 36 15.0020000  0  4 03 23 21 17
  21847363.381     5766825.299 3   4493627.818 1
  21409974.284   -13185010.832 4 -10274009.854 3
  24887948.729    -3410021.349 2  -2657151.192 1
  21182472.279      852056.696 4    663942.743 4
 91  7 23  2 36 30.0020000  0  4 03 23 21 17
  21854672.928     5805241.600 3   4523562.575 1
  21407269.553   -13199219.405 4 -10285081.451 3
  24879580.024    -3453988.599 2  -2691411.260 1
  21185632.392      868666.812 4    676885.690 3
 91  7 23  2 36 45.0020000  0  4 03 23 21 17
  21862010.344     5843782.845 3   4553594.691 2
  21404586.416   -13213316.234 4 -10296065.980 3
  24871220.610    -3497915.168 2  -2725639.645 1
  21188806.595      885346.103 4    689882.539 3
 91  7 23  2 37  0.0020000  0  4 03 23 21 17
  21869366.954     5882454.794 3   4583728.652 1
  21401926.654   -13227295.448 4 -10306958.854 3
  24862873.491    -3541794.997 2  -2759831.611 1
  21191994.287      902100.343 4    702937.795 4
 91  7 23  2 37 15.0020000  0  4 03 23 21 17
  21876751.441     5921257.220 3   4613964.285 2
  21399288.783   -13241157.293 4 -10317760.273 3
  24854531.763    -3585628.253 2  -2793987.299 1
  21195198.470      918929.334 4    716051.302 4
 91  7 23  2 37 30.0020000  0  4 03 23 21 17
  21884161.109     5960185.413 3   4644297.923 2
  21396673.693   -13254906.497 4 -10328473.925 3
  24846204.729    -3629419.360 2  -2828110.103 1
  21198411.945      935828.313 4    729219.336 4
 91  7 23  2 37 45.0020000  0  4 03 23 21 17
  21891591.464     5999243.539 3   4674732.810 2
  21394079.291   -13268538.499 4 -10339096.253 3
  24837873.497    -3673163.773 2  -2862196.548 1
  21201644.903      952801.369 4    742445.088 4
 91  7 23  2 38  0.0020000  0  4 03 23 21 17
  21899048.501     6038426.100 3   4705264.652 1
  21391505.271   -13282058.917 4 -10349631.625 3
  24829544.063    -3716866.862 2  -2896250.817 1
  21204887.163      969843.509 4    755724.689 4
 91  7 23  2 38 15.0020000  0  4 03 23 21 17
  21906531.922     6077736.348 3   4735895.995 1
  21388956.736   -13295464.034 4 -10360077.151 3
  24821241.616    -3760524.955 2  -2930269.957 1
  21208142.911      986958.097 4    769060.727 3
 91  7 23  2 38 30.0020000  0  4 03 23 21 17
  21914034.529     6117174.234 3   4766626.794 1
  21386426.489   -13308754.144 4 -10370433.076 3
  24812944.553    -3804138.128 2  -2964254.281 1
  21211413.343     1004144.983 4    782453.101 4
 91  7 23  2 38 45.0020000  0  4 03 23 21 17
  21921564.115     6156744.234 3   4797460.549 1
  21383919.617   -13321924.485 4 -10380695.665 3
  24804659.189    -3847701.448 2  -2998199.582 1
  21214699.673     1021408.678 4    795905.335 3
 91  7 23  2 39  0.0020000  0  4 03 23 21 17
  21929120.984     6196443.017 3   4828394.627 2
  21381436.137   -13334978.241 4 -10390867.405 3
  24796369.332    -3891217.922 2  -3032108.399 1
  21217997.084     1038745.993 4    809414.938 3
 91  7 23  2 39 15.0020000  0  4 03 23 21 17
  21936698.837     6236267.566 3   4859426.730 2
  21378975.142   -13347918.404 4 -10400950.634 2
  24788099.857    -3934690.390 2  -3065982.917 1
  21221308.594     1056153.971 4    822979.590 3
 91  7 23  2 39 30.0020000  0  4 03 23 21 17
  21944301.574     6276220.563 3   4890558.887 1
  21376533.935   -13360742.191 4 -10410943.177 3
  24779851.663    -3978116.009 2  -3099820.993 1
  21224633.288     1073635.233 4    836601.347 3
 91  7 23  2 39 45.0020000  0  4 03 23 21 17
  21951924.100     6316300.319 3   4921789.860 1
  21374110.710   -13373451.104 4 -10420846.211 3
  24771573.192    -4021496.112 2  -3133623.582 1
  21227980.475     1091188.440 4    850279.156 3
 91  7 23  2 40  0.0020000  0  4 03 23 21 17
  21959581.700     6356512.610 3   4953124.069 1
  21371720.763   -13386039.406 4 -10430655.266 3
  24763338.496    -4064824.689 2  -3167385.989 1
  21231333.055     1108819.214 4    864017.424 3
 91  7 23  2 40 15.0020000  0  4 03 23 21 17
  21967253.383     6396849.342 3   4984555.279 1
  21369342.211   -13398515.067 4 -10440376.550 3
  24755107.097    -4108109.571 2  -3201114.377 1
  21234699.725     1126519.504 4    877809.860 3
 91  7 23  2 40 30.0020000  0  4 03 23 21 17
  21974952.358     6437297.598 3   5016073.364 2
  21366989.145   -13410890.746 4 -10450019.907 3
  24746867.000    -4151363.304 2  -3234818.542 1
  21238079.283     1144276.725 4    891646.647 3
 91  7 23  2 40 45.0020000  0  4 03 23 21 17
  21982671.410     6477863.585 3   5047683.211 2
  21364654.359   -13423160.405 4 -10459580.664 3
  24738648.793    -4194579.733 2  -3268493.528 1
  21241469.633     1162096.846 4    905532.457 3
 91  7 23  2 41  0.0020000  0  4 03 23 21 17
  21990413.853     6518554.591 3   5079390.461 2
  21362337.258   -13435316.353 4 -10469052.816 3
  24730435.979    -4237750.930 2  -3302133.330 1
  21244876.474     1179987.449 4    919473.185 3
 91  7 23  2 41 15.0020000  0  4 03 23 21 17
  21998182.978     6559378.220 3   5111201.071 1
  21360056.139   -13447351.216 4 -10478430.623 2
  24722229.753    -4280869.314 2  -3335731.953 1
  21248295.914     1197956.020 4    933474.658 3
 91  7 23  2 41 30.0020000  0  4 03 23 21 17
  22005974.579     6600332.269 3   5143113.292 2
  21357782.219   -13459266.804 4 -10487715.474 3
  24714037.931    -4323936.627 2  -3369290.803 1
  21251730.335     1216000.641 4    947535.388 3
 91  7 23  2 41 45.0020000  0  4 03 23 21 17
  22013794.065     6641423.921 3   5175132.736 2
  21355542.169   -13471055.836 4 -10496901.722 3
  24705854.791    -4366945.541 2  -3402804.127 1
  21255180.043     1234128.570 4    961661.043 3
 91  7 23  2 42  0.0020000  0  4 03 23 21 17
  22021643.234     6682650.527 3   5207257.336 2
  21353320.704   -13482720.875 4 -10505991.348 3
  24697675.551    -4409898.540 2  -3436273.928 1
  21258641.747     1252337.111 4    975849.513 3
 91  7 23  2 42 15.0020000  0  4 03 23 21 17
  22029509.487     6724003.137 3   5239480.117 2
  21351123.826   -13494270.824 4 -10514991.295 3
  24689515.507    -4452804.223 2  -3469706.817 1
  21262122.638     1270617.460 4    990093.935 3
 91  7 23  2 42 30.0020000  0  4 03 23 21 17
  22037403.023     6765482.771 3   5271801.888 2
  21348944.931   -13505704.522 4 -10523900.649 3
  24681355.453    -4495661.337 2  -3503101.881 1
  21265615.220     1288970.544 4   1004395.041 3
 91  7 23  2 42 45.0020000  0  4 03 23 21 17
  22045317.840     6807085.950 3   5304219.934 2
  21346792.726   -13517025.357 4 -10532722.071 3
  24673212.187    -4538473.049 2  -3536461.535 1
  21269122.191     1307393.275 4   1018750.399 3
 91  7 23  2 43  0.0020000  0  4 03 23 21 17
  22053256.947     6848817.216 3   5336737.769 2
  21344656.400   -13528228.629 4 -10541451.882 3
  24665063.834    -4581234.568 2  -3569782.094 1
  21272642.659     1325890.102 4   1033163.507 3
 91  7 23  2 43 15.0020000  0  4 03 23 21 17
  22061226.627     6890672.322 3   5369352.099 1
  21342552.463   -13539318.475 4 -10550093.294 3
  24656935.557    -4623949.862 2  -3603066.652 1
  21276173.309     1344456.975 4   1047631.182 3
 91  7 23  2 43 30.0020000  0  4 03 23 21 17
  22069217.300     6932654.613 3   5402065.549 1
  21340462.302   -13550291.535 4 -10558643.716 3
  24648825.569    -4666615.253 2  -3636312.334 1
  21279719.254     1363097.280 4   1062156.096 3
 91  7 23  2 43 45.0020000  0  4 03 23 21 17
  22077231.348     6974772.664 3   5434884.773 1
  21338397.932   -13561139.030 4 -10567096.294 3
  24640709.289    -4709221.869 2  -3669512.181 1
  21283282.292     1381819.978 4   1076745.203 3
 91  7 23  2 44  0.0020000  0  4 03 23 21 17
  22085272.382     7017024.722 3   5467808.455 1
  21336356.344   -13571862.512 4 -10575452.239 3
  24632616.393    -4751771.196 2  -3702667.433 1
  21286861.515     1400623.186 4   1091397.047 3
 91  7 23  2 44 15.0020000  0  4 03 23 21 17
  22093336.197     7059402.235 3   5500829.863 2
  21334334.850   -13582470.618 4 -10583718.271 3
  24624526.498    -4794271.685 2  -3735784.577 1
  21290455.125     1419498.303 4   1106104.921 3
 91  7 23  2 44 30.0020000  0  4 03 23 21 17
  22101422.803     7101904.766 3   5533948.688 2
  21332341.223   -13592963.350 4 -10591894.416 3
  24616454.586    -4836723.304 2  -3768863.620 1
  21294059.826     1438444.973 4   1120868.551 3
 91  7 23  2 44 45.0020000  0  4 03 23 21 17
  22109530.689     7144508.540 3   5567146.409 1
  21330362.299   -13603364.785 4 -10599999.410 3
  24608378.477    -4879149.792 2  -3801923.159 1
  21297673.530     1457439.595 4   1135669.553 3
 91  7 23  2 45  0.0020000  0  4 03 23 21 17
  22117659.864     7187244.640 3   5600447.247 1
  21328403.154   -13613643.512 4 -10608008.793 3
  24600319.757    -4921519.741 2  -3834938.637 1
  21301301.919     1476513.456 4   1150532.299 3
 91  7 23  2 45 15.0020000  0  4 03 23 21 17
  22125821.409     7230114.553 3   5633852.344 2
  21326472.794   -13623797.942 4 -10615921.317 3
  24592258.934    -4963831.342 2  -3867908.579 1
  21304946.196     1495668.195 4   1165458.069 3
 91  7 23  2 45 30.0020000  0  4 03 23 21 17
  22134000.352     7273113.447 3   5667357.950 2
  21324564.612   -13633832.797 4 -10623740.671 3
  24584219.095    -5006089.103 2  -3900836.614 1
  21308604.259     1514899.007 4   1180443.116 3
 91  7 23  2 45 45.0020000  0  4 03 23 21 17
  22142209.563     7316253.785 3   5700973.761 1
  21322681.315   -13643735.515 4 -10631457.057 3
  24576195.756    -5048280.317 2  -3933712.799 1
  21312281.518     1534218.343 4   1195497.138 3
 91  7 23  2 46  0.0020000  0  4 03 23 21 17
  22150448.160     7359529.891 3   5734695.392 1
  21320817.806   -13653511.614 4 -10639074.775 3
  24568179.606    -5090410.295 2  -3966541.220 1
  21315972.256     1553620.652 4   1210615.815 3
 91  7 23  2 46 15.0020000  0  4 03 23 21 17
  22158706.851     7402939.379 3   5768520.945 2
  21318983.073   -13663163.593 4 -10646595.782 3
  24560170.645    -5132481.429 2  -3999323.881 1
  21319680.994     1573103.392 4   1225797.170 3
 91  7 23  2 46 30.0020000  0  4 03 23 21 17
  22166994.910     7446477.166 3   5802446.489 1
  21317167.535   -13672695.978 4 -10654023.596 3
  24552174.885    -5174498.114 2  -4032064.047 1
  21323404.417     1592662.208 4   1241037.803 3
 91  7 23  2 46 45.0020000  0  4 03 23 21 17
  22175302.758     7490142.310 3   5836471.241 1
  21315378.373   -13682110.025 4 -10661359.200 3
  24544186.315    -5216461.340 2  -4064762.562 1
  21327143.423     1612295.910 4   1256336.784 3
 91  7 23  2 47  0.0020000  0  4 03 23 21 17
  22183636.092     7533933.896 3   5870594.530 2
  21313608.999   -13691406.568 4 -10668603.246 3
  24536213.337    -5258371.793 2  -4097419.965 1
  21330892.332     1632003.572 4   1271693.402 3
 91  7 23  2 47 15.0020000  0  4 03 23 21 17
  22191991.300     7577850.500 3   5904815.216 1
  21311862.704   -13700586.462 4 -10675756.401 3
  24528238.849    -5300230.262 2  -4130036.806 1
  21334653.822     1651784.622 4   1287107.203 3
 91  7 23  2 47 30.0020000  0  4 03 23 21 17
  22200373.198     7621894.743 3   5939135.398 1
  21310138.299   -13709647.240 4 -10682816.728 3
  24520290.458    -5342034.226 2  -4162611.249 1
  21338433.313     1671640.997 4   1302579.708 3
 91  7 23  2 47 45.0020000  0  4 03 23 21 17
  22208778.183     7666064.820 3   5973553.625 2
  21308435.777   -13718590.275 4 -10689785.316 3
  24512342.661    -5383784.896 2  -4195144.203 1
  21342226.580     1691571.313 4   1318109.821 3
 91  7 23  2 48  0.0020000  0  4 03 23 21 17
  22217207.449     7710366.356 3   6008074.273 1
  21306756.639   -13727410.267 4 -10696658.030 3
  24504417.644    -5425476.451 2  -4227631.039 1
  21346034.549     1711581.206 4   1333701.943 3
 91  7 23  2 48 15.0020000  0  4 03 23 21 17
  22225665.491     7754808.114 3   6042704.188 1
  21305106.581   -13736098.251 4 -10703427.873 3
  24496497.723    -5467099.894 2  -4260064.805 1
  21349860.500     1731679.711 4   1349363.113 3
 91  7 23  2 48 30.0020000  0  4 03 23 21 17
  22234144.526     7799383.077 3   6077437.919 1
  21303477.211   -13744661.012 4 -10710100.134 3
  24488575.708    -5508661.854 2  -4292450.662 1
  21353697.541     1751859.801 4   1365087.864 3
 91  7 23  2 48 45.0020000  0  4 03 23 21 17
  22242658.627     7844081.526 3   6112267.840 1
  21301868.528   -13753108.113 4 -10716682.276 3
  24480676.780    -5550171.810 2  -4324796.020 1
  21357552.574     1772112.084 4   1380868.864 3
 91  7 23  2 49  0.0020000  0  4 03 23 21 17
  22251186.522     7888908.743 3   6147198.120 1
  21300283.219   -13761434.457 4 -10723170.328 3
  24472791.341    -5591624.395 2  -4357096.637 1
  21361419.001     1792441.596 4   1396710.040 3
 91  7 23  2 49 15.0020000  0  4 03 23 21 17
  22259742.303     7933863.285 3   6182227.623 2
  21298720.404   -13769640.984 4 -10729565.008 3
  24464919.391    -5633020.569 2  -4389353.337 1
  21365304.004     1812847.364 4   1412610.642 3
 91  7 23  2 49 30.0020000  0  4 03 23 21 17
  22268316.668     7978939.315 3   6217351.757 1
  21297180.073   -13777733.577 4 -10735870.909 3
  24457047.135    -5674366.016 2  -4421570.468 1
  21369199.809     1833323.535 4   1428566.105 3
 91  7 23  2 49 45.0020000  0  4 03 23 21 17
  22276915.009     8024136.461 3   6252570.287 1
  21295664.321   -13785712.609 4 -10742088.325 3
  24449188.377    -5715660.653 2  -4453748.043 1
  21373111.799     1853869.911 4   1444576.273 3
 91  7 23  2 50  0.0020000  0  4 03 23 21 17
  22285540.643     8069461.468 3   6287888.440 1
  21294168.052   -13793571.143 4 -10748211.851 3
  24441345.507    -5756897.572 2  -4485880.598 1
  21377033.692     1874493.152 4   1460646.336 3
 91  7 23  2 50 15.0020000  0  4 03 23 21 17
  22294192.653     8114917.225 3   6323308.496 1
  21292696.972   -13801306.124 4 -10754239.098 3
  24433508.632    -5798073.519 2  -4517965.679 1
  21380975.059     1895196.252 4   1476778.632 3
 91  7 23  2 50 30.0020000  0  4 03 23 21 17
  22302865.350     8160498.009 3   6358825.957 2
  21291246.275   -13808923.025 4 -10760174.331 3
  24425692.444    -5839193.765 2  -4550007.349 1
  21384927.524     1915974.104 4   1492969.163 3
 91  7 23  2 50 45.0020000  0  4 03 23 21 17
  22311565.628     8206205.236 3   6394441.942 2
  21289818.062   -13816420.612 4 -10766016.586 3
  24417875.959    -5880256.924 2  -4582004.499 1
  21388896.175     1936827.800 4   1509218.787 3
 91  7 23  2 51  0.0020000  0  4 03 23 21 17
  22320283.591     8252032.272 3   6430151.302 1
  21288414.436   -13823805.242 4 -10771770.829 3
  24410066.359    -5921269.159 2  -4613962.001 1
  21392878.315     1957750.764 4   1525522.399 3
 91  7 23  2 51 15.0020000  0  4 03 23 21 17
  22329027.336     8297984.978 3   6465958.584 2
  21287030.293   -13831070.772 4 -10777432.271 3
  24402279.557    -5962224.420 2  -4645875.130 1
  21396875.147     1978749.119 4   1541884.757 3
 91  7 23  2 51 30.0020000  0  4 03 23 21 17
  22337801.358     8344066.753 3   6501866.442 1
  21285670.738   -13838213.659 4 -10782998.147 3
  24394492.746    -6003118.710 2  -4677740.725 1
  21400886.970     1999826.566 4   1558308.745 3
 91  7 23  2 51 45.0020000  0  4 03 23 21 17
  22346590.980     8390274.887 3   6537872.713 1
  21284333.362   -13845236.794 4 -10788470.704 3
  24386724.825    -6043954.836 2  -4709561.044 1
  21404911.688     2020980.515 4   1574792.339 3
 91  7 23  2 52  0.0020000  0  4 03 23 21 17
  22355403.977     8436603.840 3   6573973.182 1
  21283020.870   -13852145.592 4 -10793854.170 3
  24378958.998    -6084738.028 2  -4741340.081 1
  21408948.997     2042205.538 4   1591331.331 3
 91  7 23  2 52 15.0020000  0  4 03 23 21 17
  22364246.352     8483059.080 3   6610172.039 1
  21281727.870   -13858934.368 4 -10799144.118 3
  24371204.270    -6125462.545 2  -4773073.378 1
  21413005.186     2063507.271 4   1607930.085 3
 91  7 23  2 52 30.0020000  0  4 03 23 21 17
  22373111.219     8529641.822 3   6646470.236 1
  21280462.738   -13865601.587 4 -10804339.345 3
  24363470.220    -6166126.680 2  -4804759.655 1
  21417073.068     2084887.062 4   1624589.662 3
 91  7 23  2 52 45.0020000  0  4 03 23 21 17
  22382000.962     8576352.283 3   6682868.005 1
  21279213.207   -13872147.236 4 -10809439.835 3
  24355748.167    -6206730.212 2  -4836398.645 1
  21421155.346     2106344.947 4   1641310.097 3
 91  7 23  2 53  0.0020000  0  4 03 23 21 17
  22390911.995     8623188.990 3   6719364.086 1
  21277993.349   -13878572.462 4 -10814446.490 3
  24348028.810    -6247273.912 2  -4867991.081 1
  21425252.308     2127879.858 4   1658090.545 3
 91  7 23  2 53 15.0020000  0  4 03 23 21 17
  22399849.106     8670146.569 3   6755954.390 1
  21276789.982   -13884882.680 4 -10819363.532 3
  24340325.342    -6287763.049 2  -4899540.955 1
  21429363.963     2149486.447 4   1674926.853 3
 91  7 23  2 53 30.0020000  0  4 03 23 21 17
  22408809.008     8717222.884 3   6792637.188 1
  21275611.804   -13891079.748 4 -10824192.410 3
  24332632.370    -6328199.400 2  -4931049.745 1
  21433487.606     2171162.928 4   1691817.612 3
 91  7 23  2 53 45.0020000  0  4 03 23 21 17
  22417790.486     8764425.990 3   6829418.812 1
  21274454.899   -13897155.520 4 -10828926.758 3
  24324941.492    -6368574.676 2  -4962510.946 1
  21437629.538     2192917.603 4   1708769.306 3
 91  7 23  2 54  0.0020000  0  4 03 23 21 17
  22426793.551     8811752.956 3   6866296.935 1
  21273324.386   -13903112.730 4 -10833568.724 3
  24317277.600    -6408891.470 2  -4993926.518 1
  21441781.660     2214747.491 4   1725779.614 3
 91  7 23  2 54 15.0020000  0  4 03 23 21 17
  22435824.501     8859200.725 3   6903269.190 1
  21272212.755   -13908954.339 4 -10838120.620 3
  24309615.803    -6449152.464 2  -5025298.670 1
  21445951.477     2236649.658 4   1742846.235 3
 91  7 23  2 54 30.0020000  0  4 03 23 21 17
  22444876.138     8906770.692 3   6940336.682 1
  21271121.209   -13914678.905 4 -10842581.312 3
  24301962.399    -6489356.124 2  -5056626.104 1
  21450131.484     2258625.614 4   1759970.356 3
 91  7 23  2 54 45.0020000  0  4 03 23 21 17
  22453952.354     8954462.222 3   6977498.878 1
  21270052.148   -13920286.952 4 -10846951.210 3
  24294320.094    -6529502.676 2  -5087909.074 1
  21454329.178     2280674.998 4   1777151.693 3
 91  7 23  2 55  0.0020000  0  4 03 23 21 17
  22463049.851     9002274.356 3   7014755.022 1
  21269007.377   -13925779.220 4 -10851230.883 3
  24286694.567    -6569592.861 2  -5119148.100 1
  21458538.860     2302796.751 4   1794389.423 3
 91  7 23  2 55 15.0020000  0  4 03 23 21 17
  22472175.233     9050199.950 3   7052099.635 1
  21267982.683   -13931162.837 4 -10855425.898 3
  24279069.049    -6609633.511 2  -5150348.521 1
  21462760.539     2324984.048 4   1811678.228 3
 91  7 23  2 55 30.0020000  0  4 03 23 21 17
  22481315.011     9098257.387 3   7089546.968 1
  21266983.475   -13936419.127 4 -10859521.696 3
  24271463.319    -6649605.790 2  -5181495.650 1
  21466998.708     2347255.549 4   1829032.639 3
 91  7 23  2 55 45.0020000  0  4 03 23 21 17
  22490487.762     9146438.717 3   7127090.823 1
  21266005.852   -13941556.077 4 -10863524.502 3
  24263873.469    -6689517.493 2  -5212595.626 1
  21471252.460     2369603.111 4   1846446.332 3
 91  7 23  2 56  0.0020000  0  4 03 23 21 17
  22499673.399     9194736.687 3   7164725.554 1
  21265048.315   -13946580.711 4 -10867439.794 3
  24256292.614    -6729375.507 2  -5243653.760 1
  21475521.202     2392019.792 4   1863913.872 3
 91  7 23  2 56 15.0020000  0  4 03 23 21 17
  22508886.320     9243153.713 3   7202453.093 1
  21264114.161   -13951490.659 4 -10871265.716 3
  24248716.864    -6769177.186 2  -5274667.974 1
  21479798.041     2414508.161 4   1881437.271 3
 91  7 23  2 56 30.0020000  0  4 03 23 21 17
  22518125.330     9291688.856 3   7240272.653 1
  21263200.093   -13956286.402 4 -10875002.642 3
  24241153.399    -6808922.913 2  -5305638.575 1
  21484087.776     2437067.599 4   1899016.048 3
 91  7 23  2 56 45.0020000  0  4 03 23 21 17
  22527382.321     9340346.269 3   7278187.482 1
  21262313.011   -13960964.087 4 -10878647.586 3
  24233595.334    -6848608.514 2  -5336562.366 1
  21488395.790     2459702.163 4   1916653.370 3
 91  7 23  2 57  0.0020000  0  4 03 23 21 17
  22536669.292     9389131.518 3   7316201.948 1
  21261446.006   -13965518.001 4 -10882196.090 3
  24226063.044    -6888228.072 2  -5367434.672 1
  21492720.303     2482417.560 4   1934353.684 3
 91  7 23  2 57 15.0020000  0  4 03 23 21 17
  22545975.144     9438031.943 3   7354306.128 1
  21260600.290   -13969960.553 4 -10885657.807 3
  24218531.059    -6927793.883 2  -5398265.093 1
  21497054.396     2505201.538 4   1952107.430 3
 91  7 23  2 57 30.0020000  0  4 03 23 21 17
  22555304.388     9487049.197 3   7392501.368 2
  21259777.660   -13974289.763 4 -10889031.201 2
  24211014.360    -6967303.981 2  -5429052.095 1
  21501402.589     2528056.078 4   1969916.152 3
 91  7 23  2 57 45.0020000  0  4 03 23 21 17
  22564654.014     9536186.586 3   7430790.198 1
  21258976.913   -13978502.052 4 -10892313.487 3
  24203508.463    -7006754.630 2  -5459792.822 1
  21505768.171     2550984.269 4   1987782.280 3
 91  7 23  2 58  0.0020000  0  4 03 23 21 17
  22574028.228     9585444.544 3   7469172.989 1
  21258197.456   -13982597.247 4 -10895504.543 3
  24196007.652    -7046145.221 2  -5490486.690 1
  21510143.638     2573986.975 4   2005706.463 3
 91  7 23  2 58 15.0020000  0  4 03 23 21 17
  22583425.816     9634822.235 3   7507649.083 1
  21257438.380   -13986576.007 4 -10898604.862 3
  24188519.136    -7085476.238 2  -5521134.162 1
  21514537.394     2597063.375 4   2023688.058 3
 91  7 23  2 58 30.0020000  0  4 03 23 21 17
  22592839.301     9684314.405 3   7546214.399 1
  21256706.291   -13990443.344 4 -10901618.366 3
  24181053.104    -7124752.706 2  -5551739.138 1
  21518939.246     2620208.131 4   2041722.933 3
 91  7 23  2 58 45.0020000  0  4 03 23 21 17
  22602278.568     9733924.770 3   7584871.771 1
  21255987.682   -13994195.474 4 -10904542.094 3
  24173590.073    -7163970.634 2  -5582298.485 1
  21523359.988     2643425.338 4   2059814.266 3
 91  7 23  2 59  0.0020000  0  4 03 23 21 17
  22611741.516     9783657.566 3   7623624.609 1
  21255296.968   -13997828.119 4 -10907372.714 3
  24166139.031    -7203125.377 2  -5612808.620 1
  21527789.717     2666719.622 4   2077965.650 3
 91  7 23  2 59 15.0020000  0  4 03 23 21 17
  22621227.847     9833507.693 3   7662468.801 1
  21254626.626   -14001346.301 4 -10910114.144 3
  24158692.185    -7242221.770 2  -5643273.217 1
  21532239.244     2690085.728 4   2096172.996 3
 91  7 23  2 59 30.0020000  0  4 03 23 21 17
  22630746.260     9883473.747 3   7701403.348 1
  21253978.778   -14004751.169 4 -10912767.278 3
  24151269.325    -7281260.821 2  -5673693.257 1
  21536695.654     2713522.486 4   2114435.401 3
 91  7 23  2 59 45.0020000  0  4 03 23 21 17
  22640266.174     9933555.840 3   7740428.325 1
  21253355.509   -14008042.315 4 -10915331.794 3
  24143853.358    -7320241.957 2  -5704068.063 1
  21541170.056     2737030.428 4   2132753.284 3
 91  7 23  3  0  0.0020000  0  4 03 23 21 17
  22649821.756     9983758.986 3   7779547.617 1
  21252749.027   -14011214.827 4 -10917803.869 3
  24136445.784    -7359159.980 2  -5734393.745 1
  21545657.353     2760614.635 4   2151130.581 3
 91  7 23  3  0 15.0020000  0  4 03 23 21 17
  22659398.322    10034081.994 3   7818760.326 1
  21252172.227   -14014269.729 4 -10920184.294 3
  24129040.915    -7398015.807 2  -5764670.928 1
  21550160.233     2784273.950 4   2169566.407 3
 91  7 23  3  0 30.0020000  0  4 03 23 21 17
  22668993.482    10084521.915 3   7858064.139 1
  21251609.213   -14017209.731 4 -10922475.202 3
  24121665.415    -7436812.028 2  -5794901.719 1
  21554675.713     2808005.729 4   2188058.712 3
 91  7 23  3  0 45.0020000  0  4 03 23 21 17
  22678619.519    10135077.120 3   7897457.760 1
  21251071.389   -14020036.266 4 -10924677.682 3
  24114290.525    -7475549.964 2  -5825087.064 1
  21559205.877     2831808.557 4   2206606.368 3
 91  7 23  3  1  0.0020000  0  4 03 23 21 17
  22688259.944    10185748.548 3   7936941.952 1
  21250555.744   -14022748.344 4 -10926790.977 3
  24106935.415    -7514228.434 2  -5855226.048 1
  21563748.927     2855683.440 4   2225210.167 3
 91  7 23  3  1 15.0020000  0  4 03 23 21 17
  22697924.058    10236537.430 3   7976517.679 1
  21250062.592   -14025344.787 4 -10928814.169 3
  24099588.106    -7552845.953 2  -5885317.540 1
  21568307.875     2879631.746 4   2243871.178 3
 91  7 23  3  1 30.0020000  0  4 03 23 21 17
  22707610.046    10287441.560 3   8016183.198 1
  21249586.218   -14027827.424 4 -10930748.673 3
  24092250.385    -7591404.165 2  -5915362.857 1
  21572881.202     2903651.557 4   2262587.911 3
 91  7 23  3  1 45.0020000  0  4 03 23 21 17
  22717320.629    10338468.534 3   8055944.416 1
  21249136.526   -14030188.883 4 -10932588.760 3
  24084926.756    -7629895.353 2  -5945355.877 1
  21577464.432     2927750.588 4   2281366.378 3
 91  7 23  3  2  0.0020000  0  4 03 23 21 17
  22727056.682    10389609.818 3   8095794.743 1
  21248709.921   -14032437.229 4 -10934340.712 3
  24077622.313    -7668327.514 2  -5975302.969 1
  21582062.050     2951920.566 4   2300200.123 3
 91  7 23  3  2 15.0020000  0  4 03 23 21 17
  22736803.239    10440863.923 3   8135732.986 1
  21248305.800   -14034573.803 4 -10936005.556 3
  24070310.375    -7706701.942 2  -6005205.035 1
  21586675.259     2976160.036 4   2319088.021 3
 91  7 23  3  2 30.0020000  0  4 03 23 21 17
  22746583.371    10492240.450 3   8175766.604 1
  21247921.171   -14036589.085 4 -10937575.900 3
  24063023.016    -7745008.791 2  -6035054.484 1
  21591302.856     3000478.923 4   2338037.806 3
 91  7 23  3  2 45.0020000  0  4 03 23 21 17
  22756387.182    10543731.421 3   8215889.389 1
  21247559.323   -14038490.777 4 -10939057.727 3
  24055745.551    -7783255.632 2  -6064857.161 1
  21595943.637     3024869.290 4   2357043.285 3
 91  7 23  3  3  0.0020000  0  4 03 23 21 17
  22766200.286    10595337.960 3   8256102.234 1
  21247220.257   -14040277.570 4 -10940450.024 3
  24048474.385    -7821441.050 2  -6094611.951 1
  21600600.611     3049332.525 4   2376105.540 3
 91  7 23  3  3 15.0020000  0  4 03 23 21 17
  22776039.478    10647057.816 3   8296403.389 1
  21246902.174   -14041951.592 4 -10941754.447 3
  24041223.610    -7859566.810 2  -6124320.255 1
  21605267.183     3073866.717 4   2395223.093 3
 91  7 23  3  3 30.0020000  0  4 03 23 21 17
  22785909.539    10698890.451 3   8336792.414 1
  21246604.779   -14043513.309 4 -10942971.355 3
  24033977.922    -7897633.223 2  -6153982.346 1
  21609949.941     3098471.178 4   2414395.403 3
 91  7 23  3  3 45.0020000  0  4 03 23 21 17
  22795791.903    10750838.480 3   8377271.358 1
  21246329.868   -14044960.154 4 -10944098.756 3
  24026740.636    -7935637.535 2  -6183596.014 1
  21614643.796     3123148.865 4   2433624.770 3
 91  7 23  3  4  0.0020000  0  4 03 23 21 17
  22805700.346    10802901.168 3   8417839.651 1
  21246077.747   -14046292.762 4 -10945137.143 3
  24019528.522    -7973579.894 2  -6213161.424 1
  21619353.235     3147899.354 4   2452910.862 3
 91  7 23  3  4 15.0020000  0  4 03 23 21 17
  22815625.271    10855075.956 3   8458495.298 1
  21245846.610   -14047513.408 4 -10946088.273 3
  24012323.013    -8011462.651 2  -6242680.429 1
  21624077.960     3172720.119 4   2472251.716 3
 91  7 23  3  4 30.0020000  0  4 03 23 21 17
  22825579.878    10907364.552 3   8499239.615 1
  21245633.151   -14048620.107 4 -10946950.626 3
  24005118.403    -8049283.681 2  -6272151.255 1
  21628816.479     3197613.061 4   2491648.817 3
 91  7 23  3  4 45.0020000  0  4 03 23 21 17
  22835549.179    10959766.105 3   8540071.968 1
  21245440.989   -14049613.671 4 -10947724.825 3
  23997934.175    -8087043.678 2  -6301574.572 1
  21633569.089     3222577.392 4   2511101.542 3
 91  7 23  3  5  0.0020000  0  4 03 23 21 17
  22845546.060    11012284.925 3   8580995.690 1
  21245274.906   -14050489.604 4 -10948407.360 3
  23990758.645    -8124737.764 2  -6330946.507 1
  21638331.594     3247617.924 4   2530613.648 3
 91  7 23  3  5 15.0020000  0  4 03 23 21 17
  22855560.923    11064917.713 3   8622008.235 1
  21245130.401   -14051251.209 4 -10949000.808 3
  23983600.801    -8162369.154 2  -6360269.646 1
  21643109.691     3272731.486 4   2550182.662 3
 91  7 23  3  5 30.0020000  0  4 03 23 21 17
  22865601.874    11117663.369 3   8663108.690 1
  21245008.982   -14051899.277 4 -10949505.783 3
  23976450.147    -8199938.438 2  -6389544.316 1
  21647903.065     3297917.098 4   2569807.813 3
 91  7 23  3  5 45.0020000  0  4 03 23 21 17
  22875656.916    11170525.147 3   8704299.655 1
  21244905.860   -14052430.700 4 -10949919.870 3
  23969314.491    -8237442.271 2  -6418768.012 1
  21652708.741     3323178.247 4   2589491.820 3
 91  7 23  3  6  0.0020000  0  4 03 23 21 17
  22885733.239    11223503.728 3   8745581.608 1
  21244830.310   -14052844.490 4 -10950242.293 3
  23962185.126    -8274879.429 2  -6447939.765 1
  21657532.104     3348516.030 4   2609235.545 3
 91  7 23  3  6 15.0020000  0  4 03 23 21 17
  22895838.940    11276594.562 3   8786951.054 1
  21244770.351   -14053144.925 4 -10950476.389 3
  23955077.347    -8312254.094 2  -6477062.785 1
  21662368.056     3373925.784 4   2629035.358 3
 91  7 23  3  6 30.0020000  0  4 03 23 21 17
  22905963.530    11329799.243 3   8828409.182 1
  21244736.777   -14053330.482 4 -10950620.964 3
  23947972.866    -8349564.595 2  -6506135.866 1
  21667215.701     3399409.043 4   2648892.444 3
 91  7 23  3  6 45.0020000  0  4 03 23 21 17
  22916111.503    11383115.664 3   8869954.455 1
  21244721.185   -14053403.062 4 -10950677.504 3
  23940884.274    -8386812.574 2  -6535160.183 1
  21672078.631     3424964.384 4   2668805.696 3
 91  7 23  3  7  0.0020000  0  4 03 23 21 17
  22926279.265    11436545.132 3   8911587.757 1
  21244731.079   -14053361.164 4 -10950644.843 3
  23933814.562    -8423996.239 2  -6564134.412 1
  21676958.052     3450593.345 4   2688776.308 3
 91  7 23  3  7 15.0020000  0  4 03 23 21 17
  22936470.410    11490086.916 3   8953308.575 1
  21244756.862   -14053205.352 4 -10950523.430 3
  23926745.758    -8461116.086 2  -6593058.884 1
  21681850.369     3476295.140 4   2708803.689 3
 91  7 23  3  7 30.0020000  0  4 03 23 21 17
  22946677.148    11543739.703 3   8995115.927 1
  21244811.123   -14052936.920 4 -10950314.252 3
  23919695.539    -8498173.246 2  -6621934.535 1
  21686751.071     3502068.558 4   2728886.869 3
 91  7 23  3  7 45.0020000  0  4 03 23 21 17
  22956908.463    11597503.729 3   9037009.910 1
  21244884.877   -14052555.424 4 -10950016.975 3
  23912658.512    -8535166.946 2  -6650760.729 1
  21691671.570     3527914.163 4   2749026.296 3
 91  7 23  3  8  0.0020000  0  4 03 23 21 17
  22967162.866    11651380.928 3   9078992.128 1
  21244977.206   -14052058.644 4 -10949629.854 3
  23905624.477    -8572094.856 2  -6679535.675 1
  21696603.752     3553834.357 4   2769223.849 3
 91  7 23  3  8 15.0020000  0  4 03 23 21 17
  22977429.256    11705371.554 3   9121062.681 1
  21245097.124   -14051446.400 4 -10949152.782 3
  23898614.131    -8608956.530 2  -6708258.991 1
  21701550.034     3579829.392 4   2789479.723 3
 91  7 23  3  8 30.0020000  0  4 03 23 21 17
  22987730.722    11759471.012 3   9163218.091 1
  21245231.734   -14050723.244 4 -10948589.272 3
  23891609.483    -8645756.309 2  -6736934.065 1
  21706510.398     3605894.778 4   2809790.423 3
 91  7 23  3  8 45.0020000  0  4 03 23 21 17
  22998045.982    11813684.329 3   9205462.181 1
  21245393.620   -14049884.152 4 -10947935.424 3
  23884625.522    -8682488.745 2  -6765556.673 1
  21711484.556     3632035.824 4   2830160.059 3
 91  7 23  3  9  0.0020000  0  4 03 23 21 17
  23008378.029    11867984.748 3   9247774.125 1
  21245571.394   -14048955.478 4 -10947211.774 3
  23877637.652    -8719180.295 2  -6794147.467 1
  21716467.405     3658226.194 4   2850568.145 3
 91  7 23  3  9 15.0020000  0  4 03 23 21 17
  23018728.966    11922398.516 3   9290174.451 1
  21245767.465   -14047910.863 4 -10946397.775 3
  23870675.277    -8755804.354 2  -6822685.609 1
  21721465.243     3684491.923 4   2871034.948 3
 91  7 23  3  9 30.0020000  0  4 03 23 21 17
  23029110.475    11976931.618 3   9332667.742 1
  21245991.107   -14046744.039 4 -10945488.559 3
  23863717.395    -8792354.567 2  -6851166.225 1
  21726479.275     3710839.401 4   2891565.442 3
 91  7 23  3  9 45.0020000  0  4 03 23 21 17
  23039514.775    12031580.442 3   9375251.215 1
  21246235.436   -14045458.616 4 -10944486.923 3
  23856769.399    -8828834.119 2  -6879591.808 1
  21731509.187     3737265.188 4   2912156.976 3
 91  7 23  3 10  0.0020000  0  4 03 23 21 17
  23049933.166    12086351.322 3   9417929.778 1
  21246502.852   -14044047.997 4 -10943387.729 3
  23849843.294    -8865236.284 2  -6907957.085 1
  21736554.699     3763776.072 4   2932814.814 3
 91  7 23  3 10 15.0020000  0  4 03 23 21 17
  23060377.636    12141235.845 3   9460696.905 1
  21246791.252   -14042520.512 4 -10942197.482 3
  23842934.282    -8901569.201 2  -6936268.344 1
  21741613.692     3790363.693 4   2953532.437 3
 91  7 23  3 10 30.0020000  0  4 03 23 21 17
  23070845.786    12196237.429 3   9503555.220 1
  21247105.731   -14040872.695 4 -10940913.463 3
  23836033.061    -8937829.111 2  -6964522.816 1
  21746685.580     3817031.674 4   2974312.678 3
 91  7 23  3 10 45.0020000  0  4 03 23 21 17
  23081332.826    12251353.463 3   9546502.758 1
  21247441.203   -14039107.206 4 -10939537.741 3
  23829142.930    -8974018.384 2  -6992722.183 1
  21751777.554     3843777.614 4   2995153.681 3
 91  7 23  3 11  0.0020000  0  4 03 23 21 17
  23091842.350    12306593.159 3   9589546.659 1
  21247801.855   -14037214.473 4 -10938062.880 3
  23822271.985    -9010127.470 2  -7020859.081 1
  21756886.323     3870610.897 4   3016062.733 3
 91  7 23  3 11 15.0020000  0  4 03 23 21 17
  23102375.258    12361948.193 3   9632680.386 1
  21248184.084   -14035202.645 4 -10936495.215 3
  23815409.138    -9046164.391 2  -7048939.739 1
  21762006.173     3897523.340 4   3037033.463 3
 91  7 23  3 11 30.0020000  0  4 03 23 21 17
  23112928.853    12417407.164 3   9675895.130 1
  21248590.605   -14033082.794 4 -10934843.375 3
  23808572.666    -9082140.049 2  -7076972.674 1
  21767139.827     3924503.941 4   3058057.309 3
 91  7 23  3 11 45.0020000  0  4 03 23 21 17
  23123500.431    12472979.520 3   9719198.241 1
  21249013.615   -14030845.455 4 -10933099.984 3
  23801734.702    -9118044.752 2  -7104950.287 1
  21772291.759     3951562.303 4   3079141.753 3
 91  7 23  3 12  0.0020000  0  4 03 23 21 17
  23134109.788    12528669.911 3   9762593.303 1
  21249466.004   -14028485.962 4 -10931261.418 3
  23794924.013    -9153873.511 2  -7132868.784 1
  21777453.586     3978703.317 4   3100290.592 3
 91  7 23  3 12 15.0020000  0  4 03 23 21 17
  23144722.147    12584479.401 3   9806081.193 1
  21249937.875   -14026003.228 4 -10929326.819 3
  23788110.636    -9189624.844 2  -7160726.868 1
  21782635.795     4005928.267 4   3121504.836 3
 91  7 23  3 12 30.0020000  0  4 03 23 21 17
  23155362.077    12640399.367 3   9849655.173 1
  21250432.833   -14023405.625 4 -10927302.700 3
  23781324.535    -9225307.183 2  -7188531.246 1
  21787829.398     4033228.600 4   3142777.834 3
 91  7 23  3 12 45.0020000  0  4 03 23 21 17
  23166030.791    12696439.984 3   9893323.184 1
  21250952.675   -14020682.889 4 -10925181.074 3
  23774548.022    -9260909.851 2  -7216273.563 1
  21793040.391     4060614.851 4   3164117.766 3
 91  7 23  3 13  0.0020000  0  4 03 23 21 17
  23176707.602    12752585.605 3   9937072.963 1
  21251488.702   -14017850.387 4 -10922973.922 3
  23767786.507    -9296448.201 2  -7243965.697 1
  21798265.771     4088071.636 4   3185512.650 3
 91  7 23  3 13 15.0020000  0  4 03 23 21 17
  23187416.190    12808834.493 2   9980903.221 1
  21252047.816   -14014909.811 4 -10920682.561 3
  23761036.379    -9331923.773 2  -7271608.940 1
  21803503.751     4115597.336 4   3206961.253 3
 91  7 23  3 13 30.0020000  0  4 03 23 21 17
  23198142.463    12865192.591 3  10024818.626 1
  21252629.711   -14011854.812 4 -10918302.035 3
  23754298.841    -9367329.810 2  -7299197.992 1
  21808752.811     4143198.425 4   3228468.593 3
 91  7 23  3 13 45.0020000  0  4 03 23 21 17
  23208884.320    12921658.467 3  10068817.955 1
  21253231.691   -14008687.007 4 -10915833.601 3
  23747571.495    -9402667.865 2  -7326734.116 1
  21814022.568     4170873.347 4   3250033.464 3
 91  7 23  3 14  0.0020000  0  4 03 23 21 17
  23219649.874    12978225.602 3  10112896.200 1
  21253854.664   -14005412.433 4 -10913281.978 3
  23740859.748    -9437943.776 2  -7354221.773 1
  21819299.513     4198615.975 4   3271651.098 3
 91  7 23  3 14 15.0020000  0  4 03 23 21 17
  23230434.004    13034900.946 3  10157058.791 1
  21254499.214   -14002024.387 4 -10910641.932 3
  23734157.582    -9473150.567 2  -7381655.607 1
  21824593.246     4226433.204 4   3293326.851 3
 91  7 23  3 14 30.0020000  0  4 03 23 21 17
  23241240.025    13091679.072 3  10201301.432 1
  21255164.154   -13998528.021 4 -10907917.483 3
  23727476.408    -9508293.164 3  -7409039.354 1
  21829900.172     4254320.115 4   3315056.912 3
 91  7 23  3 14 45.0020000  0  4 03 23 21 17
  23252066.428    13148567.720 3  10245630.251 1
  21255853.080   -13994915.403 4 -10905102.441 3
  23720798.830    -9543363.421 2  -7436366.799 1
  21835222.392     4282284.655 4   3336847.458 2
 91  7 23  3 15  0.0020000  0  4 03 23 21 17
  23262911.424    13205569.160 3  10290046.884 1
  21256561.786   -13991183.897 4 -10902194.771 3
  23714141.039    -9578358.591 2  -7463635.699 1
  21840560.196     4310329.541 4   3358700.616 3
 91  7 23  3 15 15.0020000  0  4 03 23 21 17
  23273781.592    13262677.820 3  10334547.128 1
  21257294.782   -13987339.432 4 -10899199.070 3
  23707496.738    -9613284.268 2  -7490850.484 1
  21845909.691     4338449.021 4   3380611.897 3
 91  7 23  3 15 30.0020000  0  4 03 23 21 17
  23284670.956    13319898.819 3  10379134.879 1
  21258045.761   -13983376.553 4 -10896111.098 3
  23700859.338    -9648134.826 2  -7518006.676 1
  21851276.575     4366648.646 4   3402585.627 2
 91  7 23  3 15 45.0030000  0  4 03 23 21 17
  23295581.908    13377237.271 3  10423814.163 1
  21258823.721   -13979293.493 4 -10892929.476 3
  23694248.012    -9682910.939 2  -7545104.883 1
  21856659.953     4394931.812 4   3424624.448 2
 91  7 23  3 16  0.0030000  0  4 03 23 21 17
  23306516.538    13434678.776 3  10468573.762 1
  21259622.967   -13975097.421 4 -10889659.808 3
  23687639.990    -9717614.323 2  -7572146.427 1
  21862054.112     4423288.261 4   3446720.379 3
 91  7 23  3 16 15.0030000  0  4 03 23 21 17
  23317461.960    13492231.484 3  10513419.952 1
  21260445.597   -13970783.772 4 -10886298.502 3
  23681053.545    -9752242.683 2  -7599129.535 1
  21867466.271     4451724.172 4   3468878.228 3
 91  7 23  3 16 30.0030000  0  4 03 23 21 17
  23328433.165    13549901.535 3  10558357.640 1
  21261284.420   -13966345.913 4 -10882840.417 3
  23674477.596    -9786789.442 3  -7626049.014 1
  21872896.709     4480246.234 4   3491103.201 3
 91  7 23  3 16 45.0030000  0  4 03 23 21 17
  23339431.051    13607683.431 3  10603382.442 1
  21262153.519   -13961789.319 4 -10879289.817 3
  23667916.341    -9821259.753 2  -7652908.942 1
  21878336.744     4508849.407 4   3513391.393 3
 91  7 23  3 17  0.0030000  0  4 03 23 21 17
  23350448.717    13665577.778 2  10648494.864 1
  21263043.602   -13957113.506 4 -10875646.320 3
  23661372.169    -9855652.860 2  -7679708.722 1
  21883798.959     4537534.010 4   3535743.019 3
 91  7 23  3 17 15.0030000  0  4 03 23 21 17
  23361490.081    13723577.310 2  10693689.266 1
  21263955.874   -13952325.061 4 -10871915.041 3
  23654841.791    -9889975.378 2  -7706453.475 1
  21889268.974     4566293.212 4   3558152.775 2
 91  7 23  3 17 30.0030000  0  4 03 23 21 17
  23372545.221    13781671.851 3  10738957.705 1
  21264886.127   -13947434.353 4 -10868104.094 3
  23648325.505    -9924237.317 2  -7733151.030 1
  21894755.480     4595117.021 4   3580612.896 3
 91  7 23  3 17 45.0030000  0  4 03 23 21 17
  23383615.657    13839862.498 3  10784301.116 1
  21265836.466   -13942436.210 4 -10864209.437 3
  23641813.712    -9958433.113 2  -7759797.013 1
  21900250.675     4624010.688 4   3603127.428 3
 91  7 23  3 18  0.0030000  0  4 03 23 21 17
  23394711.875    13898175.391 3  10829739.571 1
  21266810.790   -13937316.306 4 -10860219.889 3
  23635319.308    -9992548.126 2  -7786380.106 1
  21905765.354     4652988.813 4   3625707.782 3
 91  7 23  3 18 15.0030000  0  4 03 23 21 17
  23405829.086    13956590.373 3  10875257.739 1
  21267810.601   -13932082.502 4 -10856141.586 3
  23628842.895   -10026590.512 2  -7812906.618 1
  21911290.530     4682043.486 4   3648347.782 3
 91  7 23  3 18 30.0030000  0  4 03 23 21 17
  23416962.770    14015113.428 3  10920860.092 1
  21268825.095   -13926732.651 4 -10851972.859 3
  23622377.868   -10060557.704 2  -7839374.453 1
  21916838.189     4711176.853 4   3671049.120 2
 91  7 23  3 18 45.0030000  0  4 03 23 21 17
  23428123.144    14073743.012 3  10966545.396 1
  21269865.975   -13921268.269 4 -10847714.889 3
  23615927.230   -10094451.058 2  -7865784.830 1
  21922396.642     4740387.317 4   3693810.521 2
 91  7 23  3 19  0.0030000  0  4 03 23 21 17
  23439301.509    14132482.049 3  11012316.073 1
  21270925.744   -13915686.329 4 -10843365.304 3
  23609496.685   -10128267.176 2  -7892135.001 1
  21927970.085     4769678.398 4   3716634.740 2
 91  7 23  3 19 15.0030000  0  4 03 23 21 17
  23450500.858    14191327.877 3  11058169.870 1
  21272010.694   -13909989.147 4 -10838925.939 3
  23603078.425   -10162008.286 2  -7918426.731 1
  21933558.517     4799047.677 4   3739519.896 3
 91  7 23  3 19 30.0030000  0  4 03 23 21 17
  23461717.291    14250276.796 3  11104104.019 1
  21273116.331   -13904180.479 4 -10834399.699 3
  23596669.169   -10195677.894 3  -7944662.720 1
  21939165.228     4828491.654 4   3762463.262 3
 91  7 23  3 19 45.0030000  0  4 03 23 21 17
  23472947.518    14309329.407 2  11150119.024 1
  21274241.451   -13898259.564 4 -10829785.983 3
  23590274.895   -10229275.003 2  -7970842.235 1
  21944780.045     4858011.116 4   3785465.435 3
 91  7 23  3 20  0.0030000  0  4 03 23 21 17
  23484210.421    14368486.815 3  11196215.631 1
  21275393.549   -13892225.136 4 -10825083.813 3
  23583893.211   -10262798.166 2  -7996964.120 1
  21950410.148     4887607.416 4   3808527.488 2
 91  7 23  3 20 15.0030000  0  4 03 23 21 17
  23495486.211    14427746.994 2  11242392.335 1
  21276562.443   -13886078.940 4 -10820294.562 3
  23577527.415   -10296248.863 3  -8023029.542 1
  21956057.641     4917278.742 4   3831648.005 2
 91  7 23  3 20 30.0030000  0  4 03 23 21 17
  23506783.595    14487107.857 2  11288647.496 1
  21277753.220   -13879823.146 4 -10815419.913 3
  23571174.218   -10329629.091 2  -8049040.078 1
  21961718.919     4947023.271 4   3854825.567 3
 91  7 23  3 20 45.0030000  0  4 03 23 21 17
  23518097.758    14546597.732 2  11335003.210 1
  21278970.678   -13873429.041 4 -10810437.489 3
  23564843.497   -10362910.066 2  -8074973.228 1
  21967400.282     4976869.688 4   3878082.512 2
 91  7 23  3 21  0.0030000  0  4 03 23 21 17
  23529445.800    14606212.287 2  11381456.077 1
  21280210.315   -13866900.921 4 -10805350.623 3
  23558534.066   -10396095.862 2  -8100832.206 1
  21973095.746     5006813.757 4   3901415.565 3
 91  7 23  3 21 15.0030000  0  4 03 23 21 17
  23540810.638    14665923.455 2  11427984.189 1
  21281475.439   -13860266.488 4 -10800180.932 3
  23552227.033   -10429214.055 2  -8126638.545 1
  21978807.385     5036827.721 4   3924803.066 2
 91  7 23  3 21 30.0030000  0  4 03 23 21 17
  23552189.856    14725733.125 3  11474589.110 1
  21282760.350   -13853524.016 4 -10794927.046 3
  23545939.188   -10462262.363 2  -8152390.428 1
  21984531.327     5066913.759 4   3948246.733 2
 91  7 23  3 21 45.0030000  0  4 03 23 21 17
  23563592.465    14785639.016 2  11521268.975 1
  21284063.254   -13846675.621 4 -10789590.626 3
  23539660.329   -10495242.799 3  -8178089.444 1
  21990272.955     5097069.744 4   3971744.914 2
 91  7 23  3 22  0.0030000  0  4 03 23 21 17
  23575012.454    14845638.262 2  11568021.595 1
  21285383.834   -13839723.896 4 -10784173.690 3
  23533399.165   -10528157.723 3  -8203737.373 1
  21996023.273     5127293.386 4   3995295.807 2
 91  7 23  3 22 15.0030000  0  4 03 23 21 17
  23586444.144    14905733.005 2  11614848.634 1
  21286726.602   -13832666.833 4 -10778674.677 3
  23527149.692   -10561004.751 3  -8229332.381 1
  22001786.783     5157586.712 4   4018900.991 3
 91  7 23  3 22 30.0030000  0  4 03 23 21 17
  23597900.710    14965920.290 2  11661747.763 1
  21288085.267   -13825507.007 4 -10773095.574 3
  23520906.815   -10593786.438 3  -8254876.513 1
  22007564.079     5187947.341 4   4042558.633 3
 91  7 23  3 22 45.0030000  0  4 03 23 21 17
  23609372.876    15026200.036 2  11708718.995 1
  21289471.504   -13818244.364 4 -10767436.364 3
  23514681.921   -10626502.556 3  -8280369.539 1
  22013354.576     5218375.261 4   4066268.708 2
 91  7 23  3 23  0.0030000  0  4 03 23 21 17
  23620860.319    15086577.495 2  11755766.310 1
  21290873.934   -13810873.406 4 -10761692.750 3
  23508476.223   -10659147.513 3  -8305807.106 1
  22019158.850     5248875.821 4   4090035.390 3
 91  7 23  3 23 15.0030000  0  4 03 23 21 17
  23632367.551    15147058.289 2  11802894.166 1
  21292295.551   -13803388.097 4 -10755860.031 3
  23502275.017   -10691715.132 3  -8331184.433 1
  22024976.325     5279455.075 4   4113863.373 3
 91  7 23  3 23 30.0030000  0  4 03 23 21 17
  23643895.470    15207630.004 2  11850092.855 1
  21293742.348   -13795801.140 4 -10749948.108 3
  23496088.200   -10724217.777 3  -8356511.111 1
  22030810.884     5310100.438 4   4137742.886 2
 91  7 23  3 23 45.0030000  0  4 03 23 21 17
  23655432.682    15268297.639 2  11897366.323 1
  21295205.034   -13788107.297 4 -10743952.892 3
  23489910.378   -10756649.888 2  -8381782.830 1
  22036655.040     5340817.800 4   4161678.504 2
 91  7 23  3 24  0.0030000  0  4 03 23 21 17
  23666994.480    15329056.674 2  11944710.991 1
  21296690.510   -13780310.989 4 -10737877.841 3
  23483762.526   -10789015.699 3  -8407002.887 1
  22042512.389     5371602.641 4   4185666.686 3
 91  7 23  3 24 15.0030000  0  4 03 23 21 17
  23678583.554    15389908.351 2  11992127.849 1
  21298193.663   -13772410.831 4 -10731721.863 3
  23477612.590   -10821313.569 3  -8432170.009 1
  22048385.923     5402456.410 4   4209708.582 2
 91  7 23  3 24 30.0030000  0  4 03 23 21 17
  23690177.130    15450855.406 2  12039619.005 1
  21299718.114   -13764403.767 4 -10725482.580 3
  23471483.026   -10853540.177 3  -8457281.575 1
  22054269.046     5433382.329 4   4233806.700 2
 91  7 23  3 24 45.0030000  0  4 03 23 21 17
  23701792.291    15511890.627 2  12087178.871 1
  21301258.445   -13756297.010 4 -10719165.617 3
  23465358.270   -10885702.631 3  -8482343.174 1
  22060164.767     5464373.262 4   4257955.486 3
 91  7 23  3 25  0.0030000  0  4 03 23 21 17
  23713426.334    15573023.506 2  12134814.859 1
  21302825.457   -13748080.868 4 -10712763.419 3
  23459250.598   -10917791.201 2  -8507347.217 1
  22066079.074     5495438.766 4   4282162.378 2
 91  7 23  3 25 15.0030000  0  4 03 23 21 17
  23725072.976    15634250.258 2  12182523.991 1
  21304406.569   -13739759.052 4 -10706278.875 3
  23453157.619   -10949808.985 3  -8532296.057 1
  22072006.267     5526575.614 4   4306424.863 2
 91  7 23  3 25 30.0030000  0  4 03 23 21 17
  23736743.891    15695567.273 2  12230303.460 1
  21306008.953   -13731335.052 4 -10699714.708 3
  23447083.818   -10981759.484 3  -8557192.497 2
  22077943.660     5557780.405 4   4330740.295 3
 91  7 23  3 25 45.0030000  0  4 03 23 21 17
  23748433.704    15756975.989 2  12278154.352 1
  21307628.438   -13722807.044 4 -10693069.494 3
  23441013.323   -11013640.692 3  -8582034.948 1
  22083895.135     5589054.647 4   4355109.838 2
 91  7 23  3 26  0.0030000  0  4 03 23 21 17
  23760127.706    15818477.059 2  12326077.215 1
  21309275.197   -13714174.573 4 -10686342.885 3
  23434960.218   -11045451.764 3  -8606822.720 1
  22089859.506     5620399.329 4   4379534.268 3
 91  7 23  3 26 15.0030000  0  4 03 23 21 17
  23771859.784    15880069.518 2  12374071.310 1
  21310936.641   -13705438.158 4 -10679535.274 3
  23428918.795   -11077193.187 3  -8631556.245 2
  22095838.570     5651813.956 4   4404013.204 2
 91  7 23  3 26 30.0030000  0  4 03 23 21 17
  23783594.558    15941753.592 2  12422136.777 1
  21312617.586   -13696597.266 4 -10672646.256 3
  23422894.169   -11108864.211 3  -8656234.910 1
  22101827.520     5683298.996 4   4428546.989 3
 91  7 23  3 26 45.0030000  0  4 03 23 21 17
  23795349.723    16003526.567 2  12470271.470 1
  21314322.498   -13687654.860 4 -10665678.140 3
  23416881.234   -11140467.527 3  -8680860.823 1
  22107830.866     5714851.900 4   4453133.674 2
 91  7 23  3 27  0.0030000  0  4 03 23 21 17
  23807113.578    16065382.319 2  12518470.776 1
  21316040.908   -13678616.745 4 -10658635.445 3
  23410876.090   -11172008.718 3  -8705438.294 1
  22113846.506     5746466.787 4   4477768.653 2
 91  7 23  3 27 15.0030000  0  4 03 23 21 17
  23818906.810    16127328.402 2  12566740.429 1
  21317780.608   -13669475.302 4 -10651512.222 3
  23404887.437   -11203479.928 3  -8729961.291 1
  22119876.830     5778151.328 4   4502457.898 3
 91  7 23  3 27 30.0030000  0  4 03 23 21 17
  23830712.641    16189360.701 2  12615077.230 1
  21319535.890   -13660234.296 4 -10644311.432 3
  23398913.469   -11234884.948 3  -8754432.685 1
  22125912.249     5809901.878 4   4527198.597 2
 91  7 23  3 27 45.0030000  0  4 03 23 21 17
  23842533.157    16251479.384 3  12663481.368 1
  21321317.261   -13650893.344 4 -10637032.759 3
  23392946.698   -11266223.066 3  -8778851.924 2
  22131976.453     5841718.976 4   4551991.138 2
 91  7 23  3 28  0.0030000  0  4 03 23 21 17
  23854368.968    16313685.461 2  12711953.576 1
  21323114.511   -13641451.436 4 -10629675.417 3
  23386996.122   -11297493.211 3  -8803218.218 1
  22138039.758     5873603.612 4   4576836.315 2
 91  7 23  3 28 15.0030000  0  4 03 23 21 17
  23866220.955    16375977.054 2  12760492.491 1
  21324927.362   -13631910.187 4 -10622240.661 3
  23381061.425   -11328696.464 3  -8827532.408 1
  22144121.046     5905554.486 4   4601733.090 3
 91  7 23  3 28 30.0030000  0  4 03 23 21 17
  23878095.139    16438360.478 2  12809102.882 1
  21326764.791   -13622263.488 4 -10614723.756 3
  23375137.233   -11359826.512 3  -8851789.535 1
  22150213.126     5937577.718 4   4626686.257 2
 91  7 23  3 28 45.0030000  0  4 03 23 21 17
  23889982.210    16500831.354 2  12857781.477 1
  21328618.109   -13612515.442 4 -10607127.860 3
  23369223.520   -11390887.321 3  -8875992.727 1
  22156323.198     5969669.380 4   4651692.749 2
 91  7 23  3 29  0.0030000  0  4 03 23 21 17
  23901889.663    16563388.615 2  12906527.320 1
  21330492.411   -13602666.711 4 -10599453.516 3
  23363329.308   -11421879.135 3  -8900142.131 1
  22162440.162     6001829.079 4   4676752.254 3
 91  7 23  3 29 15.0030000  0  4 03 23 21 17
  23913815.107    16626033.758 2  12955341.726 1
  21332386.798   -13592715.909 4 -10591699.634 3
  23357442.276   -11452800.556 3  -8924236.702 1
  22168575.414     6034057.974 4   4701865.676 2
 91  7 23  3 29 30.0030000  0  4 03 23 21 17
  23925745.951    16688762.004 2  13004220.791 1
  21334300.973   -13582667.208 4 -10583869.475 3
  23351567.843   -11483655.746 3  -8948279.654 2
  22174717.559     6066352.090 4   4727029.925 2
 91  7 23  3 29 45.0030000  0  4 03 23 21 17
  23937699.577    16751577.992 2  13053168.308 1
  21336228.934   -13572516.179 4 -10575959.567 3
  23345719.796   -11514439.966 3  -8972267.307 1
  22180880.994     6098716.049 4   4752248.592 3
 91  7 23  3 30  0.0030000  0  4 03 23 21 17
  23949664.895    16814476.615 2  13102180.179 1
  21338181.186   -13562267.906 4 -10567973.888 3
  23339868.144   -11545157.903 3  -8996203.317 2
  22187050.728     6131145.071 4   4777517.964 2
 91  7 23  3 30 15.0030000  0  4 03 23 21 17
  23961653.596    16877460.324 2  13151258.314 1
  21340149.623   -13551919.742 4 -10559910.381 3
  23334035.383   -11575806.797 3  -9020085.530 1
  22193235.146     6163641.778 4   4802840.076 2
 91  7 23  3 30 30.0030000  0  4 03 23 21 17
  23973656.083    16940524.607 2  13200399.282 1
  21342135.144   -13541475.844 4 -10551772.271 3
  23328215.508   -11606390.535 3  -9043916.961 1
  22199429.755     6196202.215 4   4828211.840 2
 91  7 23  3 30 45.0030000  0  4 03 23 21 17
  23985666.666    17003678.324 2  13249609.909 1
  21344145.854   -13530927.377 4 -10543552.683 3
  23322408.233   -11636899.985 3  -9067690.520 1
  22205638.455     6228835.109 4   4853640.073 2
 91  7 23  3 31  0.0030000  0  4 03 23 21 17
  23997704.838    17066913.557 2  13298884.090 1
  21346169.154   -13520281.955 4 -10535257.533 3
  23316618.643   -11667342.600 3  -9091411.997 2
  22211863.349     6261533.193 4   4879119.095 2
 91  7 23  3 31 15.0030000  0  4 03 23 21 17
  24009758.890    17130229.707 2  13348221.349 1
  21348212.837   -13509540.068 4 -10526887.227 3
  23310836.243   -11697718.825 3  -9115081.735 2
  22218097.230     6294296.076 4   4904648.613 2
 91  7 23  3 31 30.0030000  0  4 03 23 21 17
  24021821.938    17193629.543 2  13397623.716 1
  21350278.410   -13498698.803 4 -10518439.482 3
  23305070.333   -11728025.387 3  -9138697.173 2
  22224340.107     6327126.688 4   4930230.900 2
 91  7 23  3 31 45.0030000  0  4 03 23 21 17
  24033902.977    17257109.790 2  13447088.834 1
  21352358.371   -13487761.364 4 -10509916.794 3
  23299314.920   -11758265.419 3  -9162260.823 1
  22230600.974     6360021.936 4   4955863.568 2
 91  7 23  3 32  0.0030000  0  4 03 23 21 17
  24045988.509    17320675.387 2  13496620.419 1
  21354458.714   -13476722.502 4 -10501315.079 3
  23293578.388   -11788433.382 3  -9185768.278 1
  22236878.027     6392987.319 4   4981550.877 2
 91  7 23  3 32 15.0030000  0  4 03 23 21 17
  24058108.819    17384322.723 2  13546215.695 1
  21356580.949   -13465585.755 4 -10492637.090 3
  23287849.656   -11818532.532 3  -9209222.101 1
  22243162.880     6426019.296 4   5007290.089 2
 91  7 23  3 32 30.0030000  0  4 03 23 21 17
  24070229.130    17448055.082 2  13595877.253 1
  21358717.266   -13454347.669 4 -10483880.138 3
  23282134.116   -11848559.188 3  -9232619.462 1
  22249460.323     6459121.540 4   5033084.041 2
 91  7 23  3 32 45.0030000  0  4 03 23 21 17
  24082376.715    17511862.768 2  13645597.460 1
  21360874.575   -13443017.653 4 -10475051.543 3
  23276435.355   -11878522.634 3  -9255967.545 1
  22255772.451     6492284.618 4   5058925.403 2
 91  7 23  3 33  0.0030000  0  4 03 23 21 17
  24094531.202    17575754.281 2  13695383.051 1
  21363049.570   -13431587.314 4 -10466144.785 3
  23270747.701   -11908414.203 3  -9279259.643 1
  22262096.567     6525517.043 4   5084820.799 2
 91  7 23  3 33 15.0030000  0  4 03 23 21 17
  24106703.976    17639727.520 2  13745232.301 1
  21365245.549   -13420058.396 4 -10457161.204 3
  23265069.330   -11938235.396 3  -9302496.886 1
  22268432.087     6558817.226 4   5110768.999 2
 91  7 23  3 33 30.0030000  0  4 03 23 21 17
  24118895.937    17703783.486 2  13795145.975 1
  21367454.118   -13408429.671 4 -10448099.850 3
  23259411.943   -11967984.868 3  -9325678.247 2
  22274784.088     6592186.331 4   5136770.897 2
 91  7 23  3 33 45.0030000  0  5 03 23 21 11 17
  24131100.786    17767918.391 2  13845121.209 1
  21369686.673   -13396704.855 4 -10438963.622 3
  23253759.958   -11997666.124 3  -9348806.444 1
  26154003.456           0.226 2         0.359 1
  22281146.280     6625620.891 4   5162823.808 2
 91  7 23  3 34  0.0030000  0  5 03 23 21 11 17
  24143318.826    17832131.162 2  13895157.063 1
  21371934.218   -13384885.150 4 -10429753.460 3
  23248126.259   -12027280.025 3  -9371882.194 1
  26145000.392      -47344.769 2    -36891.726
  22287520.470     6659120.210 4   5188927.182 2
 91  7 23  3 34 15.0030000  0  5 03 23 21 11 17
  24155554.256    17896421.749 2  13945253.593 1
  21374203.950   -13372970.322 4 -10420469.171 3
  23242503.651   -12056826.050 3  -9394905.019 2
  26135988.934      -94689.858 2    -73784.044 1
  22293908.148     6692684.579 4   5215081.233 2
 91  7 23  3 34 30.0030000  0  5 03 23 21 11 17
  24167805.277    17960792.005 2  13995412.221 1
  21376488.367   -13360958.161 4 -10411109.028 3
  23236890.937   -12086301.977 3  -9417873.230 2
  26126975.669     -142032.735 2   -110674.502 1
  22300310.214     6726316.001 4   5241287.532 2
 91  7 23  3 34 45.0030000  0  5 03 23 21 11 17
  24180069.185    18025245.022 2  14045635.331 1
  21378796.463   -13348845.371 4 -10401670.491 3
  23231294.408   -12115704.265 3  -9440784.065 1
  26117968.408     -189369.642 2   -147560.375 1
  22306718.580     6760017.988 4   5267548.825 2
 91  7 23  3 35  0.0030000  0  5 03 23 21 11 17
  24192344.785    18089777.041 2  14095919.955 1
  21381117.464   -13336635.676 4 -10392156.438 3
  23225714.369   -12145036.437 3  -9463640.260 1
  26108956.348     -236703.888 2   -184444.173 1
  22313146.132     6793786.751 4   5293862.154 2
 91  7 23  3 35 15.0030000  0  5 03 23 21 11 17
  24204647.974    18154389.064 2  14146266.928 1
  21383460.043   -13324327.981 4 -10382566.021 3
  23220149.329   -12174296.987 3  -9486440.642 1
  26099957.480     -284033.671 2   -221324.496 1
  22319585.969     6827623.883 4   5320228.759 2
 91  7 23  3 35 30.0030000  0  5 03 23 21 11 17
  24216951.756    18219076.709 2  14196672.817 1
  21385818.510   -13311926.709 4 -10372902.680 3
  23214589.672   -12203490.146 3  -9509188.509 2
  26090948.412     -331362.999 2   -258204.431 1
  22326036.904     6861525.002 4   5346645.221 2
 91  7 23  3 35 45.0030000  0  5 03 23 21 11 17
  24229276.819    18283840.685 2  14247138.200 1
  21388196.163   -13299430.724 4 -10363165.545 3
  23209052.212   -12232614.683 3  -9531882.921 1
  26081933.656     -378690.420 2   -295082.914 1
  22332499.235     6895491.168 4   5373112.366 2
 91  7 23  3 36  0.0030000  0  5 03 23 21 11 17
  24241624.671    18348684.266 2  14297665.632 1
  21390594.503   -13286836.481 4 -10353351.833 3
  23203520.737   -12261666.955 3  -9554521.000 1
  26072935.381     -426012.058 2   -331956.828 1
  22338976.852     6929526.147 4   5399633.130 2
 91  7 23  3 36 15.0030000  0  5 03 23 21 11 17
  24253971.922    18413609.927 2  14348257.010 1
  21393008.130   -13274141.514 4 -10343459.644 3
  23198004.557   -12290644.143 3  -9577100.585 1
  26063930.816     -473324.955 2   -368824.018 1
  22345465.855     6963632.497 4   5426209.511 2
 91  7 23  3 36 30.0030000  0  5 03 23 21 11 17
  24266346.456    18478614.900 2  14398910.219 1
  21395444.844   -13261348.357 4 -10333490.943 3
  23192507.564   -12319548.694 3  -9599623.586 1
  26054937.942     -520631.277 2   -405686.076 1
  22351969.254     6997807.890 4   5452839.691 2
 91  7 23  3 36 45.0030000  0  5 03 23 21 11 17
  24278729.383    18543697.762 2  14449624.098 1
  21397896.241   -13248458.383 4 -10323446.811 3
  23187021.355   -12348381.556 3  -9622090.692 2
  26045933.071     -567931.777 2   -442543.577 1
  22358483.141     7032051.079 4   5479522.691 2
 91  7 23  3 37  0.0030000  0  5 03 23 21 11 17
  24291124.308    18608855.496 2  14500396.304 1
  21400370.133   -13235474.276 4 -10313329.322 3
  23181545.948   -12377145.308 3  -9644503.979 2
  26036926.412     -615228.848 2   -479398.353 1
  22365012.620     7066359.333 4   5506256.416 2
 91  7 23  3 37 15.0030000  0  5 03 23 21 11 17
  24303541.106    18674094.169 2  14551231.588 1
  21402856.614   -13222390.027 4 -10303133.783 3
  23176091.228   -12405833.872 3  -9666858.650 1
  26027939.236     -662516.107 2   -516245.609 1
  22371557.097     7100738.792 4   5533045.582 2
 91  7 23  3 37 30.0030000  0  5 03 23 21 11 17
  24315965.705    18739406.975 2  14602124.649 1
  21405365.275   -13209212.155 4 -10292865.308 3
  23170639.798   -12434453.271 3  -9689159.433 1
  26018932.271     -709799.551 2   -553089.755 1
  22378113.851     7135183.371 4   5559885.509 3
 91  7 23  3 37 45.0030000  0  5 03 23 21 11 17
  24328408.897    18804797.446 2  14653078.186 1
  21407891.325   -13195937.020 4 -10282521.042 3
  23165205.765   -12462999.663 3  -9711403.331 2
  26009940.889     -757075.017 2   -589927.682 1
  22384680.804     7169696.840 4   5586779.119 2
 91  7 23  3 38  0.0030000  0  5 03 23 21 11 17
  24340867.366    18870267.116 2  14704093.514 1
  21410437.163   -13182562.959 4 -10272099.685 3
  23159789.409   -12491471.406 3  -9733589.079 2
  26000938.121     -804340.517 2   -626757.973 1
  22391260.950     7204280.751 4   5613727.619 2
 91  7 23  3 38 15.0030000  0  5 03 23 21 11 17
  24353341.131    18935809.201 2  14755165.156 1
  21413000.391   -13169096.380 4 -10261606.242 3
  23154385.950   -12519874.791 3  -9755721.542 2
  25991947.647     -851602.230 2   -663585.234 1
  22397854.288     7238928.748 4   5640726.063 2
 91  7 23  3 38 30.0030000  0  5 03 23 21 11 17
  24365825.994    19001426.766 2  14806295.718 1
  21415578.599   -13155534.211 4 -10251038.318 3
  23148993.885   -12548206.244 3  -9777797.980 2
  25982954.773     -898856.396 2   -700406.573 1
  22404462.013     7273644.488 4   5667777.292 2
 91  7 23  3 38 45.0030000  0  5 03 23 21 11 17
  24378327.932    19067120.322 2  14857485.486 1
  21418177.504   -13141875.807 4 -10240395.401 3
  23143619.209   -12576464.933 3  -9799817.691 2
  25973964.299     -946101.962 2   -737221.274 1
  22411078.132     7308428.271 4   5694881.534 2
 91  7 23  3 39  0.0030000  0  5 03 23 21 11 17
  24390848.167    19132888.697 2  14908733.471 1
  21420796.790   -13128122.222 4 -10229678.307 3
  23138251.426   -12604651.702 3  -9821781.362 1
  25964977.123     -993339.506 2   -774029.695 1
  22417709.241     7343279.296 4   5722038.181 2
 91  7 23  3 39 15.0030000  0  5 03 23 21 11 17
  24403376.795    19198735.252 2  14960042.482 1
  21423432.864   -13114269.772 4 -10218884.192 3
  23132905.525   -12632762.758 3  -9843686.035 2
  25955982.748    -1040565.063 2   -810828.781 1
  22424356.841     7378201.324 4   5749250.147 2
 91  7 23  3 39 30.0030000  0  5 03 23 21 11 17
  24415921.913    19264648.195 2  15011403.181 1
  21426084.233   -13100330.041 4 -10208022.056 3
  23127565.619   -12660809.350 3  -9865540.479 2
  25947007.857    -1087789.695 2   -847627.093 1
  22431014.928     7413182.998 4   5776508.600 2
 91  7 23  3 39 45.0030000  0  5 03 23 21 11 17
  24428479.613    19330635.526 2  15062821.794 1
  21428757.484   -13086295.266 4 -10197085.865 3
  23122246.104   -12688783.522 3  -9887338.511 1
  25938012.584    -1135004.968 2   -884418.188 1
  22437683.816     7448232.314 4   5803819.750 2
 91  7 23  3 40  0.0030000  0  5 03 23 21 11 17
  24441049.014    19396696.900 2  15114298.189 1
  21431443.919   -13072165.627 4 -10186075.750 3
  23116933.777   -12716685.211 3  -9909080.042 2
  25929035.904    -1182210.670 2   -921201.825
  22444367.991     7483349.041 4   5831183.438 2
 91  7 23  3 40 15.0030000  0  5 03 23 21 11 17
  24453633.404    19462831.359 2  15165831.498 1
  21434151.643   -13057941.641 4 -10174992.126 3
  23111638.849   -12744514.816 3  -9930765.427 1
  25920062.217    -1229407.174 2   -957978.270 1
  22451062.654     7518532.776 4   5858599.338 2
 91  7 23  3 40 30.0030000  0  5 03 23 21 11 17
  24466234.582    19529040.029 2  15217422.653 1
  21436877.061   -13043621.929 4 -10163833.899 3
  23106356.206   -12772270.866 3  -9952393.498 2
  25911083.730    -1276592.571 2   -994746.042 1
  22457769.907     7553784.930 4   5886068.545 2
 91  7 23  3 40 45.0030000  0  5 03 23 21 11 17
  24478845.348    19595320.594 2  15269069.751 1
  21439619.258   -13029208.611 4 -10152602.735 3
  23101090.044   -12799955.206 3  -9973965.653 1
  25902097.750    -1323768.450 2  -1031506.434 1
  22464491.556     7589103.828 4   5913589.766 2
 91  7 23  3 41  0.0030000  0  5 03 23 21 11 17
  24491466.611    19661669.548 2  15320770.230 1
  21442379.150   -13014705.390 4 -10141301.514 3
  23095832.887   -12827571.160 3  -9995484.545 2
  25893123.164    -1370937.983 2  -1068261.840 1
  22471221.896     7624485.922 4   5941160.236 2
 91  7 23  3 41 15.0030000  0  5 03 23 21 11 17
  24504110.655    19728091.137 2  15372527.298 1
  21445156.727   -13000107.532 4 -10129926.558 3
  23090592.517   -12855113.917 3 -10016946.415 1
  25884144.983    -1418096.188 2  -1105008.445 1
  22477967.827     7659935.693 4   5968783.431 2
 91  7 23  3 41 30.0030000  0  5 03 23 21 11 17
  24516765.500    19794584.568 2  15424340.285 1
  21447953.788   -12985415.936 4 -10118478.553 3
  23085362.337   -12882584.047 3 -10038351.661 2
  25875172.788    -1465243.321 2  -1141746.428 1
  22484726.646     7695452.725 4   5996459.031 2
 91  7 23  3 41 45.0030000  0  5 03 23 21 11 17
  24529431.732    19861150.567 2  15476209.824 1
  21450765.847   -12970629.494 4 -10106956.641 3
  23080149.844   -12909980.252 3 -10059699.331 2
  25866206.299    -1512377.926 2  -1178474.625 1
  22491500.759     7731038.079 4   6024187.895 2
 91  7 23  3 42  0.0030000  0  5 03 23 21 11 17
  24542112.945    19927782.505 2  15528130.841 1
  21453595.583   -12955754.749 4 -10095365.925 3
  23074947.550   -12937308.826 3 -10080994.285 2
  25857242.803    -1559505.920 2  -1215197.683 1
  22498280.561     7766685.715 3   6051965.267 2
 91  7 23  3 42 15.0030000  0  5 03 23 21 11 17
  24554804.959    19994481.629 2  15580104.130 1
  21456443.615   -12940790.393 4 -10083705.379 3
  23069767.436   -12964568.291 3 -10102235.382 1
  25848270.913    -1606625.667 2  -1251914.301 1
  22505077.761     7802396.655 4   6079791.969 2
 91  7 23  3 42 30.0030000  0  5 03 23 21 11 17
  24567506.868    20061251.451 2  15632132.555 1
  21459310.232   -12925732.871 4 -10071972.238 3
  23064586.719   -12991754.924 3 -10123419.753 1
  25839300.524    -1653733.200 2  -1288621.415 1
  22511887.246     7838174.537 4   6107670.861 2
 91  7 23  3 42 45.0030000  0  5 03 23 21 11 17
  24580230.956    20128094.191 2  15684217.696 1
  21462192.136   -12910579.620 4 -10060164.496 3
  23059430.284   -13018865.938 3 -10144545.174 1
  25830347.524    -1700825.369 2  -1325316.564 1
  22518706.626     7874022.144 3   6135604.056 2
 91  7 23  3 43  0.0030000  0  5 03 23 21 11 17
  24592959.546    20195010.338 2  15736360.167 1
  21465096.227   -12895329.929 4 -10048281.621 3
  23054284.355   -13045900.524 3 -10165611.066 2
  25821387.622    -1747901.076 2  -1361998.962 1
  22525538.892     7909940.453 3   6163592.339 2
 91  7 23  3 43 15.0030000  0  5 03 23 21 11 17
  24605713.317    20261991.488 2  15788553.295 1
  21468012.604   -12879991.854 4 -10036329.870 3
  23049155.806   -13072866.520 3 -10186623.482 2
  25812433.121    -1794968.119 2  -1398674.519 1
  22532392.151     7945921.438 3   6191629.484 2
 91  7 23  3 43 30.0030000  0  5 03 23 21 11 17
  24618465.587    20329041.985 2  15840800.332 1
  21470949.371   -12864561.270 4 -10024306.025 3
  23044037.142   -13099759.415 3 -10207578.975 2
  25803474.729    -1842021.760 2  -1435339.640 1
  22539249.903     7981969.377 4   6219718.787 2
 91  7 23  3 43 45.0030000  0  5 03 23 21 11 17
  24631237.951    20396162.569 2  15893102.085
  21473904.129   -12849036.876 4 -10012209.088 3
  23038933.782   -13126577.786 3 -10228476.371 2
  25794526.519    -1889060.259 2  -1471992.964 1
  22546118.745     8018085.577 3   6247861.277 2
 91  7 23  3 44  0.0030000  0  5 03 23 21 11 17
  24644028.594    20463356.540 2  15945460.975 1
  21476876.564   -12833415.588 4 -10000036.650 3
  23033842.698   -13153318.307 3 -10249313.097 2
  25785578.911    -1936080.057 2  -1508631.803 1
  22553007.978     8054273.314 4   6276059.507 2
 91  7 23  3 44 15.0030000  0  5 03 23 21 11 17
  24656826.130    20530615.886 2  15997870.782 1
  21479867.601   -12817705.206 4  -9987794.784 3
  23028770.513   -13179988.372 3 -10270094.944 1
  25776631.906    -1983088.321 2  -1545261.603 1
  22559904.103     8090524.978 3   6304307.565 2
 91  7 23  3 44 30.0030000  0  5 03 23 21 11 17
  24669636.867    20597940.789 2  16050331.638 1
  21482875.111   -12801905.280 4  -9975483.138 3
  23023705.221   -13206587.649 3 -10290821.624 2
  25767688.800    -2030084.383 2  -1581881.876 1
  22566815.820     8126840.982 3   6332605.750 2
 91  7 23  3 44 45.0030000  0  5 03 23 21 11 17
  24682467.384    20665328.811 2  16102841.885 1
  21485896.424   -12786018.015 4  -9963103.450 3
  23018659.116   -13233117.919 3 -10311494.513 2
  25758752.290    -2077069.940 2  -1618493.912 1
  22573738.330     8163219.477 3   6360952.638 2
 91  7 23  3 45  0.0030000  0  5 03 23 21 11 17
  24695299.699    20732786.685 2  16155406.362 1
  21488936.619   -12770036.690 4  -9950650.456 3
  23013628.000   -13259572.297 3 -10332108.290 2
  25749814.577    -2124037.792 2  -1655092.236 1
  22580678.221     8199667.126 3   6389353.410 2
 91  7 23  3 45 15.0030000  0  5 03 23 21 11 17
  24708145.511    20800309.233 2  16208021.360 1
  21491995.398   -12753966.280 4  -9938128.051 3
  23008604.073   -13285955.378 3 -10352666.497 2
  25740883.154    -2170992.188 2  -1691680.019 1
  22587619.612     8236179.426 3   6417804.558 2
 91  7 23  3 45 30.0030000  0  5 03 23 21 11 17
  24721009.898    20867901.229 2  16260690.361
  21495071.871   -12737801.917 4  -9925532.432 3
  23003597.841   -13312262.323 3 -10373165.387 2
  25731946.348    -2217928.040 2  -1728253.355 1
  22594579.902     8272761.419 3   6446310.006 2
 91  7 23  3 45 45.0030000  0  5 03 23 21 11 17
  24733881.493    20935564.442 2  16313414.896 1
  21498166.929   -12721541.354 4  -9912861.856 3
  22998606.599   -13338490.818 3 -10393603.135 2
  25723008.931    -2264842.641 2  -1764810.175 1
  22601560.565     8309415.132 4   6474871.346 2
 91  7 23  3 46  0.0030000  0  5 03 23 21 11 17
  24746785.755    21003285.164 2  16366184.305 1
  21501277.273   -12705198.447 4  -9900127.107 3
  22993625.548   -13364654.238 3 -10413990.185 2
  25714093.100    -2311749.347 2  -1801360.880 1
  22608546.629     8346127.034 3   6503478.038 2
 91  7 23  3 46 15.0030000  0  5 03 23 21 11 17
  24759671.440    21071071.208 2  16419004.480 1
  21504405.312   -12688765.092 4  -9887321.892 3
  22988662.183   -13390744.265 3 -10434320.052 2
  25705164.382    -2358639.530 2  -1837898.630 1
  22615546.784     8382905.153 3   6532136.314 2
 91  7 23  3 46 30.0030000  0  5 03 23 21 11 17
  24772573.608    21138923.738 2  16471876.454 1
  21507547.433   -12672239.877 4  -9874445.092 3
  22983712.010   -13416759.464 3 -10454591.608 2
  25696244.956    -2405511.446 2  -1874422.174 1
  22622556.527     8419750.951 4   6560847.328 2
 91  7 23  3 46 45.0030000  0  5 03 23 21 11 17
  24785509.350    21206837.776 2  16524796.619 1
  21510710.547   -12655628.025 4  -9861500.784 3
  22978775.928   -13442704.612 3 -10474808.576 2
  25687326.734    -2452369.579 2  -1910934.970 1
  22629583.067     8456659.727 4   6589607.422 2
 91  7 23  3 47  0.0030000  0  5 03 23 21 11 17
  24798443.591    21274820.507 2  16577770.098 1
  21513886.547   -12638921.509 4  -9848482.702 3
  22973853.029   -13468571.553 3 -10494964.592 2
  25678420.798    -2499205.604 2  -1947430.578 1
  22636619.797     8493639.373 4   6618422.731 2
 91  7 23  3 47 15.0030000  0  5 03 23 21 11 17
  24811391.329    21342872.895 2  16630797.965 1
  21517085.931   -12622119.704 4  -9835390.375 3
  22968944.527   -13494359.546 3 -10515059.102 2
  25669509.765    -2546018.579 2  -1983908.186 1
  22643669.118     8530690.564 4   6647293.787 2
 91  7 23  3 47 30.0030000  0  5 03 23 21 11 17
  24824352.557    21410987.889 2  16683874.458 1
  21520299.407   -12605229.211 4  -9822228.944 3
  22964053.414   -13520075.081 3 -10535097.148 2
  25660607.135    -2592814.634 2  -2020372.634 1
  22650729.529     8567806.853 4   6676215.570 2
 91  7 23  3 47 45.0030000  0  5 03 23 21 11 17
  24837329.673    21479168.067 2  16737001.859 1
  21523532.068   -12588247.371 4  -9808996.326 3
  22959170.695   -13545715.225 3 -10555076.434 2
  25651707.193    -2639590.395 2  -2056821.244
  22657806.430     8604991.166 4   6705190.365 2
 91  7 23  3 48  0.0030000  0  5 03 23 21 11 17
  24850316.082    21547410.502 2  16790177.678 1
  21526781.220   -12571177.215 4  -9795694.897 3
  22954307.468   -13571282.602 3 -10574999.037 2
  25642803.359    -2686348.468 2  -2093256.073 1
  22664894.123     8642240.638 4   6734215.924 2
 91  7 23  3 48 15.0030000  0  5 03 23 21 11 17
  24863321.677    21615723.141 2  16843408.285 1
  21530043.564   -12554010.553 4  -9782318.270 3
  22949461.316   -13596768.724 3 -10594858.326 2
  25633913.607    -2733080.113 2  -2129670.330 1
  22671996.502     8679563.811 4   6763298.923 2
 91  7 23  3 48 30.0030000  0  5 03 23 21 11 17
  24876329.078    21684102.165 2  16896690.627 1
  21533331.988   -12536751.015 4  -9768869.264 3
  22944626.262   -13622177.072 3 -10614657.017 2
  25625022.965    -2779788.604 2  -2166066.499 1
  22679111.479     8716957.051 3   6792436.516 2
 91  7 23  3 48 45.0030000  0  5 03 23 21 11 17
  24889352.358    21752545.140 2  16950022.734 1
  21536633.299   -12519400.619 4  -9755349.464 3
  22939802.009   -13647509.623 3 -10634396.614 2
  25616139.513    -2826475.401 2  -2202445.755 1
  22686242.039     8754418.275 3   6821627.076 2
 91  7 23  3 49  0.0030000  0  5 03 23 21 11 17
  24902386.135    21821048.460 2  17003401.851 1
  21539952.304   -12501963.010 4  -9741761.723 3
  22934996.036   -13672769.810 3 -10654079.849 2
  25607264.760    -2873143.611 2  -2238810.606 1
  22693384.893     8791944.022 4   6850867.926 2
 91  7 23  3 49 15.0030000  0  5 03 23 21 11 17
  24915432.503    21889606.089 2  17056823.472 1
  21543282.696   -12484443.974 4  -9728110.507 3
  22930201.152   -13697963.237 3 -10673711.047 2
  25598383.707    -2919798.695 2  -2275165.227 1
  22700533.445     8829528.486 3   6880154.519 2
 91  7 23  3 49 30.0030000  0  5 03 23 21 11 17
  24928497.463    21958224.920 2  17110292.579 1
  21546638.277   -12466836.345 4  -9714390.263 3
  22925423.056   -13723082.548 3 -10693284.495 2
  25589506.249    -2966433.054 2  -2311503.542 1
  22707698.783     8867179.119 3   6909492.679 2
 91  7 23  3 49 45.0030000  0  5 03 23 21 11 17
  24941556.718    22026906.769 2  17163810.798 1
  21550002.548   -12449138.188 4  -9700599.488 3
  22920656.660   -13748125.593 3 -10712798.536 2
  25580640.492    -3013044.203 2  -2347823.932 1
  22714873.118     8904897.888 3   6938883.928 2
 91  7 23  3 50  0.0030000  0  5 03 23 21 11 17
  24954636.965    22095645.582 2  17217373.482 1
  21553387.803   -12431355.788 4  -9686743.066 3
  22915903.447   -13773098.232 3 -10732257.701 2
  25571770.834    -3059637.658 2  -2384130.486 1
  22722063.340     8942679.177 3   6968323.891 2
 91  7 23  3 50 15.0030000  0  5 03 23 21 11 17
  24967734.897    22164446.226 2  17270984.312 1
  21556786.547   -12413483.765 4  -9672816.801 3
  22911164.631   -13797995.049 3 -10751657.783 2
  25562908.069    -3106207.822 2  -2420418.814 1
  22729264.356     8980528.140 3   6997816.587 2
 91  7 23  3 50 30.0030000  0  5 03 23 21 11 17
  24980840.622    22233308.726 2  17324643.300 1
  21560205.978   -12395522.023 4  -9658820.630 3
  22906440.500   -13822815.889 3 -10770998.672 2
  25554047.704    -3152754.223 2  -2456688.737 1
  22736483.659     9018444.910 3   7027362.127 2
 91  7 23  3 50 45.0030000  0  5 03 23 21 11 17
  24993953.544    22302230.251 2  17378348.424 1
  21563641.001   -12377472.985 4  -9644756.436 3
  22901735.258   -13847562.858 3 -10790281.980 2
  25545198.131    -3199278.692 2  -2492941.470 1
  22743713.459     9056427.047 3   7056958.600 2
 91  7 23  3 51  0.0030000  0  5 03 23 21 11 17
  25007079.057    22371212.200 2  17432100.449 1
  21567091.912   -12359335.450 4  -9630623.278 3
  22897038.706   -13872234.375 3 -10809506.495 2
  25536344.955    -3245779.549 2  -2529175.918 1
  22750954.043     9094476.217 4   7086607.303 2
 91  7 23  3 51 15.0030000  0  5 03 23 21 11 17
  25020218.661    22440250.752 2  17485896.685 1
  21570559.009   -12341113.055 4  -9616424.002 3
  22892358.951   -13896833.943 3 -10828674.965 2
  25527502.877    -3292259.877 2  -2565394.289 1
  22758205.123     9132588.592 3   7116305.262 2
 91  7 23  3 51 30.0030000  0  5 03 23 21 11 17
  25033360.961    22509350.415 2  17539740.539 1
  21574045.301   -12322800.799 4  -9602154.711 3
  22887691.183   -13921356.518 3 -10847783.434 2
  25518662.300    -3338714.285 2  -2601592.459 1
  22765472.092     9170769.683 3   7146056.746 2
 91  7 23  3 51 45.0030000  0  5 03 23 21 11 17
  25046532.944    22578509.662 2  17593630.822 1
  21577546.277   -12304400.103 4  -9587816.502 3
  22883038.702   -13945803.397 3 -10866832.920 2
  25509829.812    -3385143.731 2  -2637771.209 1
  22772750.752     9209017.952 3   7175860.598 2
 91  7 23  3 52  0.0030000  0  5 03 23 21 11 17
  25059700.433    22647726.470 2  17647566.005 1
  21581064.040   -12285913.012 4  -9573410.968 3
  22878402.711   -13970176.208 3 -10885824.676 2
  25500999.129    -3431549.650 2  -2673931.591 1
  22780043.207     9247331.687 3   7205715.453 2
 91  7 23  3 52 15.0030000  0  5 03 23 21 11 17
  25072878.104    22716998.858 2  17701544.386
  21584597.098   -12267341.074 4  -9558939.323 3
  22873779.311   -13994476.447 3 -10904759.888 2
  25492173.838    -3477933.357 2  -2710074.697 1
  22787346.149     9285709.056 3   7235619.894 2
 91  7 23  3 52 30.0030000  0  5 03 23 21 11 17
  25086075.870    22786324.257 2  17755564.187 1
  21588148.139   -12248686.924 4  -9544403.623 3
  22869165.805   -14018706.362 3 -10923640.310 2
  25483347.946    -3524296.818 2  -2746202.030 1
  22794658.087     9324147.897 3   7265572.240 2
 91  7 23  3 52 45.0030000  0  5 03 23 21 11 17
  25099276.933    22855702.472 2  17809625.054 1
  21591713.864   -12229950.604 4  -9529803.884 3
  22864569.985   -14042865.750 3 -10942465.770 2
  25474534.949    -3570639.464 2  -2782313.111 1
  22801983.514     9362648.262 3   7295572.521 2
 91  7 23  3 53  0.0030000  0  5 03 23 21 11 17
  25112487.883    22925134.386 2  17863727.825 1
  21595292.790   -12211131.041 4  -9515139.282 3
  22859983.762   -14066953.326 3 -10961235.283 2
  25465722.545    -3616959.780 2  -2818406.806 1
  22809323.032     9401211.296 3   7325621.633 2
 91  7 23  3 53 15.0030000  0  5 03 23 21 11 17
  25125709.930    22994624.751 2  17917876.081 1
  21598892.997   -12192223.235 4  -9500405.931 3
  22855416.421   -14090963.979 3 -10979944.838 2
  25456910.447    -3663252.320 2  -2854478.846 1
  22816670.647     9439842.231 3   7355723.668 2
 91  7 23  3 53 30.0030000  0  5 03 23 21 11 17
  25138953.869    23064167.522 2  17972065.195 1
  21602505.794   -12173232.973 4  -9485608.318 3
  22850860.474   -14114903.320 3 -10998598.828 2
  25448100.748    -3709522.471 2  -2890533.453 1
  22824035.947     9478535.414 3   7385874.196 2
 91  7 23  3 53 45.0030000  0  5 03 23 21 11 17
  25152200.495    23133771.014 2  18026301.609 1
  21606137.185   -12154152.015 4  -9470740.027 3
  22846321.324   -14138762.902 3 -11017190.689 2
  25439307.837    -3755761.276 2  -2926563.649 1
  22831411.142     9517299.153 3   7416079.695 2
 91  7 23  3 54  0.0030000  0  5 03 23 21 11 17
  25165447.121    23203426.252 2  18080578.288 1
  21609785.057   -12134989.012 4  -9455807.811 3
  22841792.059   -14162551.134 3 -11035726.952 2
  25430507.727    -3801976.949 2  -2962575.841 1
  22838801.624     9556125.012 3   7446333.607 2
 91  7 23  3 54 15.0030000  0  5 03 23 21 11 17
  25178716.833    23273140.479 2  18134901.075 1
  21613447.020   -12115736.818 4  -9440806.103 3
  22837282.582   -14186260.509 3 -11054201.748 2
  25421716.909    -3848161.653 2  -2998563.862 1
  22846201.100     9595020.291 3   7476641.620 2
 91  7 23  3 54 30.0030000  0  5 03 23 21 11 17
  25191995.542    23342913.227 2  18189269.473 1
  21617126.075   -12096395.467 4  -9425734.917 3
  22832783.593   -14209891.012 3 -11072615.099 2
  25412931.798    -3894315.259 2  -3034527.615 1
  22853615.270     9633985.000 3   7507003.727 2
 91  7 23  3 54 45.0030000  0  5 03 23 21 11 17
  25205279.346    23412737.477 2  18243677.844 1
  21620822.520   -12076971.639 4  -9410599.459 3
  22828302.892   -14233449.171 3 -11090972.078 2
  25404159.564    -3940443.994 2  -3070472.075 1
  22861049.526     9673012.576 3   7537414.822 2
 91  7 23  3 55  0.0030000  0  5 03 23 21 11 17
  25218576.647    23482614.851 2  18298127.719 1
  21624536.947   -12057463.780 4  -9395398.524 3
  22823831.788   -14256933.138 3 -11109271.255 2
  25395386.441    -3986545.623 2  -3106395.355 1
  22868479.881     9712104.647 3   7567876.162 2
 91  7 23  3 55 15.0030000  0  5 03 23 21 11 17
  25231888.328    23552544.857 2  18352618.610 1
  21628262.769   -12037872.231 4  -9380132.381 3
  22819377.777   -14280343.129 3 -11127512.779 2
  25386616.913    -4032619.993 2  -3142297.451 1
  22875934.518     9751260.969 3   7598387.579 2
 91  7 23  3 55 30.0030000  0  5 03 23 21 11 17
  25245196.413    23622524.484 2  18407148.132 1
  21632005.073   -12018199.874 4  -9364803.264 3
  22814934.551   -14303681.725 3 -11145698.666 2
  25377847.384    -4078669.422 2  -3178180.090 1
  22883397.854     9790479.018 3   7628947.093 2
 91  7 23  3 55 45.0030000  0  5 03 23 21 11 17
  25258525.788    23692556.643 2  18461718.558 1
  21635767.471   -11998443.622 4  -9349408.773 3
  22810510.816   -14326945.713 3 -11163826.422 2
  25369088.047    -4124690.502 2  -3214040.618 1
  22890873.475     9829761.975 3   7659557.191 2
 91  7 23  3 56  0.0030000  0  5 03 23 21 11 17
  25271853.357    23762647.529 2  18516334.789 1
  21639541.561   -11978597.048 4  -9333943.913 3
  22806099.366   -14350128.434 3 -11181890.852 2
  25360351.491    -4170676.275 2  -3249873.671 1
  22898360.796     9869116.350 3   7690222.932 2
 91  7 23  3 56 15.0030000  0  5 03 23 21 11 17
  25285208.218    23832791.336 2  18570992.319 1
  21643337.227   -11958665.833 4  -9318413.091 3
  22801699.913   -14373235.261 3 -11199896.150 2
  25351602.353    -4216631.772 2  -3285683.079 1
  22905864.302     9908536.614 3   7720940.018 2
 91  7 23  3 56 30.0030000  0  5 03 23 21 11 17
  25298568.166    23902980.698 2  18625685.233 1
  21647142.195   -11938657.053 4  -9302821.832 3
  22797318.146   -14396273.202 3 -11217847.755 2
  25342864.601    -4262563.681 2  -3321474.171 1
  22913378.000     9948015.554 3   7751702.836 2
 91  7 23  3 56 45.0030000  0  5 03 23 21 11 17
  25311938.313    23973221.631 2  18680418.403 1
  21650967.248   -11918564.465 4  -9287165.268 3
  22792948.070   -14419235.878 3 -11235740.729 2
  25334124.154    -4308465.234 2  -3357241.582 1
  22920903.389     9987559.886 3   7782516.595 2
 91  7 23  3 57  0.0030000  0  5 03 23 21 11 17
  25325306.358    24043516.199 2  18735193.265 1
  21654807.587   -11898385.905 4  -9271441.715 3
  22788589.983   -14442120.936 3 -11253573.225 2
  25325398.993    -4354333.859 2  -3392983.343 1
  22928440.172    10027171.661 3   7813382.919 2
 91  7 23  3 57 15.0030000  0  5 03 23 21 11 17
  25338698.685    24113851.248 2  18789999.766 1
  21658660.822   -11878134.321 4  -9255661.256 3
  22784247.496   -14464940.985 3 -11271355.041 2
  25316673.535    -4400181.823 2  -3428709.002 1
  22935987.444    10066838.101 3   7844291.831 2
 91  7 23  3 57 30.0030000  0  5 03 23 21 11 17
  25352088.019    24184234.266 2  18844843.590 1
  21662530.242   -11857802.379 4  -9239818.176 3
  22779919.991   -14487688.445 3 -11289080.304 2
  25307949.272    -4446001.311 2  -3464412.436 1
  22943544.619    10106566.975 3   7875249.372 2
 91  7 23  3 57 45.0030000  0  5 03 23 21 11 17
  25365491.732    24254664.040 2  18899723.873 1
  21666414.355   -11837390.765 4  -9223913.021 3
  22775607.771   -14510363.837 3 -11306749.421 2
  25299237.007    -4491792.532 2  -3500093.895 1
  22951114.671    10146357.490 3   7906254.971 2
 91  7 23  3 58  0.0030000  0  5 03 23 21 11 17
  25378903.550    24325146.508 2  18954645.259 1
  21670314.356   -11816893.653 4  -9207941.241 3
  22771306.048   -14532961.098 3 -11324357.664 2
  25290534.627    -4537549.084 2  -3535748.315 1
  22958703.919    10186215.528 3   7937313.190 2
 91  7 23  3 58 15.0030000  0  5 03 23 21 11 17
  25392319.565    24395676.845 2  19009603.891 1
  21674229.339   -11796315.556 4  -9191906.362 3
  22767020.519   -14555484.643 3 -11341908.464 2
  25281827.457    -4583275.028 2  -3571378.898 1
  22966301.561    10226136.994 3   7968420.829 2
 91  7 23  3 58 30.0030000  0  5 03 23 21 11 17
  25405756.861    24466254.393 2  19064599.442 1
  21678160.821   -11775657.055 4  -9175808.814 3
  22762747.877   -14577934.801 3 -11359402.083 2
  25273129.579    -4628970.359 2  -3606985.620 1
  22973907.893    10266121.343 3   7999577.454 2
 91  7 23  3 58 45.0030000  0  5 03 23 21 11 17
  25419197.752    24536881.104 2  19119633.060 1
  21682108.784   -11754915.794 4  -9159646.793 3
  22758491.725   -14600309.089 3 -11376836.576 2
  25264449.683    -4674632.282 2  -3642566.285 1
  22981531.919    10306170.767 3   8030784.796 2
 91  7 23  3 59  0.0030000  0  5 03 23 21 11 17
  25432642.848    24607562.705 2  19174709.632 1
  21686071.746   -11734085.955 4  -9143415.745 3
  22754246.367   -14622601.485 3 -11394207.251 2
  25255767.092    -4720254.667 2  -3678116.140 1
  22989165.831    10346291.356 3   8062047.594 2
 91  7 23  3 59 15.0030000  0  5 03 23 21 11 17
  25446111.022    24678296.116 2  19229826.523 1
  21690053.886   -11713170.441 4  -9127117.932 3
  22750020.788   -14644814.715 3 -11411516.247 2
  25247092.301    -4765839.613 2  -3713636.860 1
  22996817.132    10386480.413 3   8093363.728 2
 91  7 23  3 59 30.0030000  0  5 03 23 21 11 17
  25459576.500    24749078.424 2  19284981.488 1
  21694047.726   -11692172.272 4  -9110755.717 3
  22745808.401   -14666951.510 3 -11428765.660 2
  25238426.497    -4811389.676 2  -3749130.340 1
  23004472.036    10426735.181 3   8124731.054 2
 91  7 23  3 59 45.0030000  0  5 03 23 21 11 17
  25473052.771    24819909.760 2  19340174.645 1
  21698058.650   -11671090.827 4  -9094328.622 3
  22741614.006   -14689011.053 3 -11445954.889 2
  25229760.099    -4856903.669 2  -3784595.774 1
  23012145.220    10467056.343 3   8156150.170 2
 91  7 23  4  0  0.0030000  0  5 03 23 21 11 17
  25486544.930    24890787.200 2  19395403.790 1
  21702086.954   -11649928.998 4  -9077838.883 3
  22737426.808   -14710996.107 3 -11463086.079 2
  25221106.588    -4902384.119 2  -3820035.072 1
  23019831.901    10507440.938 3   8187618.674 2
 91  7 23  4  0 15.0030000  0  5 03 23 21 11 17
  25500042.185    24961709.974 2  19450668.293 1
  21706128.756   -11628687.244 4  -9061286.866 3
  22733258.196   -14732906.981 3 -11480159.459 2
  25212459.979    -4947831.087 2  -3855448.242 1
  23027527.578    10547888.575 3   8219136.315 2
 91  7 23  4  0 30.0030000  0  5 03 23 21 11 17
  25513539.745    25032669.761 2  19505961.533 1
  21710185.548   -11607373.711 4  -9044678.920 3
  22729099.172   -14754751.475 3 -11497181.111 2
  25203811.267    -4993252.133 2  -3890841.234 1
  23035235.235    10588391.399 3   8250696.942 2
 91  7 23  4  0 45.0030000  0  5 03 23 21 11 17
  25527048.692    25103674.415 2  19561289.829 1
  21714257.329   -11585980.657 4  -9028009.001 3
  22724958.139   -14776521.616 3 -11514144.833 2
  25195176.341    -5038638.897 2  -3926207.510 1
  23042953.693    10628957.486 3   8282306.893 2
 91  7 23  4  1  0.0030000  0  5 03 23 21 11 17
  25540573.832    25174729.766 2  19616657.575 1
  21718343.804   -11564502.010 4  -9011272.383 3
  22720828.196   -14798211.173 3 -11531045.765 2
  25186549.817    -5083984.763 2  -3961541.894 1
  23050690.142    10669592.988 3   8313970.911 2
 91  7 23  4  1 15.0030000  0  5 03 23 21 11 17
  25554106.764    25245826.502 2  19672057.522 1
  21722447.065   -11542946.806 4  -8994476.116 3
  22716718.940   -14819829.011 3 -11547890.809 2
  25177928.084    -5129298.225 2  -3996851.069 1
  23058430.779    10710288.970 3   8345682.062 2
 91  7 23  4  1 30.0030000  0  5 03 23 21 11 17
  25567640.891    25316968.488 2  19727492.858 1
  21726559.916   -11521310.936 4  -8977617.007 3
  22712616.586   -14841370.786 3 -11564676.573 2
  25169309.351    -5174574.634 2  -4032131.320 1
  23066186.110    10751049.626 3   8377443.614 2
 91  7 23  4  1 45.0040000  0  5 03 23 21 11 17
  25581185.518    25388156.692 2  19782964.162 1
  21730692.855   -11499596.581 4  -8960696.723 3
  22708532.811   -14862841.484 3 -11581406.962 2
  25160702.305    -5219820.115 2  -4067387.523 1
  23073953.737    10791874.174 3   8409254.944 2
 91  7 23  4  2  0.0040000  0  5 03 23 21 11 17
  25594740.629    25459381.936 2  19838464.306 1
  21734840.780   -11477806.318 4  -8943717.290 3
  22704460.733   -14884237.701 3 -11598079.314 2
  25152100.665    -5265027.858 2  -4102614.303 1
  23081736.944    10832757.431 3   8441112.028 2
 91  7 23  4  2 15.0040000  0  5 03 23 21 11 17
  25608304.142    25530648.080 2  19893996.235 1
  21739001.898   -11455939.428 4  -8926678.155 3
  22700402.440   -14905561.143 3 -11614694.961 2
  25143507.114    -5310200.905 2  -4137813.991 1
  23089525.858    10873701.897 3   8473016.794 2
 91  7 23  4  2 30.0040000  0  5 03 23 21 11 17
  25621874.845    25601956.899 2  19949561.631 1
  21743179.210   -11433993.764 4  -8909577.634 3
  22696358.239   -14926809.758 3 -11631252.286 2
  25134919.259    -5355336.881 2  -4172984.855 1
  23097327.056    10914709.539 3   8504970.803 2
 91  7 23  4  2 45.0040000  0  5 03 23 21 11 17
  25635456.044    25673313.962 2  20005164.435 1
  21747369.408   -11411963.539 4  -8892411.223 3
  22692333.521   -14947977.615 3 -11647746.700 2
  25126332.906    -5400429.590 2  -4208122.002 1
  23105150.137    10955786.181 3   8536978.582 2
 91  7 23  4  3  0.0040000  0  5 03 23 21 11 17
  25649040.838    25744713.101 2  20060800.114 1
  21751577.293   -11389854.676 4  -8875183.536 3
  22688315.102   -14969070.377 3 -11664182.602 2
  25117762.432    -5445484.345 2  -4243229.542 1
  23112974.117    10996926.148 3   8569035.677 2
 91  7 23  4  3 15.0040000  0  5 03 23 21 11 17
  25662631.032    25816155.545 2  20116469.415 1
  21755798.972   -11367666.024 4  -8857893.678 3
  22684317.371   -14990086.565 3 -11680558.824 2
  25109193.468    -5490499.193 2  -4278305.999 1
  23120816.393    11038130.841 3   8601143.235 2
 91  7 23  4  3 30.0040000  0  5 03 23 21 11 17
  25676231.418    25887639.845 2  20172171.414 1
  21760034.741   -11345398.846 4  -8840542.625 3
  22680332.832   -15011027.433 3 -11696876.346 2
  25100634.991    -5535475.073 2  -4313352.114 1
  23128672.752    11079398.948 3   8633300.192 2
 91  7 23  4  3 45.0040000  0  5 03 23 21 11 17
  25689849.489    25959161.515 2  20227902.434 1
  21764287.900   -11323057.489 4  -8823133.772 3
  22676361.179   -15031896.971 3 -11713138.294 2
  25092083.416    -5580415.607 2  -4348370.673 1
  23136534.808    11120726.473 3   8665503.450 2
 91  7 23  4  4  0.0040000  0  5 03 23 21 11 17
  25703466.357    26030723.431 2  20283664.952 1
  21768554.845   -11300638.774 4  -8805664.642 3
  22672403.322   -15052691.887 3 -11729342.114 2
  25083536.631    -5625317.320 2  -4383358.987 1
  23144410.056    11162116.511 3   8697755.419 2
 91  7 23  4  4 15.0040000  0  5 03 23 21 11 17
  25717090.126    26102323.366 2  20339457.090 1
  21772836.178   -11278144.751 4  -8788136.829 3
  22668458.656   -15073414.031 3 -11745489.217 2
  25074995.840    -5670181.544 2  -4418318.062 1
  23152299.997    11203567.328 3   8730054.767 2
 91  7 23  4  4 30.0040000  0  5 03 23 21 11 17
  25730722.288    26173964.207 2  20395281.030 1
  21777133.102   -11255572.518 4  -8770548.070 3
  22664531.973   -15094060.096 4 -11761577.042 2
  25066467.945    -5715004.921 2  -4453245.319 1
  23160200.723    11245081.741 3   8762403.653 2
 91  7 23  4  4 45.0040000  0  5 03 23 21 11 17
  25744373.044    26245646.333 2  20451137.168 1
  21781442.023   -11232921.348 4  -8752897.809 3
  22660615.482   -15114629.352 3 -11777605.014 2
  25057947.841    -5759786.187 2  -4488139.769 1
  23168111.046    11286660.812 3   8794802.925 2
 91  7 23  4  5  0.0040000  0  5 03 23 21 11 17
  25758015.100    26317367.601 2  20507023.749 1
  21785765.332   -11210193.164 4  -8735187.532 3
  22656718.778   -15135123.753 4 -11793574.652 2
  25049436.436    -5804526.798 2  -4523002.520 1
  23176034.562    11328302.474 3   8827250.981 2
 91  7 23  4  5 15.0040000  0  4 23 21 11 17
  21790106.021   -11187387.821 4  -8717417.133 3
  22652832.274   -15155542.650 4 -11809485.459 2
  25040929.228    -5849225.937 2  -4557832.991 1
  23183971.270    11370007.261 3   8859748.204 2
 91  7 23  4  5 30.0040000  0  4 23 21 11 17
  21794460.505   -11164510.135 4  -8699590.369 3
  22648960.455   -15175890.551 4 -11825340.942 2
  25032434.610    -5893888.006 2  -4592634.581 1
  23191920.568    11411770.285 3   8892290.825 2
 91  7 23  4  5 45.0040000  0  4 23 21 11 17
  21798824.892   -11141564.514 4  -8681710.655 3
  22645101.226   -15196172.046 4 -11841144.691 2
  25023933.990    -5938516.931 2  -4627410.272 1
  23199874.360    11453587.574 3   8924875.688 2
 91  7 23  4  6  0.0040000  0  4 23 21 11 17
  21803203.954   -11118541.939 4  -8663770.984 3
  22641256.681   -15216377.791 4 -11856889.403 2
  25015448.368    -5983103.046 2  -4662152.674 1
  23207846.440    11495468.182 3   8957509.954 2
 91  7 23  4  6 15.0040000  0  4 23 21 11 17
  21807598.913   -11095442.896 4  -8645771.731 3
  22637424.735   -15236507.872 4 -11872575.156 2
  25006975.327    -6027646.267 2  -4696861.620 1
  23215830.516    11537411.870 3   8990193.344 2
 91  7 23  4  6 30.0040000  0  4 23 21 11 17
  21812010.957   -11072262.809 4  -8627709.322 3
  22633607.780   -15256557.789 4 -11888198.452 2
  24998510.096    -6072141.704 2  -4731533.328 1
  23223822.978    11579422.879 3   9022929.187 2
 91  7 23  4  6 45.0040000  0  4 23 21 11 17
  21816441.288   -11049004.299 4  -8609585.801 3
  22629808.509   -15276530.030 4 -11903761.227 2
  24990048.154    -6116591.515 2  -4766169.512 1
  23231827.742    11621498.844 3   9055715.650 2
 91  7 23  4  7  0.0040000  0  4 23 21 11 17
  21820879.122   -11025664.528 4  -8591398.974 3
  22626021.228   -15296421.309 4 -11919260.910 2
  24981597.005    -6160992.193 2  -4800767.386 1
  23239848.691    11663643.138 3   9088555.352 2
 91  7 23  4  7 15.0040000  0  4 23 21 11 17
  21825334.931   -11002239.535 4  -8573145.737 3
  22622256.736   -15316227.648 4 -11934694.407 2
  24973164.737    -6205339.201 2  -4835323.456 1
  23247886.427    11705859.447 3   9121451.171 2
 91  7 23  4  7 30.0040000  0  4 23 21 11 17
  21829810.240   -10978736.841 4  -8554831.940 3
  22618502.740   -15335956.207 4 -11950067.302 2
  24964734.877    -6249639.406 2  -4869843.040 1
  23255927.156    11748140.505 3   9154397.465 2
 91  7 23  4  7 45.0040000  0  4 23 21 11 17
  21834296.028   -10955164.724 4  -8536464.056 3
  22614759.232   -15355615.075 4 -11965385.885 2
  24956313.105    -6293900.572 2  -4904332.187 1
  23263984.680    11790478.295 3   9187387.927 2
 91  7 23  4  8  0.0040000  0  4 23 21 11 17
  21838793.821   -10931517.011 4  -8518037.265 3
  22611031.307   -15375197.859 4 -11980645.170 2
  24947894.029    -6338116.011 2  -4938785.748 1
  23272052.989    11832878.946 3   9220427.390 2
 91  7 23  4  8 15.0040000  0  4 23 21 11 17
  21843312.590   -10907790.444 4  -8499549.028 3
  22607319.882   -15394701.342 4 -11995842.674 2
  24939483.356    -6382282.145 2  -4973200.849 1
  23280133.897    11875345.732 3   9253518.389 2
 91  7 23  4  8 30.0040000  0  4 23 21 11 17
  21847840.956   -10883985.698 4  -8480999.871 3
  22603626.133   -15414125.917 4 -12010978.696 2
  24931099.660    -6426398.927 2  -5007577.519 1
  23288228.591    11917878.420 3   9286660.743 2
 91  7 23  4  8 45.0040000  0  4 23 21 11 17
  21852384.313   -10860108.551 4  -8462394.309 3
  22599941.685   -15433477.357 4 -12026057.706 2
  24922712.964    -6470471.919 2  -5041920.035 1
  23296335.281    11960471.043 3   9319849.801 2
 91  7 23  4  9  0.0040000  0  4 23 21 11 17
  21856942.056   -10836160.555 4  -8443733.533 3
  22596273.728   -15452756.794 4 -12041080.632 2
  24914331.964    -6514501.802 2  -5076228.993 1
  23304451.264    12003122.294 3   9353084.530 2
 91  7 23  4  9 15.0040000  0  4 23 21 11 17
  21861511.492   -10812141.160 4  -8425017.126 3
  22592618.056   -15471963.569 4 -12056046.931 2
  24905961.461    -6558487.618 2  -5110503.606 1
  23312578.938    12045832.687 3   9386365.365 2
 91  7 23  4  9 30.0040000  0  4 23 21 11 17
  21866095.018   -10788046.466 4  -8406242.033 3
  22588980.078   -15491093.502 4 -12070953.365 2
  24897595.452    -6602424.868 2  -5144740.390 1
  23320715.303    12088606.253 3   9419695.405 2
 91  7 23  4  9 45.0040000  0  4 23 21 11 17
  21870698.028   -10763878.084 4  -8387409.528 3
  22585354.987   -15510148.122 4 -12085801.106 2
  24889245.034    -6646314.689 2  -5178940.211 1
  23328864.564    12131441.727 3   9453073.696 2
 91  7 23  4 10  0.0040000  0  4 23 21 11 17
  21875310.042   -10739632.451 4  -8368516.828 3
  22581742.487   -15529123.727 4 -12100587.269 2
  24880905.706    -6690152.951 2  -5213099.833 1
  23337027.915    12174342.790 3   9486503.095 2
 91  7 23  4 10 15.0040000  0  4 23 21 11 17
  21879940.335   -10715308.641 4  -8349563.208 3
  22578146.773   -15548018.910 4 -12115310.769 2
  24872567.582    -6733938.081 2  -5247218.080 1
  23345206.850    12217310.502 3   9519984.426 2
 91  7 23  4 10 30.0040000  0  4 23 21 11 17
  21884580.523   -10690911.229 4  -8330552.233 3
  22574563.659   -15566838.325 4 -12129975.241 2
  24864252.535    -6777674.329 3  -5281298.225 1
  23353398.078    12260340.336 3   9553514.167 2
 91  7 23  4 10 45.0040000  0  4 23 21 11 17
  21889239.295   -10666444.399 4  -8311487.179 3
  22570997.323   -15585586.099 4 -12144583.880 2
  24855937.489    -6821365.377 3  -5315343.147 1
  23361597.403    12303428.133 3   9587089.077 2
 91  7 23  4 11  0.0040000  0  4 23 21 11 17
  21893909.165   -10641901.634 4  -8292362.941 3
  22567444.180   -15604255.273 4 -12159131.283 2
  24847632.643    -6865003.886 3  -5349347.137 1
  23369807.216    12346580.584 3   9620714.358 2
 91  7 23  4 11 15.0040000  0  4 23 21 11 17
  21898592.524   -10617286.193 4  -8273182.081 3
  22563909.027   -15622849.027 4 -12173619.903 2
  24839335.884    -6908592.625 3  -5383312.339 1
  23378033.824    12389794.673 3   9654387.674 2
 91  7 23  4 11 30.0040000  0  4 23 21 11 17
  21903291.763   -10592593.103 4  -8253940.715 3
  22560381.675   -15641362.264 4 -12188045.787 2
  24831058.915    -6952126.242 3  -5417234.593 1
  23386267.622    12433075.373 3   9688112.882 2
 91  7 23  4 11 45.0040000  0  4 23 21 11 17
  21908005.704   -10567823.177 4  -8234639.469 3
  22556875.604   -15659795.641 4 -12202409.438 2
  24822775.951    -6995605.063 2  -5451114.155 1
  23394513.112    12476421.899 3   9721889.415 2
 91  7 23  4 12  0.0040000  0  4 23 21 11 17
  21912732.531   -10542978.757 4  -8215280.176 3
  22553384.216   -15678151.031 4 -12216712.332 2
  24814520.863    -7039030.646 3  -5484952.215 1
  23402770.895    12519832.207 3   9755715.626 2
 91  7 23  4 12 15.0040000  0  4 23 21 11 17
  21917473.747   -10518061.381 4  -8195864.032 3
  22549905.725   -15696429.927 4 -12230955.614 2
  24806259.782    -7082403.970 3  -5518749.607 1
  23411049.671    12563305.010 3   9789590.529 2
 91  7 23  4 12 30.0040000  0  4 23 21 11 17
  21922228.757   -10493072.892 4  -8176392.485 3
  22546440.426   -15714634.032 4 -12245140.623 2
  24798016.090    -7125726.514 3  -5552507.366 1
  23419329.939    12606838.486 3   9823512.710 2
 91  7 23  4 12 45.0040000  0  4 23 21 11 17
  21926996.060   -10468007.253 4  -8156860.816 3
  22542989.811   -15732757.151 4 -12259262.516 2
  24789787.090    -7168991.617 3  -5586220.405 1
  23427625.790    12650438.630 3   9857486.844 2
 91  7 23  4 13  0.0040000  0  4 23 21 11 17
  21931783.144   -10442868.690 4  -8137272.319 3
  22539559.587   -15750803.438 4 -12273324.548 2
  24781562.279    -7212202.990 3  -5619891.544 1
  23435937.538    12694101.189 3   9891509.606 2
 91  7 23  4 13 15.0040000  0  4 23 21 11 17
  21936582.224   -10417659.591 4  -8117628.862 3
  22536138.053   -15768775.030 4 -12287328.385 2
  24773350.067    -7255362.395 3  -5653522.199 1
  23444262.478    12737824.155 3   9925579.432 2
 91  7 23  4 13 30.0040000  0  4 23 21 11 17
  21941389.096   -10392382.251 4  -8097932.231 3
  22532733.611   -15786673.985 4 -12301275.601 2
  24765142.645    -7298471.562 2  -5687113.746 1
  23452590.708    12781605.549 3   9959694.798 2
 91  7 23  4 13 45.0040000  0  4 23 21 11 17
  21946214.849   -10367029.795 4  -8078177.059 3
  22529342.057   -15804493.237 4 -12315160.722 2
  24756954.113    -7341523.198 2  -5720660.448 1
  23460930.638    12825452.174 3   9993861.000 2
 91  7 23  4 14  0.0040000  0  4 23 21 11 17
  21951053.498   -10341602.685 4  -8058363.729 3
  22525967.298   -15822233.187 4 -12328984.044 2
  24748775.475    -7384517.230 2  -5754162.250 1
  23469288.246    12869363.311 3  10028077.452 2
 91  7 23  4 14 15.0040000  0  4 23 21 11 17
  21955904.440   -10316107.190 4  -8038497.109 3
  22522603.324   -15839899.791 4 -12342750.208 2
  24740598.940    -7427459.316 2  -5787623.589 1
  23477654.857    12913333.046 3  10062339.582 2
 91  7 23  4 14 30.0040000  0  4 23 21 11 17
  21960770.974   -10290541.025 4  -8018575.420 3
  22519255.543   -15857490.528 4 -12356457.263 2
  24732439.192    -7470346.789 2  -5821042.355 1
  23486033.457    12957363.905 3  10096649.338 2
 91  7 23  4 14 45.0040000  0  4 23 21 11 17
  21965650.395   -10264904.252 4  -7998598.707 3
  22515922.150   -15875005.435 4 -12370105.236 2
  24724287.532    -7513179.060 2  -5854418.121 1
  23494423.749    13001455.892 3  10131006.704 2
 91  7 23  4 15  0.0040000  0  4 23 21 11 17
  21970540.609   -10239191.341 4  -7978562.664 3
  22512603.450   -15892438.724 4 -12383689.595 2
  24716155.661    -7555949.883 3  -5887746.002 1
  23502830.531    13045614.661 3  10165416.139 2
 91  7 23  4 15 15.0040000  0  4 23 21 11 17
  21975449.417   -10213405.365 4  -7958469.696 3
  22509304.233   -15909793.445 4 -12397212.744 2
  24708014.498    -7598662.030 2  -5921028.171 1
  23511243.909    13089837.121 3  10199875.193 1
 91  7 23  4 15 30.0040000  0  4 23 21 11 17
  21980369.907   -10187548.695 4  -7938321.630 3
  22506011.613   -15927071.637 4 -12410676.254 2
  24699904.212    -7641317.146 2  -5954265.896 1
  23519670.174    13134121.168 3  10234382.250 2
 91  7 23  4 15 45.0040000  0  4 23 21 11 17
  21985302.691   -10161620.299 4  -7918117.688 3
  22502741.180   -15944271.943 4 -12424079.076 2
  24691802.923    -7683913.625 3  -5987457.933 1
  23528107.529    13178468.097 3  10268938.284 2
 91  7 23  4 16  0.0040000  0  4 23 21 11 17
  21990250.465   -10135619.195 4  -7897857.083 3
  22499483.033   -15961393.271 4 -12437420.366 2
  24683705.524    -7726449.977 3  -6020603.093 1
  23536559.577    13222878.964 3  10303544.139 1
 91  7 23  4 16 15.0040000  0  4 23 21 11 17
  21995214.127   -10109548.071 4  -7877541.921 3
  22496237.781   -15978438.233 4 -12450702.141 2
  24675624.922    -7768928.391 3  -6053703.146 1
  23545022.418    13267351.264 3  10338197.878 2
 91  7 23  4 16 30.0040000  0  4 23 21 11 17
  22000185.292   -10083408.050 4  -7857173.058 3
  22493011.410   -15995407.905 4 -12463925.236 2
  24667550.008    -7811349.646 3  -6086758.625 1
  23553500.553    13311883.561 3  10372898.355 2
 91  7 23  4 16 45.0040000  0  4 23 21 11 17
  22005174.135   -10057198.960 4  -7836750.392 3
  22489794.942   -16012301.690 4 -12477089.225 2
  24659484.692    -7853712.784 3  -6119768.840 1
  23561982.275    13356476.348 3  10407645.977 1
 91  7 23  4 17  0.0040000  0  4 23 21 11 17
  22010172.575   -10030925.401 4  -7816277.487 3
  22486595.855   -16029124.123 4 -12490197.593 2
  24651441.564    -7896021.887 3  -6152736.920 1
  23570481.395    13401125.165 3  10442437.250 1
 91  7 23  4 17 15.0040000  0  4 23 21 11 17
  22015183.606   -10004584.383 4  -7795752.014 3
  22483409.358   -16045871.934 4 -12503247.821 2
  24643397.833    -7938273.387 3  -6185660.162 1
  23578991.901    13445833.126 3  10477274.619 2
 91  7 23  4 17 30.0040000  0  4 23 21 11 17
  22020209.923    -9978174.141 4  -7775172.598 3
  22480235.155   -16062543.219 4 -12516238.415 2
  24635362.497    -7980464.845 3  -6218536.601 1
  23587510.504    13490602.312 3  10512159.691 1
 91  7 23  4 17 45.0040000  0  4 23 21 11 17
  22025250.035    -9951695.585 4  -7754539.961 3
  22477076.246   -16079138.796 4 -12529170.020 2
  24627352.637    -8022596.804 3  -6251366.673 1
  23596039.298    13535431.841 3  10547091.780 2
 91  7 23  4 18  0.0040000  0  4 23 21 11 17
  22030303.042    -9925147.757 4  -7733853.343 3
  22473932.921   -16095657.750 4 -12542041.925 2
  24619341.888    -8064667.916 3  -6284149.316 1
  23604576.791    13580322.445 3  10582071.469 2
 91  7 23  4 18 15.0040000  0  4 23 21 11 17
  22035367.435    -9898528.556 4  -7713111.099 3
  22470804.289   -16112097.583 4 -12554852.175 2
  24611346.120    -8106675.281 3  -6316882.308 1
  23613135.268    13625276.421 3  10617100.540 1
 91  7 23  4 18 30.0040000  0  4 23 21 11 17
  22040444.114    -9871843.488 4  -7692317.531 3
  22467692.444   -16128463.662 4 -12567604.948 2
  24603372.836    -8148623.974 3  -6349569.557 1
  23621694.940    13670288.407 3  10652174.786 2
 91  7 23  4 18 45.0040000  0  4 23 21 11 17
  22045536.096    -9845095.075 4  -7671474.610 3
  22464588.391   -16144758.198 4 -12580301.967 2
  24595395.364    -8190515.888 3  -6382212.604 1
  23630276.503    13715356.150 3  10687292.502 2
 91  7 23  4 19  0.0040000  0  4 23 21 11 17
  22050637.659    -9818274.512 4  -7650575.465 3
  22461505.627   -16160972.215 4 -12592936.240 2
  24587437.070    -8232341.616 3  -6414804.044 1
  23638862.255    13760488.489 3  10722460.540 1
 91  7 23  4 19 15.0040000  0  4 23 21 11 17
  22055751.218    -9791397.141 4  -7629632.058 3
  22458434.249   -16177120.786 4 -12605519.539 2
  24579486.280    -8274116.006 3  -6447355.519 1
  23647464.497    13805670.255 3  10757667.104 1
 91  7 23  4 19 30.0040000  0  4 23 21 11 17
  22060880.369    -9764454.179 4  -7608637.532 3
  22455371.866   -16193195.245 4 -12618045.079 2
  24571551.971    -8315829.844 3  -6479859.771 1
  23656073.640    13850910.227 3  10792919.023 2
 91  7 23  4 19 45.0040000  0  4 23 21 11 17
  22066018.211    -9737446.832 4  -7587592.844 3
  22452327.178   -16209196.600 4 -12630513.646 2
  24563624.556    -8357483.541 3  -6512317.178 1
  23664690.278    13896207.295 3  10828215.424 1
 91  7 23  4 20  0.0040000  0  4 23 21 11 17
  22071171.949    -9710374.906 4  -7566497.826 3
  22449298.676   -16225124.382 4 -12642924.901 2
  24555700.447    -8399076.453 3  -6544727.214 1
  23673322.500    13941561.926 3  10863556.703 1
 91  7 23  4 20 15.0040000  0  4 23 21 11 17
  22076335.573    -9683240.331 4  -7545354.003 3
  22446278.567   -16240980.585 4 -12655280.359 2
  24547804.206    -8440610.199 3  -6577091.144 1
  23681962.818    13986972.018 3  10898941.179 2
 91  7 23  4 20 30.0040000  0  4 23 21 11 17
  22081510.889    -9656037.390 4  -7524156.906 3
  22443278.246   -16256759.127 4 -12667575.317 2
  24539912.170    -8482078.201 3  -6609403.831 1
  23690617.524    14032443.554 3  10934373.537 1
 91  7 23  4 20 45.0040000  0  4 23 21 11 17
  22086702.390    -9628766.135 4  -7502906.559 3
  22440289.015   -16272459.746 4 -12679809.549 2
  24532032.428    -8523479.916 3  -6641664.878 1
  23699277.631    14077976.942 3  10969854.083 2
 91  7 23  4 21  0.0040000  0  4 23 21 11 17
  22091902.590    -9601436.208 4  -7481610.515 3
  22437314.172   -16288091.990 4 -12691990.511 2
  24524168.575    -8564824.592 3  -6673881.494 1
  23707952.727    14123562.197 3  11005375.051 1
 91  7 23  4 21 15.0040000  0  4 23 21 11 17
  22097116.584    -9574035.417 4  -7460259.245 3
  22434354.623   -16303643.564 4 -12704108.606 2
  24516310.707    -8606099.567 3  -6706043.793 2
  23716639.812    14169211.500 3  11040945.942 1
 91  7 23  4 21 30.0040000  0  4 23 21 11 17
  22102341.371    -9546571.242 4  -7438858.590 3
  22431410.056   -16319121.731 4 -12716169.499 2
  24508468.440    -8647311.574 3  -6738156.994 1
  23725341.887    14214917.902 3  11076561.289 1
 91  7 23  4 21 45.0040000  0  4 23 21 11 17
  22107579.639    -9519043.965 4  -7417408.752 3
  22428476.291   -16334526.616 4 -12728173.285 2
  24500639.059    -8688460.309 3  -6770220.935 1
  23734050.854    14260681.275 3  11112221.069 2
 91  7 23  4 22  0.0040000  0  4 23 21 11 17
  22112830.505    -9491451.163 4  -7395907.868 3
  22425561.110   -16349855.831 4 -12740118.121 2
  24492823.473    -8729542.992 3  -6802233.381 1
  23742769.419    14306503.738 3  11147926.884 2
 91  7 23  4 22 15.0040000  0  4 23 21 11 17
  22118096.361    -9463786.638 4  -7374351.091 3
  22422658.816   -16365102.948 4 -12751998.989 2
  24485013.576    -8770552.894 3  -6834189.135 1
  23751499.379    14352391.756 3  11183683.764 1
 91  7 23  4 22 30.0040000  0  4 23 21 11 17
  22123370.908    -9436062.006 4  -7352747.475 3
  22419769.714   -16380279.417 4 -12763824.788 2
  24477223.170    -8811501.032 3  -6866096.756 1
  23760242.226    14398333.761 3  11219482.708 2
 91  7 23  4 22 45.0040000  0  4 23 21 11 17
  22128660.749    -9408265.839 4  -7331088.122 3
  22416900.706   -16395373.762 4 -12775586.594 2
  24469445.059    -8852375.453 3  -6897946.906 1
  23768998.868    14444341.136 3  11255332.593 1
 91  7 23  4 23  0.0040000  0  4 23 21 11 17
  22133961.078    -9380405.456 4  -7309378.725 3
  22414040.685   -16410392.953 4 -12787289.845 2
  24461681.631    -8893182.891 3  -6929744.873 1
  23777764.496    14490406.772 3  11291227.895 2
 91  7 23  4 23 15.0040000  0  4 23 21 11 17
  22139276.999    -9352481.929 4  -7287620.132 3
  22411198.952   -16425338.001 4 -12798935.332 2
  24453928.098    -8933923.844 3  -6961491.039 1
  23786536.424    14536529.790 3  11327167.910 2
 91  7 23  4 23 30.0040000  0  4 23 21 11 17
  22144598.618    -9324487.165 4  -7265806.019 3
  22408369.810   -16440200.523 4 -12810516.507 2
  24446195.854    -8974589.620 3  -6993178.625 1
  23795328.437    14582718.465 3  11363159.072 1
 91  7 23  4 23 45.0040000  0  4 23 21 11 17
  22149944.213    -9296429.715 4  -7243943.067 3
  22405554.758   -16454988.909 4 -12822039.904 2
  24438466.603    -9015188.211 3  -7024813.888 1
  23804128.241    14628964.324 3  11399194.793 2
 91  7 23  4 24  0.0040000  0  4 23 21 11 17
  22155293.708    -9268304.858 4  -7222027.590 3
  22402755.595   -16469698.238 4 -12833501.705 2
  24430748.747    -9055714.309 3  -7056392.614 1
  23812940.645    14675272.291 3  11435278.931 1
 91  7 23  4 24 15.0040000  0  4 23 21 11 17
  22160656.997    -9240117.881 4  -7200063.713 3
  22399969.022   -16484333.465 4 -12844905.772 2
  24423058.166    -9096172.511 3  -7087918.458 1
  23821769.530    14721637.223 3  11471407.445 2
 91  7 23  4 24 30.0040000  0  4 23 21 11 17
  22166033.174    -9211868.488 4  -7178051.195 3
  22397199.838   -16498894.317 4 -12856251.877 2
  24415370.891    -9136562.174 3  -7119390.869 1
  23830601.714    14768059.282 3  11507580.467 1
 91  7 23  4 24 45.0040000  0  4 23 21 11 17
  22171422.839    -9183551.917 4  -7155986.334 3
  22394440.548   -16513375.902 4 -12867536.217 2
  24407694.706    -9176878.045 3  -7150805.819 1
  23839440.502    14814543.510 3  11543801.924 2
 91  7 23  4 25  0.0040000  0  4 23 21 11 17
  22176823.603    -9155172.623 4  -7133872.600 3
  22391700.751   -16527782.621 4 -12878762.227 2
  24400032.612    -9217124.050 3  -7182166.314 1
  23848297.569    14861085.196 3  11580068.157 2
 91  7 23  4 25 15.0040000  0  4 23 21 11 17
  22182234.855    -9126729.350 4  -7111708.997 3
  22388975.035   -16542112.916 4 -12889928.674 2
  24392388.204    -9257298.209 3  -7213470.820 1
  23857169.024    14907685.723 3  11616380.264 1
 91  7 23  4 25 30.0040000  0  4 23 21 11 17
  22187661.105    -9098221.955 4  -7089495.450 3
  22386262.216   -16556366.572 4 -12901035.400 2
  24384758.785    -9297399.911 3  -7244718.875 1
  23866048.576    14954345.349 3  11652738.398 2
 91  7 23  4 25 45.0040000  0  4 23 21 11 17
  22193096.935    -9069654.664 4  -7067235.219 3
  22383565.878   -16570547.644 4 -12912085.579 2
  24377137.159    -9337432.699 3  -7275913.223 1
  23874936.827    15001060.296 3  11689139.641 2
 91  7 23  4 26  0.0040000  0  4 23 21 11 17
  22198543.270    -9041027.499 4  -7044928.327 3
  22380879.138   -16584656.028 4 -12923079.112 2
  24369539.517    -9377396.173 3  -7307053.577 2
  23883840.661    15047830.433 3  11725583.891 2
 91  7 23  4 26 15.0040000  0  4 23 21 11 17
  22204004.289    -9012339.318 4  -7022573.901 3
  22378208.888   -16598690.437 4 -12934015.015 2
  24361950.574    -9417288.644 3  -7338138.593 1
  23892749.294    15094656.993 3  11762072.100 1
 91  7 23  4 26 30.0040000  0  4 23 21 11 17
  22209475.203    -8983588.610 4  -7000170.748 3
  22375553.628   -16612649.010 4 -12944891.822 2
  24354373.018    -9457108.030 3  -7369166.653 1
  23901668.720    15141541.543 3  11798605.518 1
 91  7 23  4 26 45.0040000  0  4 23 21 11 17
  22214958.105    -8954771.724 4  -6977716.028 3
  22372913.052   -16626527.977 4 -12955706.588 2
  24346802.660    -9496849.981 3  -7400134.384 2
  23910607.629    15188488.301 2  11835187.399 2
 91  7 23  4 27  0.0040000  0  4 23 21 11 17
  22220454.199    -8925894.576 4  -6955214.345 3
  22370286.873   -16640333.000 4 -12966463.744 2
  24339257.186    -9536519.816 3  -7431045.896 1
  23919542.044    15235491.145 2  11871812.977 1
 91  7 23  4 27 15.0040000  0  4 23 21 11 17
  22225960.485    -8896950.318 4  -6932660.376 3
  22367672.080   -16654057.439 4 -12977158.098 2
  24331721.597    -9576110.405 3  -7461895.694 2
  23928501.344    15282556.555 3  11908487.314 1
 91  7 23  4 27 30.0040000  0  4 23 21 11 17
  22231478.767    -8867947.955 4  -6910061.133 3
  22365074.685   -16667709.953 4 -12987796.401 2
  24324205.806    -9615630.117 3  -7492690.275 1
  23937475.031    15329675.910 3  11945203.682 2
 91  7 23  4 27 45.0040000  0  4 23 21 11 17
  22237009.038    -8838885.710 4  -6887415.215 3
  22362493.170   -16681288.479 4 -12998377.063 2
  24316700.502    -9655076.459 3  -7523427.651 1
  23946449.617    15376851.285 3  11981963.702 1
 91  7 23  4 28  0.0040000  0  4 23 21 11 17
  22242553.103    -8809760.905 4  -6864720.563 3
  22359921.845   -16694790.217 4 -13008897.886 2
  24309204.185    -9694446.326 3  -7554105.446 1
  23955433.801    15424085.433 3  12018769.531 1
 91  7 23  4 28 15.0040000  0  4 23 21 11 17
  22248106.757    -8780574.331 4  -6841977.770 3
  22357370.911   -16708215.990 4 -13019359.520 2
  24301722.867    -9733740.133 3  -7584723.978 2
  23964436.569    15471377.533 3  12055620.502 1
 91  7 23  4 28 30.0040000  0  4 23 21 11 17
  22253671.806    -8751318.974 4  -6819181.383 3
  22354827.472   -16721558.711 4 -13029756.421 2
  24294264.033    -9772950.253 3  -7615277.300 1
  23973454.920    15518734.488 3  12092522.032 1
 91  7 23  4 28 45.0040000  0  4 23 21 11 17
  22259250.344    -8722006.689 4  -6796340.632 3
  22352301.126   -16734829.933 4 -13040097.623 2
  24286824.080    -9812087.851 3  -7645774.092 1
  23982469.685    15566144.941 3  12129465.228 1
 91  7 23  4 29  0.0040000  0  4 23 21 11 17
  22264842.074    -8692627.296 4  -6773447.603 3
  22349795.161   -16748019.151 4 -13050374.921 2
  24279386.832    -9851142.219 3  -7676206.042 1
  23991500.033    15613619.162 3  12166458.124 1
 91  7 23  4 29 15.0040000  0  4 23 21 11 17
  22270447.293    -8663186.535 4  -6750506.744 3
  22347299.684   -16761132.150 4 -13060592.827 2
  24271967.270    -9890118.567 3  -7706577.194 1
  24000550.161    15661151.060 3  12203495.952 1
 91  7 23  4 29 30.0040000  0  4 23 21 11 17
  22276058.507    -8633691.206 4  -6727523.362 3
  22344813.211   -16774175.478 4 -13070756.446 2
  24264567.191    -9929023.097 3  -7736892.382 1
  24009603.595    15708734.086 3  12240573.623 1
 91  7 23  4 29 45.0040000  0  4 23 21 11 17
  22281680.513    -8604136.985 4  -6704494.101 3
  22342347.713   -16787144.470 4 -13080862.146 2
  24257177.303    -9967850.688 3  -7767147.629 1
  24018673.817    15756372.965 3  12277694.805 1
 91  7 23  4 30  0.0040000  0  4 23 21 11 17
  22287318.111    -8574524.202 4  -6681419.195 3
  22339894.509   -16800039.457 4 -13090910.171 2
  24249806.907   -10006601.234 3  -7797342.827 1
  24027747.939    15804067.315 3  12314859.221 1
 91  7 23  4 30 15.0040000  0  4 23 21 11 17
  22292964.705    -8544850.012 4  -6658296.448 3
  22337451.505   -16812857.540 4 -13100898.282 2
  24242447.304   -10045271.468 3  -7827475.462 1
  24036833.744    15851820.062 3  12352069.145 1
 91  7 23  4 30 30.0040000  0  4 23 21 11 17
  22298622.389    -8515116.576 4  -6635127.537 3
  22335027.984   -16825600.949 4 -13110828.199 2
  24235106.285   -10083863.240 3  -7857546.927 1
  24045928.850    15899628.908 3  12389322.775 2
 91  7 23  4 30 45.0040000  0  4 23 21 11 17
  22304289.958    -8485324.390 4  -6611912.852 3
  22332619.453   -16838269.794 4 -13120700.009 2
  24227775.457   -10122376.269 3  -7887557.046 1
  24055035.045    15947493.331 3  12426619.752 1
 91  7 23  4 31  0.0040000  0  4 23 21 11 17
  22309970.431    -8455472.331 4  -6588651.498 3
  22330224.707   -16850862.671 4 -13130512.632 2
  24220456.923   -10160808.658 3  -7917504.359 1
  24064156.231    15995414.915 3  12463961.215 1
 91  7 23  4 31 15.0040000  0  4 23 21 11 17
  22315664.690    -8425559.781 4  -6565343.005 3
  22327841.653   -16863378.812 4 -13140265.462 2
  24213161.179   -10199159.363 3  -7947387.999 1
  24073286.115    16043394.432 3  12501347.837 1
 91  7 23  4 31 30.0040000  0  4 23 21 11 17
  22321367.639    -8395586.137 4  -6541986.916 3
  22325473.894   -16875817.623 4 -13149958.032 2
  24205880.120   -10237427.373 3  -7977207.216 1
  24082425.282    16091432.389 3  12538780.011 2
 91  7 23  4 31 45.0040000  0  4 23 21 11 17
  22327084.078    -8365554.107 4  -6518585.332 3
  22323121.727   -16888181.584 4 -13159592.281 2
  24198607.750   -10275614.777 3  -8006963.587 1
  24091582.144    16139525.900 3  12576255.454 2
 91  7 23  4 32  0.0040000  0  4 23 21 11 17
  22332809.817    -8335463.791 4  -6495138.329 3
  22320780.047   -16900470.630 4 -13169168.148 2
  24191362.969   -10313720.992 3  -8036656.738 1
  24100740.804    16187675.432 3  12613774.564 1
 91  7 23  4 32 15.0040000  0  4 23 21 11 17
  22338547.545    -8305309.285 4  -6471641.311 3
  22318460.555   -16912678.812 4 -13178681.011 2
  24184129.278   -10351739.609 3  -8066281.592 1
  24109916.556    16235886.910 2  12651341.949 1
 91  7 23  4 32 30.0040000  0  4 23 21 11 17
  22344296.065    -8275092.521 4  -6448095.779 3
  22316152.153   -16924807.977 4 -13188132.297 2
  24176906.677   -10389672.149 3  -8095839.396 1
  24119098.599    16284158.259 2  12688955.972 1
 91  7 23  4 32 45.0040000  0  4 23 21 11 17
  22350059.575    -8244813.756 4  -6424501.930 3
  22313859.334   -16936858.019 4 -13197521.933 2
  24169707.459   -10427518.155 3  -8125329.762 1
  24128300.727    16332489.544 2  12726616.703 1
 91  7 23  4 33  0.0040000  0  4 23 21 11 17
  22355833.879    -8214471.020 4  -6400858.242 3
  22311579.114   -16948827.026 4 -13206848.427 2
  24162522.331   -10465275.338 3  -8154750.904 1
  24137501.660    16380882.583 2  12764325.550 1
 91  7 23  4 33 15.0040000  0  4 23 21 11 17
  22361618.373    -8184073.051 4  -6377171.520 3
  22309316.580   -16960723.529 4 -13216118.414 2
  24155355.195   -10502951.757 3  -8184109.120 1
  24146728.672    16429328.708 3  12802075.776 1
 91  7 23  4 33 30.0040000  0  4 23 21 11 17
  22367412.465    -8153615.400 4  -6353438.279 3
  22307065.144   -16972542.951 4 -13225328.343 3
  24148194.350   -10540542.423 3  -8213400.548 1
  24155961.974    16477832.530 3  12839870.930 1
 91  7 23  4 33 45.0040000  0  4 23 21 11 17
  22373220.944    -8123095.251 4  -6329656.339 3
  22304834.980   -16984282.293 4 -13234475.873 2
  24141065.291   -10578043.891 3  -8242622.433 1
  24165206.376    16526396.812 3  12877713.184 1
 91  7 23  4 34  0.0040000  0  4 23 21 11 17
  22379040.513    -8092519.979 4  -6305831.448 3
  22302613.219   -16995948.533 4 -13243566.440 2
  24133944.023   -10615462.823 3  -8271780.018 1
  24174456.169    16575014.668 3  12915597.245 1
 91  7 23  4 34 15.0040000  0  4 23 21 11 17
  22384866.975    -8061885.119 4  -6281960.134 3
  22300409.448   -17007537.340 4 -13252596.667 2
  24126838.940   -10652794.481 3  -8300869.589 1
  24183717.959    16623690.474 3  12953526.446 1
 91  7 23  4 34 30.0040000  0  4 23 21 11 17
  22390712.336    -8031193.359 4  -6258044.475 3
  22298219.760   -17019051.182 4 -13261568.477 2
  24119748.550   -10690040.765 3  -8329892.643 1
  24192991.144    16672421.431 3  12991498.619 1
 91  7 23  4 34 45.0040000  0  4 23 21 11 17
  22396561.282    -8000440.131 4  -6234080.917 3
  22296043.273   -17030485.314 4 -13270478.169 2
  24112679.737   -10727196.701 3  -8358845.290 2
  24202270.917    16721212.388 3  13029517.524 2
 91  7 23  4 35  0.0040000  0  4 23 21 11 17
  22402422.226    -7969637.326 4  -6210078.736 3
  22293879.673   -17041851.640 4 -13279335.042 2
  24105629.823   -10764273.794 3  -8387736.516 1
  24211564.179    16770051.418 2  13067573.924 2
 91  7 23  4 35 15.0040000  0  4 23 21 11 17
  22408296.658    -7938777.108 4  -6186031.809 3
  22291730.757   -17053142.078 4 -13288132.766 2
  24098582.299   -10801263.517 3  -8416559.650 1
  24220872.736    16818946.367 2  13105673.861 1
 91  7 23  4 35 30.0040000  0  4 23 21 11 17
  22414176.492    -7907857.757 4  -6161938.804 3
  22289595.932   -17064354.833 4 -13296869.979 2
  24091560.262   -10838163.593 3  -8445312.915 2
  24230181.293    16867898.861 2  13143818.639 1
 91  7 23  4 35 45.0040000  0  4 23 21 11 17
  22420073.705    -7876881.859 4  -6137801.743 3
  22287477.004   -17075492.314 4 -13305548.529 2
  24084559.208   -10874975.960 3  -8473997.842 1
  24239510.240    16916906.668 2  13182006.548 1
 91  7 23  4 36  0.0040000  0  4 23 21 11 17
  22425977.821    -7845846.931 4  -6113618.682 3
  22285373.058   -17086551.841 4 -13314166.327 2
  24077568.642   -10911697.711 3  -8502612.177 1
  24248845.173    16965972.349 2  13220239.528 1
 91  7 23  4 36 15.0040000  0  4 23 21 11 17
  22431896.917    -7814749.692 4  -6089387.066 3
  22283282.007   -17097530.071 4 -13322720.777 2
  24070605.063   -10948325.049 3  -8531152.919 1
  24258198.996    17015099.029 3  13258520.051 1
 91  7 23  4 36 30.0040000  0  4 23 21 11 17
  22437822.619    -7783599.955 4  -6065114.538 3
  22281206.845   -17108436.573 4 -13331219.344 2
  24063648.979   -10984867.086 3  -8559627.226 2
  24267557.618    17064277.361 3  13296840.809 1
 91  7 23  4 36 45.0040000  0  4 23 21 11 17
  22443762.708    -7752400.360 4  -6040803.169 3
  22279145.171   -17119273.860 4 -13339663.977 2
  24056701.890   -11021325.953 3  -8588036.716 2
  24276923.132    17113504.591 3  13335199.692 1
 91  7 23  4 37  0.0040000  0  4 23 21 11 17
  22449710.291    -7721137.814 4  -6016442.749 3
  22277099.988   -17130028.648 4 -13348044.318 2
  24049788.376   -11057687.846 3  -8616370.631 1
  24286303.645    17162793.875 3  13373606.938 1
 91  7 23  4 37 15.0040000  0  4 23 21 11 17
  22455673.162    -7689814.678 4  -5992035.104 3
  22275069.786   -17140703.353 4 -13356362.263 2
  24042887.451   -11093954.774 3  -8644630.554 2
  24295694.942    17212142.986 3  13412060.774 1
 91  7 23  4 37 30.0040000  0  4 23 21 11 17
  22461639.627    -7658441.030 4  -5967588.107 3
  22273046.495   -17151307.899 4 -13364625.523 2
  24035999.720   -11130136.293 3  -8672823.919 1
  24305097.032    17261541.888 3  13450553.407 1
 91  7 23  4 37 45.0040000  0  4 23 21 11 17
  22467621.692    -7627009.418 4  -5943095.950 3
  22271046.874   -17161834.680 4 -13372828.201 2
  24029135.973   -11166224.232 3  -8700944.367 1
  24314508.118    17310998.128 2  13489090.750 2
 91  7 23  4 38  0.0040000  0  4 23 21 11 17
  22473613.338    -7595530.787 4  -5918567.137 3
  22269055.656   -17172294.429 4 -13380978.632 3
  24022287.216   -11202229.116 3  -8729000.108 1
  24323918.305    17360500.709 2  13527664.152 1
 91  7 23  4 38 15.0040000  0  4 23 21 11 17
  22479613.089    -7563997.824 4  -5893996.000 3
  22267078.825   -17182679.766 4 -13389071.091 2
  24015447.752   -11238143.245 3  -8756985.106 2
  24333348.873    17410056.960 2  13566279.419 1
 91  7 23  4 38 30.0040000  0  4 23 21 11 17
  22485625.728    -7532408.611 4  -5869381.036 3
  22265118.180   -17192988.507 4 -13397103.863 2
  24008628.373   -11273964.002 3  -8784897.373 2
  24342797.128    17459669.027 3  13604938.147 1
 91  7 23  4 38 45.0040000  0  4 23 21 11 17
  22491647.353    -7500761.618 4  -5844721.049 3
  22263169.226   -17203219.054 4 -13405075.712 2
  24001838.074   -11309689.135 3  -8812735.107 2
  24352248.393    17509338.579 3  13643641.710 1
 91  7 23  4 39  0.0040000  0  4 23 21 11 17
  22497680.382    -7469062.441 4  -5820020.393 3
  22261237.365   -17213376.769 4 -13412990.803 2
  23995058.263   -11345323.756 3  -8840502.324 1
  24361712.841    17559060.049 3  13682385.678 1
 91  7 23  4 39 15.0040000  0  4 23 21 11 17
  22503722.694    -7437306.291 4  -5795275.336 3
  22259317.492   -17223456.671 4 -13420845.270 3
  23988291.950   -11380862.484 3  -8868194.826 2
  24371182.385    17608838.349 3  13721173.954 1
 91  7 23  4 39 30.0040000  0  4 23 21 11 17
  22509772.807    -7405494.792 4  -5770487.162 3
  22257415.610   -17233460.441 4 -13428640.410 3
  23981545.120   -11416306.408 3  -8895813.453 2
  24380667.215    17658671.896 3  13760005.305 1
 91  7 23  4 39 45.0040000  0  4 23 21 11 17
  22515840.012    -7373629.986 4  -5745657.438 3
  22255528.116   -17243390.007 4 -13436377.722 2
  23974814.178   -11451657.263 3  -8923359.564 1
  24390157.743    17708558.484 3  13798877.986 1
 91  7 23  4 40  0.0040000  0  4 23 21 11 17
  22521914.101    -7341712.671 4  -5720786.800 3
  22253651.721   -17253245.758 4 -13444057.512 2
  23968108.121   -11486914.958 3  -8950833.065 1
  24399661.769    17758497.496 2  13837791.493 1
 91  7 23  4 40 15.0040000  0  4 23 21 11 17
  22527998.093    -7309734.676 4  -5695868.888 3
  22251790.602   -17263019.848 4 -13451673.669 3
  23961421.250   -11522071.239 3  -8978227.547 2
  24409179.275    17808496.956 2  13876752.103 1
 91  7 23  4 40 30.0040000  0  4 23 21 11 17
  22534092.276    -7277697.509 4  -5670904.863 3
  22249947.781   -17272713.294 4 -13459226.995 2
  23954749.072   -11557126.748 3  -9005543.525 1
  24418705.479    17858555.950 3  13915759.095 1
 91  7 23  4 40 45.0040000  0  4 23 21 11 17
  22540202.043    -7245605.838 4  -5645898.361 3
  22248118.745   -17282330.698 4 -13466721.075 3
  23948093.977   -11592085.611 3  -9032784.169 2
  24428237.085    17908669.609 3  13954808.691 1
 91  7 23  4 41  0.0040000  0  4 23 21 11 17
  22546315.107    -7213463.295 4  -5620852.222 3
  22246300.511   -17291875.791 4 -13474158.804 2
  23941461.071   -11626951.164 3  -9059952.106 1
  24437785.774    17958834.229 2  13993897.984 1
 91  7 23  4 41 15.0040000  0  4 23 21 11 17
  22552443.466    -7181270.044 4  -5595766.575 3
  22244495.757   -17301348.517 4 -13481540.134 2
  23934849.751   -11661722.873 3  -9087046.926 2
  24447342.857    18009049.495 2  14033026.761 1
 91  7 23  4 41 30.0040000  0  4 23 21 11 17
  22558583.221    -7149019.451 4  -5570636.250 2
  22242708.392   -17310741.936 4 -13488859.670 2
  23928241.423   -11696393.498 3  -9114062.984 1
  24456902.941    18059322.372 2  14072200.410 1
 91  7 23  4 41 45.0040000  0  4 23 21 11 17
  22564727.765    -7116710.591 4  -5545460.507 3
  22240938.120   -17320054.981 4 -13496116.587 3
  23921670.273   -11730961.528 3  -9140999.091 2
  24466487.299    18109654.003 2  14111419.863 1
 91  7 23  4 42  0.0040000  0  4 23 21 11 17
  22570885.502    -7084354.767 4  -5520248.180 3
  22239178.039   -17329298.724 4 -13503319.495 3
  23915104.821   -11765437.627 3  -9167863.567 1
  24476069.868    18160033.298 2  14150676.437 1
 91  7 23  4 42 15.0040000  0  4 23 21 11 17
  22577052.235    -7051944.539 4  -5494993.455 3
  22237432.947   -17338465.963 4 -13510462.783 3
  23908566.346   -11799814.200 3  -9194650.498 2
  24485671.327    18210467.386 2  14189975.736 1
 91  7 23  4 42 30.0040000  0  4 23 21 11 17
  22583233.049    -7019478.644 4  -5469695.351 3
  22235706.143   -17347555.260 4 -13517545.342 3
  23902043.158   -11834089.314 3  -9221358.359 2
  24495277.872    18260957.535 2  14229318.691 1
 91  7 23  4 42 45.0040000  0  4 23 21 11 17
  22589417.773    -6986959.954 4  -5444356.104 3
  22233994.329   -17356569.026 4 -13524569.040 3
  23895535.562   -11868264.959 3  -9247988.712 2
  24504895.211    18311501.331 2  14268703.461 1
 91  7 23  4 43  0.0040000  0  4 23 21 11 17
  22595618.376    -6954385.946 4  -5418973.772 3
  22232287.009   -17365504.840 4 -13531532.004 3
  23889056.453   -11902338.271 3  -9274539.332 2
  24514526.344    18362101.135 2  14308131.864 1
 91  7 23  4 43 15.0040000  0  4 23 21 11 17
  22601828.577    -6921759.829 4  -5393550.822 2
  22230602.478   -17374365.727 4 -13538436.573 3
  23882586.331   -11936311.977 3  -9301012.315 2
  24524161.673    18412753.821 2  14347601.475 1
 91  7 23  4 43 30.0040000  0  4 23 21 11 17
  22608043.874    -6889081.368 4  -5368087.081 3
  22228929.334   -17383151.411 4 -13545282.555 3
  23876144.688   -11970185.235 3  -9327407.060 2
  24533811.696    18463459.627 2  14387112.470 1
 91  7 23  4 43 45.0040000  0  5 23 21 11 12 17
  22614273.261    -6856354.900 4  -5342585.937 3
  22227273.875   -17391866.073 4 -13552073.195 3
  23869720.739   -12003961.903 3  -9353726.519 1
  25975989.993           0.981 2         0.098 1
  24543470.409    18514214.294 2  14426661.566 1
 91  7 23  4 44  0.0040000  0  5 23 21 11 12 17
  22620511.347    -6823575.011 4  -5317043.168 2
  22225628.617   -17400504.170 4 -13558804.171 3
  23863307.871   -12037636.001 3  -9379966.075 2
  25971191.218      -25221.581 2    -19653.783 1
  24553140.517    18565023.478 2  14466253.085 1
 91  7 23  4 44 15.0040000  0  5 23 21 11 12 17
  22626759.023    -6790744.784 4  -5291461.170 3
  22223997.449   -17409068.623 4 -13565477.766 3
  23856923.797   -12071210.103 3  -9406127.704 2
  25966405.330      -50352.624 2    -39236.387 1
  24562816.017    18615884.019 2  14505884.665 1
 91  7 23  4 44 30.0040000  0  5 23 21 11 12 17
  22633015.388    -6757861.530 4  -5265837.850 3
  22222382.169   -17417556.669 4 -13572091.820 3
  23850544.512   -12104680.995 3  -9432208.902 2
  25961644.632      -75388.845 2    -58745.091 1
  24572508.304    18666798.425 2  14545558.199 1
 91  7 23  4 44 45.0050000  0  5 23 21 11 12 17
  22639286.145    -6724923.055 4  -5240171.504 3
  22220782.171   -17425968.584 4 -13578646.543 2
  23844198.202   -12138050.230 3  -9458210.887 2
  25956896.518     -100331.303 2    -78180.670 1
  24582201.799    18717770.242 2  14585276.494 1
 91  7 23  4 45  0.0050000  0  5 23 21 11 12 17
  22645563.206    -6691934.155 4  -5214465.872 2
  22219198.965   -17434303.505 4 -13585141.279 2
  23837875.282   -12171313.297 3  -9484130.148 2
  25952177.778     -125176.514 2    -97540.620 1
  24591916.867    18768792.351 2  14625033.965 1
 91  7 23  4 45 15.0050000  0  5 23 21 11 12 17
  22651847.754    -6658898.958 4  -5188724.155 3
  22217622.661   -17442568.624 4 -13591581.620 3
  23831561.357   -12204478.488 3  -9509973.141 2
  25947452.757     -149932.156 2   -116830.567 1
  24601631.648    18819861.894 2  14664828.400 1
 91  7 23  4 45 30.0050000  0  5 23 21 11 12 17
  22658143.094    -6625808.858 4  -5162939.669 3
  22216066.441   -17450754.889 4 -13597960.525 3
  23825269.611   -12237536.363 3  -9535732.516 2
  25942773.891     -174588.833 2   -136043.488 1
  24611362.011    18870987.692 2  14704666.635 1
 91  7 23  4 45 45.0050000  0  5 23 21 11 12 17
  22664450.423    -6592671.179 4  -5137118.100 3
  22214523.109   -17458869.434 4 -13604283.534 3
  23819002.749   -12270493.567 3  -9561413.439 1
  25938104.326     -199153.182 2   -155184.517 1
  24621101.667    18922162.610 2  14744543.188 1
 91  7 23  4 46  0.0050000  0  5 23 21 11 12 17
  22670766.154    -6559483.502 4  -5111257.570 3
  22212990.867   -17466909.810 4 -13610548.755 2
  23812745.476   -12303347.327 3  -9587013.755 2
  25933432.658     -223622.465 2   -174251.485 1
  24630845.816    18973389.001 2  14784459.853 1
 91  7 23  4 46 15.0050000  0  5 23 21 11 12 17
  22677091.780    -6526244.311 4  -5085356.897 3
  22211480.210   -17474874.373 4 -13616754.895 2
  23806511.892   -12336095.627 3  -9612531.886 2
  25928797.270     -247994.629 2   -193242.729 1
  24640610.662    19024668.134 3  14824417.590 1
 91  7 23  4 46 30.0050000  0  5 23 21 11 12 17
  22683429.088    -6492952.517 4  -5059415.241 3
  22209974.954   -17482762.043 4 -13622901.118 2
  23800306.490   -12368736.846 3  -9637966.588 2
  25924179.262     -272268.055 2   -212156.941 1
  24650376.702    19076001.166 3  14864417.353 1
 91  7 23  4 46 45.0050000  0  5 23 21 11 12 17
  22689772.696    -6459607.184 4  -5033431.858 2
  22208493.378   -17490571.703 4 -13628986.561 3
  23794110.982   -12401269.509 3  -9663316.700 2
  25919576.252     -296441.246 2   -230993.167 1
  24660153.230    19127389.234 2  14904459.986 1
 91  7 23  4 47  0.0050000  0  5 23 21 11 12 17
  22696124.401    -6426213.133 4  -5007410.513 3
  22207019.001   -17498307.988 4 -13635014.834 3
  23787947.251   -12433697.847 3  -9688585.511 2
  25914998.117     -320518.379 2   -249754.563 1
  24669945.053    19178827.491 3  14944541.757 1
 91  7 23  4 47 15.0050000  0  5 23 21 11 12 17
  22702494.088    -6392761.962 4  -4981344.658 3
  22205563.810   -17505962.363 4 -13640979.274 3
  23781792.507   -12466012.853 3  -9713766.023 2
  25910434.083     -344490.465 2   -268434.078 1
  24679747.670    19230324.495 3  14984669.270 1
 91  7 23  4 47 30.0050000  0  5 23 21 11 12 17
  22708868.879    -6359259.193 4  -4955238.608 3
  22204117.605   -17513540.198 4 -13646884.066 2
  23775661.155   -12498219.512 3  -9738862.111 2
  25905894.321     -368362.522 2   -287035.675 1
  24689550.582    19281874.892 2  15024838.393 1
 91  7 23  4 47 45.0050000  0  5 23 21 11 12 17
  22715253.556    -6325706.806 4  -4929093.882 3
  22202692.996   -17521043.353 4 -13652730.665 3
  23769553.177   -12530319.407 3  -9763875.003 2
  25901371.652     -392135.964 2   -305560.366 1
  24699366.984    19333476.438 2  15065047.389 1
 91  7 23  4 48  0.0050000  0  5 23 21 11 12 17
  22721648.127    -6292102.241 4  -4902908.506 3
  22201281.570   -17528469.090 4 -13658516.957 3
  23763462.894   -12562309.429 3  -9788802.286 2
  25896862.176     -415807.607 2   -324005.718 1
  24709201.979    19385131.971 2  15105298.419 1
 91  7 23  4 48 15.0050000  0  5 23 21 11 12 17
  22728050.202    -6258450.387 4  -4876686.274 3
  22199879.140   -17535822.354 4 -13664246.765 3
  23757403.192   -12594194.064 3  -9813647.429 2
  25892375.777     -439381.977 2   -342375.305 1
  24719041.163    19436836.413 2  15145587.589 1
 91  7 23  4 48 30.0050000  0  5 23 21 11 12 17
  22734465.461    -6224747.419 4  -4850424.225 3
  22198492.301   -17543099.102 4 -13669916.944 3
  23751355.479   -12625968.857 3  -9838406.977 2
  25887907.972     -462854.479 2   -360665.569 1
  24728887.247    19488593.910 2  15185918.108 1
 91  7 23  4 48 45.0050000  0  5 23 21 11 12 17
  22740887.909    -6190997.189 4  -4824125.348 2
  22197122.249   -17550302.988 4 -13675530.351 3
  23745325.155   -12657636.942 3  -9863083.396 2
  25883465.652     -486228.499 2   -378878.987 1
  24738747.118    19540400.711 2  15226287.013 1
 91  7 23  4 49  0.0050000  0  5 23 21 11 12 17
  22747321.158    -6157202.827 4  -4797792.077 2
  22195765.094   -17557437.128 4 -13681089.406 2
  23739320.012   -12689200.920 3  -9887678.682 2
  25879029.921     -509506.582 2   -397017.883 1
  24748620.189    19592253.635 2  15266691.856 1
 91  7 23  4 49 15.0050000  0  5 23 21 11 12 17
  22753758.003    -6123352.701 4  -4771415.347 2
  22194424.420   -17564489.895 4 -13686585.053 3
  23733336.454   -12720648.870 3  -9912183.565 2
  25874622.371     -532676.704 2   -415072.324 1
  24758491.454    19644164.038 2  15307141.500 1
 91  7 23  4 49 30.0050000  0  5 23 21 11 12 17
  22760211.337    -6089452.692 4  -4744999.746 2
  22193096.039   -17571466.991 4 -13692021.746 3
  23727369.684   -12751985.966 3  -9936602.041 2
  25870234.609     -555744.039 2   -433046.835 1
  24768378.311    19696126.235 2  15347631.507 1
 91  7 23  4 49 45.0050000  0  5 23 21 11 12 17
  22766668.564    -6055505.125 4  -4718547.084 3
  22191782.945   -17578370.590 4 -13697401.166 3
  23721432.596   -12783214.085 3  -9960935.623 2
  25865859.142     -578710.472 2   -450942.801 1
  24778274.757    19748137.915 2  15388160.090 1
 91  7 23  4 50  0.0050000  0  5 23 21 11 12 17
  22773141.984    -6021505.974 4  -4692054.241 2
  22190483.646   -17585196.508 4 -13702720.062 3
  23715512.296   -12814328.743 3  -9985180.785 2
  25861521.140     -601571.452 2   -468756.485 1
  24788189.797    19800203.387 2  15428730.551 1
 91  7 23  4 50 15.0050000  0  5 23 21 11 12 17
  22779620.796    -5987460.267 4  -4665525.118 3
  22189196.343   -17591949.777 4 -13707982.347 3
  23709608.782   -12845334.542 3 -10009341.142 2
  25857179.543     -624331.734 2   -486491.697 1
  24798103.929    19852317.539 2  15469338.977 1
 91  7 23  4 50 30.0050000  0  5 23 21 11 12 17
  22786108.307    -5953365.041 4  -4638957.411 2
  22187927.014   -17598627.275 4 -13713185.593 3
  23703732.544   -12876227.794 3 -10033413.795 2
  25852866.137     -646987.651 2   -504145.634 1
  24808027.056    19904483.144 2  15509987.496 1
 91  7 23  4 50 45.0050000  0  5 23 21 11 12 17
  22792603.313    -5919222.234 4  -4612352.625 3
  22186669.691   -17605230.655 4 -13718331.079 3
  23697874.305   -12907009.713 3 -10057399.667 2
  25848580.599     -669540.355 2   -521719.110 1
  24817967.276    19956698.582 2  15550674.827 1
 91  7 23  4 51  0.0050000  0  5 23 21 11 12 17
  22799112.104    -5885027.965 4  -4585707.737 2
  22185429.146   -17611755.831 4 -13723415.613 3
  23692042.442   -12937676.095 3 -10081295.524 2
  25844302.565     -691985.537 2   -539208.806 1
  24827914.991    20008968.062 2  15591404.257 1
 91  7 23  4 51 15.0050000  0  5 23 21 11 12 17
  22805625.695    -5850785.921 4  -4559025.619 2
  22184199.700   -17618206.601 4 -13728442.186 3
  23686217.769   -12968230.305 3 -10105103.969 2
  25840059.597     -714326.484 2   -556617.164 1
  24837869.598    20061287.579 2  15632172.693 1
 91  7 23  4 51 30.0050000  0  5 23 21 11 12 17
  22812150.977    -5816495.365 4  -4532305.708 2
  22182989.440   -17624582.042 4 -13733410.049 3
  23680428.179   -12998670.818 3 -10128823.853 2
  25835830.423     -736561.752 2   -573943.380 1
  24847836.805    20113658.058 2  15672980.832 1
 91  7 23  4 51 45.0050000  0  5 23 21 11 12 17
  22818685.551    -5782157.457 4  -4505548.891 3
  22181789.066   -17630883.308 4 -13738320.114 3
  23674659.870   -13028998.372 3 -10152455.664 2
  25831618.944     -758692.012 2   -591187.668 1
  24857817.788    20166078.205 2  15713827.683 1
 91  7 23  4 52  0.0050000  0  5 23 21 11 12 17
  22825226.128    -5747775.594 4  -4478757.817 3
  22180603.088   -17637113.715 4 -13743174.968 3
  23668910.451   -13059215.869 3 -10176001.749 2
  25827424.243     -780720.277 2   -608352.641 1
  24867796.983    20218544.623 2  15754710.575 1
 91  7 23  4 52 15.0050000  0  5 23 21 11 12 17
  22831781.085    -5713340.699 4  -4451925.439 3
  22179433.601   -17643263.932 4 -13747967.331 3
  23663179.922   -13089313.615 3 -10199454.507 2
  25823244.838     -802636.822 2   -625430.280 1
  24877793.864    20271066.343 2  15795636.577 1
 91  7 23  4 52 30.0050000  0  5 23 21 11 12 17
  22838339.950    -5678859.420 4  -4425056.899 2
  22178274.601   -17649340.693 4 -13752702.453 3
  23657479.372   -13119297.862 3 -10222818.830 2
  25819104.704     -824447.860 2   -642425.762 1
  24887788.642    20323636.815 2  15836600.558 1
 91  7 23  4 52 45.0050000  0  5 23 21 11 12 17
  22844911.998    -5644330.542 4  -4398151.275 2
  22177137.187   -17655342.509 4 -13757379.188 3
  23651791.403   -13149166.794 3 -10246093.303 2
  25814971.166     -846151.599 2   -659337.859 1
  24897805.311    20376257.692 2  15877603.805 1
 91  7 23  4 53  0.0050000  0  5 23 21 11 12 17
  22851493.339    -5609755.373 4  -4371209.586 2
  22176004.868   -17661270.609 4 -13761998.486 3
  23646130.727   -13178921.354 3 -10269278.639 1
  25810860.715     -867748.825 2   -676166.741 1
  24907827.373    20428927.345 2  15918645.087 1
 91  7 23  4 53 15.0050000  0  5 23 21 11 12 17
  22858081.276    -5575131.560 4  -4344229.990 2
  22174892.644   -17667122.473 4 -13766558.371 3
  23640489.831   -13208558.459 3 -10292372.474 2
  25806772.443     -889236.512 2   -692910.247 1
  24917855.132    20481648.201 2  15959726.273 1
 91  7 23  4 53 30.0050000  0  5 23 21 11 12 17
  22864677.912    -5540462.822 4  -4317215.372 2
  22173791.204   -17672901.542 4 -13771061.525 2
  23634869.317   -13238081.228 3 -10315377.211 2
  25802700.661     -910617.806 2   -709571.107 1
  24927903.569    20534416.688 2  16000844.521 1
 91  7 23  4 53 45.0050000  0  5 23 21 11 12 17
  22871285.638    -5505742.300 4  -4290160.414 3
  22172706.856   -17678601.263 4 -13775502.854 3
  23629275.492   -13267482.678 3 -10338287.407 2
  25798652.865     -931885.658 2   -726143.341 1
  24937954.415    20587239.294 2  16042004.970 1
 91  7 23  4 54  0.0050000  0  5 23 21 11 12 17
  22877905.055    -5470975.054 4  -4263069.060 3
  22171638.396   -17684226.468 4 -13779886.120 3
  23623706.849   -13296767.147 3 -10361106.462 2
  25794634.447     -953044.467 2   -742630.660 1
  24948011.254    20640111.326 2  16083203.970 1
 91  7 23  4 54 15.0050000  0  5 23 21 11 12 17
  22884528.067    -5436156.285 4  -4235937.556 2
  22170579.831   -17689772.044 4 -13784207.328 3
  23618157.688   -13325929.226 4 -10383830.122 2
  25790624.718     -974088.727 2   -759028.791 1
  24958088.179    20693037.785 2  16124445.330 1
 91  7 23  4 54 30.0050000  0  5 23 21 11 12 17
  22891161.881    -5401288.277 4  -4208767.672 2
  22169542.843   -17695240.293 4 -13788468.288 2
  23612628.316   -13354970.816 4 -10406459.908 2
  25786642.282     -995020.358 2   -775339.048 1
  24968168.393    20746016.202 2  16165727.149 1
 91  7 23  4 54 45.0050000  0  5 23 21 11 12 17
  22897805.283    -5366373.993 4  -4181561.725 2
  22168514.554   -17700634.167 4 -13792671.288 3
  23607125.931   -13383894.421 4 -10428997.764 2
  25782674.530    -1015841.937 2   -791563.545 1
  24978263.004    20799043.499 2  16207047.136 1
 91  7 23  4 55  0.0050000  0  5 23 21 11 12 17
  22904459.174    -5331414.772 4  -4154320.764 2
  22167502.756   -17705954.961 4 -13796817.346 3
  23601642.121   -13412700.867 4 -10451444.323 2
  25778733.154    -1036554.380 2   -807703.202 1
  24988360.014    20852118.287 2  16248404.095 1
 91  7 23  4 55 15.0050000  0  5 23 21 11 12 17
  22911119.965    -5296412.295 4  -4127046.096 2
  22166500.555   -17711204.215 4 -13800907.673 2
  23596185.002   -13441391.175 3 -10473800.380 1
  25774819.663    -1057158.569 2   -823758.272 1
  24998462.425    20905239.181 2  16289797.012 1
 91  7 23  4 55 30.0050000  0  5 23 21 11 12 17
  22917790.041    -5261367.377 4  -4099738.369 2
  22165520.533   -17716382.532 4 -13804942.717 3
  23590747.069   -13469965.662 3 -10496066.211 2
  25770918.161    -1077654.826 2   -839729.361 1
  25008583.421    20958405.476 2  16331225.215 1
 91  7 23  4 55 45.0050000  0  5 23 21 11 12 17
  22924469.722    -5226275.079 4  -4072393.715 2
  22164549.498   -17721484.806 4 -13808918.502 3
  23585331.612   -13498418.868 3 -10518237.524 2
  25767041.848    -1098037.711 2   -855612.056 1
  25018710.410    21011621.970 2  16372692.597 1
 91  7 23  4 56  0.0050000  0  5 23 21 11 12 17
  22931153.888    -5191136.318 4  -4045012.854 2
  22163591.368   -17726511.960 4 -13812835.757 3
  23579941.947   -13526751.367 3 -10540314.769 2
  25763184.416    -1118307.772 2   -871406.929
  25028844.894    21064887.718 2  16414198.356 1
 91  7 23  4 56 15.0050000  0  5 23 21 11 12 17
  22937848.856    -5155951.852 4  -4017596.389 2
  22162651.220   -17731464.618 4 -13816694.951 3
  23574573.858   -13554963.202 4 -10562297.996 2
  25759350.377    -1138465.084 2   -887113.854 1
  25038988.968    21118202.070 2  16455741.970 1
 91  7 23  4 56 30.0050000  0  5 23 21 11 12 17
  22944552.515    -5120722.762 4  -3990145.147 2
  22161722.162   -17736343.727 4 -13820496.843 3
  23569226.161   -13583055.112 4 -10584187.769 2
  25755530.419    -1158510.281 2   -902733.465 1
  25049148.633    21171564.073 2  16497322.744 1
 91  7 23  4 56 45.0050000  0  5 23 21 11 12 17
  22951266.067    -5085445.189 4  -3962656.123 2
  22160807.195   -17741145.331 4 -13824238.344 3
  23563903.050   -13611022.726 4 -10605980.702 2
  25751739.839    -1178439.011 2   -918262.274 1
  25059308.603    21224977.539 2  16538943.603 1
 91  7 23  4 57  0.0050000  0  5 23 21 11 12 17
  22957989.217    -5050118.079 4  -3935128.499 2
  22159909.616   -17745868.238 4 -13827918.515 3
  23558603.314   -13638864.485 3 -10627675.557 2
  25747970.252    -1198249.612 2   -933699.085 1
  25069487.455    21278443.530 2  16580605.383 1
 91  7 23  4 57 15.0050000  0  5 23 21 11 12 17
  22964718.955    -5014751.508 4  -3907570.137 2
  22159024.027   -17750522.304 4 -13831545.053 3
  23553327.267   -13666589.814 3 -10649279.695 2
  25744221.945    -1217951.588 2   -949051.244 1
  25079669.003    21331952.137 2  16622300.412 1
 91  7 23  4 57 30.0050000  0  5 23 21 11 12 17
  22971458.587    -4979334.975 4  -3879972.833 2
  22158152.231   -17755097.146 4 -13835109.859 3
  23548076.104   -13694187.866 3 -10670784.657 2
  25740495.827    -1237534.148 2   -964310.305 1
  25089856.850    21385513.595 2  16664036.564 1
 91  7 23  4 57 45.0050000  0  5 23 21 11 12 17
  22978207.214    -4943873.058 4  -3852340.162 2
  22157292.424   -17759597.132 4 -13838616.336 3
  23542854.920   -13721662.620 4 -10692193.540 1
  25736780.501    -1257001.402 2   -979479.545 1
  25100058.195    21439123.357 2  16705810.403 1
 91  7 23  4 58  0.0050000  0  5 23 21 11 12 17
  22984964.540    -4908362.146 4  -3824669.325 2
  22156453.304   -17764018.465 4 -13842061.520 2
  23537649.023   -13749009.759 4 -10713502.979 2
  25733106.837    -1276349.140 2   -994555.646 1
  25110274.215    21492785.179 2  16747624.712 1
 91  7 23  4 58 15.0050000  0  5 23 21 11 12 17
  22991729.056    -4872810.925 4  -3796967.070 2
  22155626.775   -17768369.802 4 -13845452.154 3
  23532472.207   -13776237.705 4 -10734719.544 2
  25729446.078    -1295585.567 2  -1009545.083 1
  25120493.543    21546490.215 2  16789472.803 1
 91  7 23  4 58 30.0050000  0  5 23 21 11 12 17
  22998504.068    -4837208.595 4  -3769224.990 2
  22154811.343   -17772640.555 4 -13848779.992 3
  23527310.380   -13803335.342 4 -10755834.562 2
  25725808.397    -1314699.596 2  -1024438.993 1
  25130728.157    21600249.391 2  16831363.101 1
 91  7 23  4 58 45.0050000  0  5 23 21 11 12 17
  23005285.371    -4801563.182 4  -3741449.338 2
  22154015.692   -17776838.434 4 -13852051.056 3
  23522176.735   -13830310.027 3 -10776853.779 2
  25722193.192    -1333698.558 2  -1039243.414 1
  25140960.676    21654054.828 2  16873289.347 1
 91  7 23  4 59  0.0050000  0  5 23 21 11 12 17
  23012077.773    -4765876.355 4  -3713641.418 2
  22153230.537   -17780964.900 4 -13855266.477 3
  23517066.177   -13857162.944 3 -10797778.106 2
  25718597.182    -1352583.711 2  -1053959.043 1
  25151212.976    21707904.918 2  16915250.454 1
 91  7 23  4 59 15.0050000  0  5 23 21 11 12 17
  23018879.161    -4730146.357 4  -3685799.867 2
  22152457.073   -17785018.203 4 -13858424.898 3
  23511981.995   -13883891.840 3 -10818605.793 2
  25715020.358    -1371352.779 2  -1068584.259 1
  25161468.277    21761801.115 2  16957247.497 1
 91  7 23  4 59 30.0050000  0  5 23 21 11 12 17
  23025688.349    -4694365.567 4  -3657918.722 2
  22151701.296   -17788990.598 4 -13861520.265 3
  23506917.296   -13910488.647 3 -10839330.574 2
  25711478.915    -1389997.720 2  -1083112.776 1
  25171731.073    21815751.178 2  16999286.476 1
 91  7 23  4 59 45.0050000  0  5 23 21 11 12 17
  23032502.328    -4658539.818 4  -3630002.533 2
  22150962.305   -17792887.696 4 -13864556.959 3
  23501880.483   -13936958.601 3 -10859956.497 2
  25707944.060    -1408523.653 2  -1097548.555 1
  25182009.155    21869749.415 2  17041362.999 1
 91  7 23  5  0  0.0050000  0  5 23 21 11 12 17
  23039329.804    -4622669.070 4  -3602051.294 2
  22150232.912   -17796709.504 4 -13867534.990 3
  23496869.758   -13963301.300 4 -10880483.266 2
  25704457.174    -1426930.177 2  -1111891.180 1
  25192295.334    21923795.764 2  17083476.991 1
 91  7 23  5  0 15.0050000  0  5 23 21 11 12 17
  23046164.775    -4586750.095 4  -3574062.486 2
  22149521.205   -17800452.471 4 -13870451.589 3
  23491881.805   -13989512.901 4 -10900907.880 2
  25700970.891    -1445213.530 2  -1126137.997 1
  25202588.712    21977893.600 2  17125631.124 1
 91  7 23  5  0 30.0050000  0  5 23 21 11 12 17
  23053006.037    -4550793.980 4  -3546044.738 2
  22148818.790   -17804127.797 4 -13873315.477 3
  23486916.049   -14015604.146 3 -10921238.701 2
  25697521.175    -1463384.424 2  -1140297.052 1
  25212891.678    22032031.826 2  17167816.737 1
 91  7 23  5  0 45.0050000  0  5 23 21 11 12 17
  23059855.395    -4514795.207 4  -3517993.738 2
  22148136.461   -17807729.836 4 -13876122.252 3
  23481971.573   -14041569.077 3 -10941471.105 2
  25694085.559    -1481436.867 2  -1154363.795 1
  25223203.936    22086215.866 2  17210038.062 1
 91  7 23  5  1  0.0050000  0  5 23 21 11 12 17
  23066717.345    -4478751.299 4  -3489907.568 2
  22147462.533   -17811256.015 4 -13878869.918 3
  23477053.770   -14067404.581 3 -10961602.657 2
  25690665.220    -1499367.813 2  -1168335.969 1
  25233515.602    22140448.261 2  17252297.016 1
 91  7 23  5  1 15.0050000  0  5 23 21 11 12 17
  23073584.686    -4442659.582 4  -3461784.148 3
  22146805.986   -17814703.396 4 -13881556.178 3
  23472168.058   -14093107.493 4 -10981630.884 2
  25687268.876    -1517174.047 2  -1182210.971 1
  25243851.243    22194731.747 2  17294595.830 1
 91  7 23  5  1 30.0050000  0  5 23 21 11 12 17
  23080458.030    -4406524.681 4  -3433627.086 2
  22146166.828   -17818076.817 4 -13884184.818 3
  23467301.524   -14118681.969 4 -11001559.025 2
  25683912.100    -1534859.840 2  -1195991.991 1
  25254185.393    22249061.514 2  17336930.699 1
 91  7 23  5  1 45.0050000  0  5 23 21 11 12 17
  23087344.261    -4370353.241 4  -3405441.534 2
  22145540.557   -17821382.777 4 -13886760.883 3
  23462455.677   -14144134.147 3 -11021391.879 2
  25680570.906    -1552431.317 2  -1209684.006 1
  25264535.126    22303431.224 2  17379296.676 1
 91  7 23  5  2  0.0050000  0  5 23 21 11 12 17
  23094239.488    -4334134.831 4  -3377219.399 3
  22144922.087   -17824610.697 4 -13889276.129 3
  23457639.216   -14169453.141 4 -11041120.953 2
  25677251.604    -1569877.624 2  -1223278.526 1
  25274894.151    22357851.060 2  17421701.738 1
 91  7 23  5  2 15.0050000  0  5 23 21 11 12 17
  23101137.716    -4297871.035 4  -3348961.899 2
  22144324.600   -17827761.960 4 -13891731.653 3
  23452849.428   -14194639.873 3 -11060746.964 2
  25673956.288    -1587199.632 2  -1236776.114 1
  25285255.279    22412319.701 2  17464144.839 1
 91  7 23  5  2 30.0050000  0  5 23 21 11 12 17
  23108048.534    -4261562.141 4  -3320669.250 2
  22143738.805   -17830836.953 4 -13894127.736 3
  23448073.435   -14219694.291 3 -11080269.874 2
  25670679.259    -1604397.254 2  -1250176.890 1
  25295633.499    22466836.764 2  17506625.590 1
 91  7 23  5  2 45.0050000  0  5 23 21 11 12 17
  23114962.948    -4225206.674 4  -3292340.301 3
  22143168.907   -17833834.022 4 -13896463.104 3
  23443334.017   -14244614.378 3 -11099688.108 2
  25667426.207    -1621468.572 2  -1263479.180 1
  25306016.807    22521403.572 2  17549145.166 1
 91  7 23  5  3  0.0050000  0  5 23 21 11 12 17
  23121888.450    -4188805.513 4  -3263975.765 2
  22142611.887   -17836753.888 4 -13898738.314 3
  23438616.481   -14269400.644 3 -11119002.060 2
  25664202.541    -1638414.040 2  -1276683.410 1
  25316409.118    22576019.312 2  17591702.882 1
 91  7 23  5  3 15.0050000  0  5 23 21 11 12 17
  23128827.146    -4152357.150 4  -3235574.438 2
  22142070.460   -17839594.949 4 -13900952.120 3
  23433929.230   -14294051.016 4 -11138210.128 2
  25661006.158    -1655231.616 2  -1289787.980 1
  25326811.612    22630685.631 2  17634300.002 1
 91  7 23  5  3 30.0050000  0  5 23 21 11 12 17
  23135767.341    -4115870.588 4  -3207143.343 2
  22141543.428   -17842366.280 4 -13903111.589 3
  23429261.158   -14318574.182 4 -11157319.086 2
  25657820.560    -1671930.044 2  -1302799.669 1
  25337223.703    22685393.379 2  17676929.352 1
 91  7 23  5  3 45.0050000  0  5 23 21 11 12 17
  23142720.730    -4079343.189 4  -3178680.440 2
  22141032.582   -17845065.041 4 -13905214.518 3
  23424620.071   -14342966.907 3 -11176326.383 2
  25654674.836    -1688506.050 2  -1315716.033 1
  25347635.497    22740145.436 2  17719593.306 1
 91  7 23  5  4  0.0050000  0  5 23 21 11 12 17
  23149684.003    -4042760.976 4  -3150174.813 3
  22140532.528   -17847677.169 4 -13907249.925 3
  23420008.965   -14367214.804 3 -11195220.839 2
  25651546.806    -1704945.252 2  -1328525.716 1
  25358065.876    22794955.707 2  17762302.559 1
 91  7 23  5  4 15.0050000  0  5 23 21 11 12 17
  23156654.484    -4006130.717 4  -3121631.752 2
  22140050.161   -17850209.242 4 -13909222.955 3
  23415415.841   -14391324.164 3 -11214007.332 2
  25648443.947    -1721253.916 2  -1341233.860 1
  25368502.852    22849817.308 2  17805051.849 1
 91  7 23  5  4 30.0050000  0  5 23 21 11 12 17
  23163629.755    -3969457.569 4  -3093055.275 2
  22139586.386   -17852666.311 4 -13911137.553 3
  23410855.104   -14415299.498 3 -11232689.391 2
  25645367.779    -1737436.551 2  -1353843.592 1
  25378956.911    22904725.264 2  17847837.269 1
 91  7 23  5  4 45.0050000  0  5 23 21 11 12 17
  23170616.718    -3932743.573 4  -3064446.968 2
  22139128.903   -17855050.567 4 -13912995.413 3
  23406319.243   -14439142.639 3 -11251268.437 2
  25642312.892    -1753494.898 2  -1366356.540 1
  25389414.870    22959677.137 2  17890656.871 1
 91  7 23  5  5  0.0050000  0  5 23 21 11 12 17
  23177613.871    -3895988.204 4  -3035806.417 2
  22138687.909   -17857361.275 4 -13914795.959 3
  23401802.568   -14462852.493 3 -11269743.633 2
  25639277.496    -1769428.040 2  -1378772.011 1
  25399882.426    23014673.650 2  17933511.268 1
 91  7 23  5  5 15.0050000  0  5 23 21 11 12 17
  23184612.525    -3859192.353 4  -3007134.305 2
  22138265.501   -17859599.109 4 -13916539.715 3
  23397318.272   -14486429.359 3 -11288115.201 2
  25636266.086    -1785236.325 2  -1391090.109 1
  25410352.976    23069713.990 2  17976399.790 1
 91  7 23  5  5 30.0050000  0  5 23 21 11 12 17
  23191625.576    -3822351.913 4  -2978427.455 2
  22137856.284   -17861760.123 4 -13918223.603 3
  23392856.164   -14509868.873 3 -11306379.741 2
  25633287.046    -1800915.376 2  -1403307.523 1
  25420831.928    23124801.878 2  18019325.405 1
 91  7 23  5  5 45.0050000  0  5 23 21 11 12 17
  23198640.415    -3785470.499 4  -2949688.681 2
  22137459.353   -17863847.669 4 -13919850.246 3
  23388420.729   -14533173.944 3 -11324539.519 2
  25630322.394    -1816468.141 2  -1415426.794 1
  25431320.765    23179934.294 2  18062285.717 1
 91  7 23  5  6  0.0050000  0  5 23 21 11 12 17
  23205669.947    -3748545.667 4  -2920916.078 2
  22137073.223   -17865859.149 4 -13921417.625 3
  23384015.884   -14556341.691 3 -11342592.287 2
  25627395.224    -1831891.764 2  -1427445.346 1
  25441822.795    23235113.285 2  18105282.313 1
 91  7 23  5  6 15.0050000  0  5 23 21 11 12 17
  23212703.676    -3711580.974 4  -2892112.417 2
  22136703.279   -17867798.092 4 -13922928.483 3
  23379632.014   -14579375.419 4 -11360540.629 2
  25624478.543    -1847189.435 2  -1439365.528
  25452334.413    23290335.461 2  18148312.586 1
 91  7 23  5  6 30.0050000  0  5 23 21 11 12 17
  23219745.206    -3674574.136 4  -2863275.906 2
  22136352.521   -17869662.155 4 -13924380.979 3
  23375271.240   -14602272.233 3 -11378382.297 2
  25621591.840    -1862358.314 2  -1451185.387 1
  25462855.629    23345603.416 2  18191378.422 1
 91  7 23  5  6 45.0050000  0  5 23 21 11 12 17
  23226795.722    -3637529.910 4  -2834410.273 2
  22136009.257   -17871455.903 4 -13925778.681 3
  23370939.834   -14625036.428 3 -11396120.610 2
  25618730.319    -1877402.765 2  -1462908.338 1
  25473383.145    23400912.231 2  18234476.200 1
 91  7 23  5  7  0.0050000  0  5 23 21 11 12 17
  23233852.834    -3600445.676 4  -2805513.464 2
  22135678.890   -17873176.637 4 -13927119.505 3
  23366633.015   -14647664.877 3 -11413753.143 2
  25615888.586    -1892319.662 2  -1474531.911 1
  25483912.755    23456264.273 2  18277607.643 1
 91  7 23  5  7 15.0050000  0  5 23 21 11 12 17
  23240919.247    -3563316.961 4  -2776581.998 2
  22135370.099   -17874820.150 4 -13928400.160 3
  23362356.176   -14670152.925 4 -11431276.289 2
  25613078.333    -1907104.399 2  -1486052.487 1
  25494453.157    23511663.748 2  18320776.039 1
 91  7 23  5  7 30.0050000  0  5 23 21 11 12 17
  23247987.449    -3526151.759 4  -2747622.093 2
  22135069.711   -17876394.121 4 -13929626.623 3
  23358100.923   -14692507.955 3 -11448695.772 2
  25610287.868    -1921764.294 2  -1497475.787 1
  25505000.453    23567102.790 2  18363975.262 1
 91  7 23  5  7 45.0050000  0  5 23 21 11 12 17
  23255069.454    -3488949.593 4  -2718633.383 2
  22134782.210   -17877897.942 4 -13930798.413 3
  23353874.149   -14714729.105 3 -11466010.933 2
  25607527.078    -1936298.461 2  -1508800.926 1
  25515558.245    23622582.251 2  18407206.010 1
 91  7 23  5  8  0.0050000  0  5 23 21 11 12 17
  23262158.047    -3451706.376 4  -2689612.680 2
  22134510.301   -17879327.390 4 -13931912.251 3
  23349673.454   -14736811.756 4 -11483218.171 2
  25604786.077    -1950702.223 2  -1520024.740 1
  25526126.829    23678106.177 2  18450471.426 1
 91  7 23  5  8 15.0050000  0  5 23 21 11 12 17
  23269252.032    -3414419.216 3  -2660557.747 2
  22134252.177   -17880679.540 4 -13932965.860 3
  23345497.652   -14758752.466 4 -11500314.806 2
  25602066.059    -1964972.339 2  -1531144.229 1
  25536702.909    23733677.261 2  18493773.542 1
 91  7 23  5  8 30.0050000  0  5 23 21 11 12 17
  23276354.113    -3377095.749 3  -2631474.507 2
  22134009.942   -17881961.743 4 -13933964.960 3
  23341350.023   -14780558.265 4 -11517306.332 2
  25599376.020    -1979115.871 2  -1542165.111 1
  25547283.185    23789287.908 2  18537106.490 1
 91  7 23  5  8 45.0050000  0  5 23 21 11 12 17
  23283465.792    -3339725.002 3  -2602354.450 2
  22133781.798   -17883163.252 4 -13934901.179 3
  23337223.073   -14802218.107 3 -11534184.103 2
  25596706.669    -1993121.625 2  -1553078.669 1
  25557871.855    23844949.012 2  18580478.767 1
 91  7 23  5  9  0.0050000  0  5 23 21 11 12 17
  23290586.458    -3302315.423 3  -2573204.134 2
  22133562.650   -17884292.340 4 -13935780.976 3
  23333132.105   -14823739.995 3 -11550954.405 2
  25594072.690    -2006997.679 2  -1563891.286 1
  25568476.414    23900652.217 2  18623883.835 1
 91  7 23  5  9 15.0050000  0  5 23 21 11 12 17
  23297710.431    -3264866.021 3  -2544022.775 2
  22133363.595   -17885348.082 4 -13936603.629 3
  23329063.927   -14845122.436 3 -11567616.018 2
  25591459.703    -2020742.617 2  -1574601.554 1
  25579090.866    23956398.217 2  18667322.229 1
 91  7 23  5  9 30.0050000  0  5 23 21 11 12 17
  23304847.291    -3227375.280 4  -2514809.212 2
  22133178.021   -17886328.814 4 -13937367.825 3
  23325021.819   -14866363.345 3 -11584167.358 2
  25588867.098    -2034354.342 2  -1585208.001 1
  25589700.520    24012188.522 2  18710795.188 1
 91  7 23  5  9 45.0050000  0  5 23 21 11 12 17
  23311989.543    -3189847.147 4  -2485566.503 2
  22133005.639   -17887238.316 4 -13938076.504 3
  23321001.010   -14887466.186 4 -11600611.116 2
  25586296.672    -2047836.399 2  -1595713.403 1
  25600323.969    24068019.498 2  18754299.825 1
 91  7 23  5 10  0.0050000  0  5 23 21 11 12 17
  23319136.001    -3152279.561 3  -2456293.056 2
  22132845.550   -17888074.221 4 -13938727.843 3
  23317015.267   -14908428.387 4 -11616945.280 2
  25583760.431    -2061186.180 2  -1606115.894 1
  25610953.708    24123893.338 2  18797837.822 1
 91  7 23  5 10 15.0050000  0  5 23 21 11 12 17
  23326292.047    -3114664.832 3  -2426982.881 2
  22132704.352   -17888829.022 4 -13939315.986 3
  23313053.212   -14929242.003 4 -11633163.668 2
  25581243.674    -2074395.708 2  -1616409.031 1
  25621597.538    24179817.398 2  18841414.989 1
 91  7 23  5 10 30.0050000  0  5 23 21 11 12 17
  23333457.386    -3077016.047 4  -2397646.164 2
  22132575.438   -17889515.676 4 -13939851.025 3
  23309120.230   -14949919.657 3 -11649276.108 2
  25578756.599    -2087477.560 2  -1626602.600 1
  25632250.660    24235778.777 2  18885021.227 1
 91  7 23  5 10 45.0050000  0  5 23 21 11 12 17
  23340629.922    -3039334.913 4  -2368284.237 2
  22132454.316   -17890135.807 4 -13940334.221 3
  23305212.734   -14970462.603 4 -11665283.570 2
  25576281.809    -2100433.063 2  -1636697.797 1
  25642904.385    24291775.734 2  18928655.206 1
 91  7 23  5 11  0.0050000  0  5 23 21 11 12 17
  23347806.953    -3001611.789 4  -2338889.593 2
  22132351.788   -17890679.888 4 -13940758.151 3
  23301330.121   -14990860.846 4 -11681178.294 2
  25573842.399    -2113252.449 2  -1646686.946 1
  25653569.801    24347817.540 2  18972324.105 1
 91  7 23  5 11 15.0050000  0  5 23 21 11 12 17
  23354991.478    -2963845.902 4  -2309461.623 2
  22132257.958   -17891146.897 4 -13941122.047 3
  23297478.989   -15011112.982 4 -11696959.169 2
  25571440.761    -2125934.206 2  -1656568.841 1
  25664246.315    24403905.237 2  19016028.760 1
 91  7 23  5 11 30.0050000  0  5 23 21 11 12 17
  23362185.295    -2926039.755 3  -2280002.282 2
  22132183.908   -17891539.090 4 -13941427.630 3
  23293647.340   -15031221.007 4 -11712627.734 2
  25569045.116    -2138480.312 2  -1666344.969 1
  25674922.524    24460036.312 2  19059767.268 1
 91  7 23  5 11 45.0050000  0  5 23 21 11 12 17
  23369388.108    -2888199.320 3  -2250516.223 2
  22132125.450   -17891862.565 4 -13941679.665 3
  23289846.273   -15051190.506 4 -11728188.373 2
  25566686.353    -2150896.428 2  -1676019.698 1
  25685613.121    24516204.784 2  19103534.829 1
 91  7 23  5 12  0.0050000  0  5 23 21 11 12 17
  23376596.017    -2850321.188 4  -2221000.802 2
  22132078.081   -17892113.793 4 -13941875.403 3
  23286076.083   -15071017.674 4 -11743638.088 2
  25564348.870    -2163178.851 2  -1685590.504 1
  25696305.820    24572414.091 2  19147334.295 1
 91  7 23  5 12 15.0050000  0  5 23 21 11 12 17
  23383811.429    -2812402.248 4  -2191453.556 2
  22132044.201   -17892289.593 4 -13942012.367 3
  23282331.973   -15090699.086 4 -11758974.241 2
  25562036.271    -2175324.002 2  -1695054.210 1
  25707019.800    24628667.140 2  19191167.737 1
 91  7 23  5 12 30.0050000  0  5 23 21 11 12 17
  23391034.920    -2774442.615 4  -2161874.626 2
  22132025.320   -17892390.000 4 -13942090.587 3
  23278609.153   -15110234.470 4 -11774196.604 2
  25559744.054    -2187331.583 2  -1704410.740 1
  25717717.892    24684963.685 2  19235035.183 1
 91  7 23  5 12 45.0050000  0  5 23 21 11 12 17
  23398266.220    -2736443.265 3  -2132264.735 2
  22132020.818   -17892415.928 4 -13942110.789 3
  23274921.110   -15129624.283 4 -11789305.525 2
  25557487.820    -2199202.135 2  -1713660.528 1
  25728447.167    24741303.054 2  19278935.980 1
 91  7 23  5 13  0.0050000  0  5 23 21 11 12 17
  23405505.007    -2698402.117 4  -2102622.274 2
  22132028.618   -17892365.127 4 -13942071.168 3
  23271260.639   -15148865.976 4 -11804299.029 2
  25555255.265    -2210933.054 2  -1722801.499 1
  25739176.442    24797687.151 2  19322871.625 1
 91  7 23  5 13 15.0050000  0  5 23 21 11 12 17
  23412750.992    -2660319.428 3  -2072947.440 2
  22132057.394   -17892237.872 4 -13941971.988 3
  23267627.155   -15167959.400 4 -11819177.004 2
  25553054.487    -2222524.388 2  -1731833.725 1
  25749914.102    24854115.727 2  19366841.875 1
 91  7 23  5 13 30.0050000  0  5 23 21 11 12 17
  23420003.573    -2622198.760 3  -2043243.025 2
  22132091.875   -17892037.754 4 -13941816.032 3
  23264021.852   -15186907.817 4 -11833941.988 2
  25550868.699    -2233979.334 2  -1740759.604 1
  25760659.265    24910585.207 2  19410844.038 1
 91  7 23  5 13 45.0050000  0  5 23 21 11 12 17
  23427269.041    -2584032.821 3  -2013503.336 2
  22132145.238   -17891757.422 4 -13941597.573 3
  23260447.132   -15205703.569 4 -11848588.011 2
  25548725.786    -2245290.332 2  -1749573.356 1
  25771413.721    24967102.673 2  19454883.553 1
 91  7 23  5 14  0.0050000  0  5 23 21 11 12 17
  23434534.805    -2545834.738 3  -1983738.589 2
  22132212.692   -17891409.793 4 -13941326.687 3
  23256896.388   -15224359.336 4 -11863124.950 2
  25546599.058    -2256469.974 2  -1758284.752 1
  25782177.172    25023654.992 2  19498950.264 1
 91  7 23  5 14 15.0050000  0  5 23 21 11 12 17
  23441816.467    -2507594.327 4  -1953940.875 2
  22132293.329   -17890984.604 4 -13940995.343 3
  23253374.724   -15242864.392 4 -11877544.461 2
  25544493.018    -2267507.576 2  -1766885.453 1
  25792947.813    25080252.354 2  19543052.076 1
 91  7 23  5 14 30.0050000  0  5 23 21 11 12 17
  23449100.223    -2469314.826 3  -1924112.682 2
  22132388.363   -17890484.895 4 -13940605.946 3
  23249881.845   -15261221.470 4 -11891848.657 2
  25542423.247    -2278406.048 2  -1775377.745 1
  25803727.153    25136891.832 2  19587186.691 1
 91  7 23  5 14 45.0050000  0  5 23 21 11 12 17
  23456386.683    -2430998.824 3  -1894256.053 2
  22132494.190   -17889913.277 4 -13940160.512 3
  23246415.638   -15279432.899 4 -11906039.359 2
  25540379.862    -2289167.588 2  -1783763.338 1
  25814508.883    25193570.656 2  19631351.986 1
 91  7 23  5 15  0.0050000  0  5 23 21 11 12 17
  23463689.329    -2392640.648 3  -1864366.572 2
  22132617.711   -17889264.091 4 -13939654.639 3
  23242978.521   -15297492.619 4 -11920111.860 2
  25538350.864    -2299786.186 2  -1792037.481 1
  25825303.518    25250294.384 2  19675552.247 1
 91  7 23  5 15 15.0050000  0  5 23 21 11 12 17
  23470996.765    -2354248.308 3  -1834450.460 2
  22132755.612   -17888545.155 4 -13939094.407 3
  23239567.484   -15315408.007 4 -11934071.870 2
  25536361.147    -2310269.311 2  -1800206.195 1
  25836108.632    25307054.989 2  19719781.248 1
 91  7 23  5 15 30.0050000  0  5 23 21 11 12 17
  23478308.703    -2315818.730 3  -1804505.325 2
  22132907.307   -17887753.164 4 -13938477.265 3
  23236189.418   -15333175.606 4 -11947916.738 2
  25534392.404    -2320613.411 2  -1808266.535 1
  25846912.254    25363855.467 2  19764041.339 1
 91  7 23  5 15 45.0050000  0  5 23 21 11 12 17
  23485626.338    -2277351.570 3  -1774530.903 2
  22133072.490   -17886888.122 4 -13937803.197 3
  23232836.839   -15350794.843 4 -11961645.996 2
  25532447.953    -2330818.008 2  -1816218.081 1
  25857732.663    25420696.069 2  19808332.700 1
 91  7 23  5 16  0.0050000  0  5 23 21 11 12 17
  23492952.664    -2238852.864 3  -1744531.909 2
  22133250.866   -17885955.697 4 -13937076.613 3
  23229508.245   -15368271.203 4 -11975263.910 2
  25530528.682    -2340888.602 2  -1824065.320 1
  25868559.371    25477571.018 2  19852650.783 1
 91  7 23  5 16 15.0050000  0  5 23 21 11 12 17
  23500285.594    -2200307.270 3  -1714496.384 2
  22133443.639   -17884940.652 4 -13936285.654 3
  23226215.022   -15385589.017 4 -11988758.299 2
  25528635.193    -2350809.607 2  -1831795.939 1
  25879389.674    25534495.527 2  19897007.594 1
 91  7 23  5 16 30.0050000  0  5 23 21 11 12 17
  23507634.404    -2161713.623 3  -1684423.400 2
  22133651.393   -17883841.801 4 -13935429.394 3
  23222950.889   -15402746.863 4 -12002128.030 2
  25526784.877    -2360579.544 2  -1839408.851 1
  25890231.669    25591470.523 2  19941403.607 1
 91  7 23  5 16 45.0050000  0  5 23 21 11 12 17
  23514983.817    -2123089.809 3  -1654326.933 2
  22133869.939   -17882676.621 4 -13934521.444 3
  23219714.327   -15419762.034 4 -12015386.586 2
  25524946.549    -2370215.664 2  -1846917.490 1
  25901081.455    25648478.230 2  19985825.129 1
 91  7 23  5 17  0.0050000  0  5 23 21 11 12 17
  23522341.622    -2084434.227 3  -1624205.690 2
  22134107.672   -17881443.560 4 -13933560.604 3
  23216500.547   -15436632.522 4 -12028532.405 2
  25523136.996    -2379716.107 2  -1854320.408 1
  25911934.540    25705520.308 2  20030273.572 1
 91  7 23  5 17 15.0050000  0  5 23 21 11 12 17
  23529700.624    -2045739.712 3  -1594054.123 2
  22134360.997   -17880135.479 4 -13932541.307 3
  23213319.756   -15453350.858 4 -12041559.657 2
  25521356.533    -2389073.388 2  -1861611.778 1
  25922795.721    25762603.576 2  20074753.992
 91  7 23  5 17 30.0050000  0  5 23 21 11 12 17
  23537074.326    -2007011.860 3  -1563876.580 2
  22134617.323   -17878757.756 4 -13931467.753 3
  23210168.936   -15469922.064 4 -12054472.275 2
  25519605.744    -2398292.523 2  -1868795.502 1
  25933663.202    25819722.687 2  20119262.268 1
 91  7 23  5 17 45.0050000  0  5 23 21 11 12 17
  23544446.223    -1968250.914 3  -1533673.240 2
  22134895.829   -17877310.826 4 -13930340.259 3
  23207040.304   -15486346.254 4 -12067270.329 2
  25517881.636    -2407373.605 2  -1875871.696 1
  25944541.764    25876877.272 2  20163798.340 1
 91  7 23  5 18  0.0050000  0  5 23 21 11 12 17
  23551831.007    -1929455.402 3  -1503442.959 2
  22135180.337   -17875793.034 4 -13929157.556 3
  23203942.541   -15502621.309 4 -12079952.176 2
  25516180.319    -2416314.720 2  -1882838.765 1
  25955426.930    25934068.841 2  20208363.156 1
 91  7 23  5 18 15.0050000  0  5 23 21 11 12 17
  23559216.096    -1890624.674 3  -1473185.251 2
  22135484.922   -17874203.494 4 -13927918.949 3
  23200874.767   -15518746.161 4 -12092516.966 2
  25514498.179    -2425114.810 2  -1889696.006 1
  25966317.794    25991298.039 2  20252957.364 1
 91  7 23  5 18 30.0050000  0  5 23 21 11 12 17
  23566619.770    -1851753.660 3  -1442896.147 2
  22135802.402   -17872537.211 4 -13926620.532 3
  23197836.073   -15534715.530 4 -12104960.616 2
  25512854.717    -2433768.537 2  -1896439.099 1
  25977215.246    26048569.930 2  20297584.747 1
 91  7 23  5 18 45.0050000  0  5 23 21 11 12 17
  23574023.147    -1812845.651 3  -1412578.209 2
  22136132.770   -17870797.516 4 -13925264.911 3
  23194824.654   -15550532.436 4 -12117285.459 2
  25511241.837    -2442278.817 2  -1903070.448 1
  25988118.404    26105880.851 2  20342242.642 1
 91  7 23  5 19  0.0050000  0  5 23 21 11 12 17
  23581432.518    -1773902.610 3  -1382232.989 2
  22136479.331   -17868986.164 4 -13923853.470 3
  23191846.522   -15566198.351 4 -12129492.655 2
  25509638.546    -2450647.369 2  -1909591.414 1
  25999026.046    26163228.956 2  20386929.359 1
 91  7 23  5 19 15.0050000  0  5 23 21 11 12 17
  23588846.679    -1734924.962 3  -1351860.785 2
  22136837.288   -17867103.551 4 -13922386.488 3
  23188894.163   -15581713.370 4 -12141582.260 2
  25508078.724    -2458874.094 2  -1916001.822 1
  26009949.289    26220613.806 2  20431644.836 1
 91  7 23  5 19 30.0050000  0  5 23 21 11 12 17
  23596272.244    -1695908.238 3  -1321458.153 2
  22137210.225   -17865145.160 4 -13920860.454 3
  23185973.886   -15597072.419 4 -12153550.328 2
  25506542.590    -2466954.189 2  -1922297.983 1
  26020880.620    26278039.952 2  20476392.454 1
 91  7 23  5 19 45.0050000  0  5 23 21 11 12 17
  23603701.395    -1656861.235 3  -1291031.899 2
  22137596.363   -17863119.534 4 -13919282.035 3
  23183077.290   -15612283.859 4 -12165403.383 2
  25505028.932    -2474896.027 2  -1928486.425 1
  26031810.756    26335498.531 2  20521165.323 1
 91  7 23  5 20  0.0050000  0  5 23 21 11 12 17
  23611140.746    -1617770.984 3  -1260571.953 2
  22137995.389   -17861013.804 4 -13917641.195 3
  23180211.275   -15627334.519 4 -12177131.160 2
  25503553.655    -2482686.253 2  -1934556.705 1
  26042756.475    26393002.472 2  20565973.604 1
 91  7 23  5 20 15.0050000  0  5 23 21 11 12 17
  23618590.288    -1578645.722 3  -1230084.752 2
  22138406.699   -17858836.138 4 -13915944.300 3
  23177378.537   -15642232.220 4 -12188739.736 2
  25502091.266    -2490332.816 2  -1940515.036 1
  26053703.093    26450543.424 2  20610810.660 1
 91  7 23  5 20 30.0050000  0  5 23 21 11 12 17
  23626041.033    -1539479.806 3  -1199565.862 2
  22138838.697   -17856580.824 4 -13914186.903 3
  23174570.981   -15656971.028 4 -12200224.500 2
  25500663.960    -2497829.793 2  -1946356.863 1
  26064664.709    26508127.022 2  20655680.992 1
 91  7 23  5 20 45.0050000  0  5 23 21 11 12 17
  23633499.570    -1500278.323 3  -1169019.250 2
  22139278.494   -17854252.888 4 -13912372.910 3
  23171796.396   -15671555.528 4 -12211589.027 2
  25499268.126    -2505181.931 2  -1952085.770 1
  26075621.526    26565747.910 2  20700580.380 1
 91  7 23  5 21  0.0050000  0  5 23 21 11 12 17
  23640963.805    -1461044.461 3  -1138447.410 2
  22139735.079   -17851855.520 4 -13910504.827 3
  23169052.995   -15685988.639 4 -12222835.593 2
  25497893.572    -2512392.082 2  -1957704.008 1
  26086596.029    26623403.118 2  20745506.500 1
 91  7 23  5 21 15.0050000  0  5 23 21 11 12 17
  23648440.028    -1421772.583 3  -1107845.946 2
  22140210.249   -17849382.928 4 -13908578.116 3
  23166332.986   -15700264.237 4 -12233959.417 2
  25496547.803    -2519454.173 2  -1963206.942 1
  26097580.723    26681098.259 2  20790463.693 1
 91  7 23  5 21 30.0050000  0  5 23 21 11 12 17
  23655921.050    -1382463.305 3  -1077215.328 2
  22140693.821   -17846835.436 4 -13906593.045 3
  23163643.244   -15714382.431 4 -12244960.599 2
  25495235.913    -2526368.353 2  -1968594.574 1
  26108567.816    26738832.658 2  20835451.523 1
 91  7 23  5 21 45.0050000  0  5 23 21 11 12 17
  23663407.464    -1343120.460 3  -1046558.574 2
  22141191.475   -17844217.107 4 -13904552.764 3
  23160988.281   -15728346.910 4 -12255841.992 2
  25493946.804    -2533138.318 2  -1973869.853 1
  26119560.302    26796602.181 2  20880466.641 1
 91  7 23  5 22  0.0050000  0  5 23 21 11 12 17
  23670899.575    -1303743.484 3  -1015875.200 2
  22141703.516   -17841527.374 4 -13902456.865 3
  23158363.602   -15742156.795 4 -12266602.924 2
  25492683.478    -2539763.189 2  -1979032.113 1
  26130560.587    26854407.356 2  20925509.581 1
 91  7 23  5 22 15.0050000  0  5 23 21 11 12 17
  23678399.783    -1264329.922 3   -985163.336 2
  22142229.649   -17838763.390 4 -13900303.090 3
  23155763.197   -15755809.141 4 -12277241.103 2
  25491448.937    -2546240.002 2  -1984078.885 1
  26141569.267    26912250.820 2  20970582.395 1
 91  7 23  5 22 30.0050000  0  5 23 21 11 12 17
  23685907.190    -1224874.715 3   -954419.031 2
  22142769.280   -17835920.382 4 -13898087.754 3
  23153196.977   -15769298.720 4 -12287752.447 2
  25490246.172    -2552563.750 2  -1989006.549 1
  26152576.445    26970137.412 2  21015688.792 1
 91  7 23  5 22 45.0050000  0  5 23 21 11 12 17
  23693422.981    -1185388.578 3   -923650.612 2
  22143321.501   -17833008.904 4 -13895819.067 3
  23150658.031   -15782635.746 4 -12298144.919 2
  25489072.479    -2558744.640 2  -1993822.758 1
  26163606.710    27028056.519 2  21060820.455 1
 91  7 23  5 23  0.0050000  0  5 23 21 11 12 17
  23700945.377    -1145866.152 3   -892853.915 2
  22143892.306   -17830023.396 4 -13893492.684 3
  23148150.269   -15795814.469 4 -12308414.035 2
  25487929.969    -2564776.840 2  -1998523.224 1
  26174625.886    27086013.415 2  21105981.725 1
 91  7 23  5 23 15.0050000  0  5 23 21 11 12 17
  23708467.765    -1106308.562 3   -862029.822 2
  22144475.100   -17826965.018 4 -13891109.523 3
  23145672.181   -15808835.542 4 -12318560.323 2
  25486806.655    -2570661.074 2  -2003108.299 1
  26185663.943    27144007.034 2  21151171.509 1
 91  7 23  5 23 30.0050000  0  5 23 21 11 12 17
  23716006.050    -1066717.390 3   -831179.556 2
  22145066.287   -17823835.285 4 -13888670.760 3
  23143225.582   -15821700.311 4 -12328584.792 2
  25485715.109    -2576398.676 2  -2007579.162 1
  26196708.299    27202035.792 2  21196388.686 1
 91  7 23  5 23 45.0050000  0  5 23 21 11 12 17
  23723543.732    -1027095.753 3   -800305.561 2
  22145680.866   -17820637.425 4 -13886178.916 3
  23140805.054   -15834411.593 4 -12338489.674 2
  25484648.447    -2581992.546 2  -2011938.008 1
  26207760.141    27260096.234 2  21241630.582 1
 91  7 23  5 24  0.0050000  0  5 23 21 11 12 17
  23731089.206     -987432.724 3   -769399.292 2
  22146299.337   -17817360.295 4 -13883625.304 3
  23138418.108   -15846957.968 4 -12348266.058 2
  25483614.757    -2587431.313 2  -2016175.962 1
  26218810.492    27318199.282 2  21286905.619 1
 91  7 23  5 24 15.0050000  0  5 23 21 11 12 17
  23738646.974     -947734.100 3   -738465.303 2
  22146938.198   -17814009.681 4 -13881014.432 3
  23136059.641   -15859345.054 4 -12357918.321 2
  25482605.664    -2592720.544 2  -2020297.300 1
  26229878.231    27376339.264 2  21332209.388 1
 91  7 23  5 24 30.0050000  0  5 23 21 11 12 17
  23746205.641     -908004.840 3   -707507.432 2
  22147587.843   -17810590.392 4 -13878350.045 3
  23133733.553   -15871577.348 4 -12367449.963 2
  25481628.338    -2597864.818 2  -2024305.894 1
  26240948.667    27434511.040 2  21377538.041 1
 91  7 23  5 24 45.0050000  0  5 23 21 11 12 17
  23753774.507     -868241.443 3   -676522.973 2
  22148253.682   -17807098.840 4 -13875629.342 3
  23131433.842   -15883650.933 3 -12376857.938 2
  25480680.093    -2602860.271 2  -2028198.392 1
  26252022.104    27492718.334 2  21422894.351 1
 91  7 23  5 25  0.0050000  0  5 23 21 11 12 17
  23761347.561     -828441.867 3   -645510.310 2
  22148934.215   -17803533.021 4 -13872850.763 3
  23129170.705   -15895563.507 4 -12386140.440 2
  25479755.528    -2607704.700 2  -2031973.322 1
  26263105.426    27550962.932 2  21468279.799 1
 91  7 23  5 25 15.0050000  0  5 23 21 11 12 17
  23768929.314     -788605.340 3   -614468.848 2
  22149626.430   -17799892.025 4 -13870013.628 3
  23126934.259   -15907313.964 4 -12395296.634 2
  25478864.852    -2612397.055 2  -2035629.680 1
  26274199.847    27609245.313 2  21513694.609 1
 91  7 23  5 25 30.0050000  0  5 23 21 11 12 17
  23776511.966     -748736.071 3   -583401.890 2
  22150333.940   -17796180.137 4 -13867121.243 3
  23124725.088   -15918906.387 4 -12404329.674 2
  25477999.347    -2616941.235 2  -2039170.589 1
  26285293.971    27667561.242 2  21559135.426 1
 91  7 23  5 25 45.0050000  0  5 23 21 11 12 17
  23784108.107     -708829.846 3   -552306.132 2
  22151050.743   -17792392.949 4 -13864170.179 3
  23122553.688   -15930336.037 4 -12413235.883 2
  25477157.234    -2621332.680 2  -2042592.486 1
  26296399.482    27725915.136 2  21604606.013 1
 91  7 23  5 26  0.0050000  0  5 23 21 11 12 17
  23791707.843     -668886.340 3   -521181.331 2
  22151789.733   -17788529.977 4 -13861160.074 3
  23120409.571   -15941602.062 4 -12422014.605 2
  25476357.386    -2625570.474 2  -2045894.618 1
  26307510.987    27784307.472 2  21650106.552 1
 91  7 23  5 26 15.0050000  0  5 23 21 11 12 17
  23799316.574     -628908.073 3   -490029.439 2
  22152538.915   -17784593.896 4 -13858092.987 3
  23118298.731   -15952706.845 4 -12430667.660 2
  25475580.625    -2629657.138 2  -2049079.049 1
  26318631.190    27842735.275 2  21695634.674 1
 91  7 23  5 26 30.0050000  0  5 23 21 11 12 17
  23806929.807     -588897.841 3   -458852.630 2
  22153298.593   -17780587.325 4 -13854970.974 3
  23116210.682   -15963652.722 4 -12439196.899 2
  25474833.537    -2633594.953 2  -2052147.473 1
  26329758.287    27901195.905 2  21741188.417 1
 91  7 23  5 26 45.0060000  0  5 23 21 11 12 17
  23814551.725     -548848.588 3   -427645.426 2
  22154075.349   -17776505.616 4 -13851790.409 3
  23114163.094   -15974435.752 4 -12447599.257 2
  25474116.432    -2637379.582 2  -2055096.462 1
  26340885.081    27959697.409 2  21786773.904 1
 91  7 23  5 27  0.0060000  0  5 23 21 11 12 17
  23822176.354     -508775.160 3   -396419.385 2
  22154865.006   -17772358.668 4 -13848559.014 3
  23112135.902   -15985063.641 4 -12455880.720 2
  25473416.417    -2641019.718 2  -2057932.950 1
  26352025.370    28018222.637 2  21832377.889 1
 91  7 23  5 27 15.0060000  0  5 23 21 11 12 17
  23829810.265     -468665.824 3   -365165.353 2
  22155669.051   -17768137.262 4 -13845269.602 3
  23110146.176   -15995527.927 4 -12464034.696 2
  25472755.377    -2644506.392 2  -2060649.774 1
  26363173.153    28076784.144 2  21878010.276 1
 91  7 23  5 27 30.0060000  0  5 23 21 11 12 17
  23837446.882     -428519.664 3   -333882.629 2
  22156487.187   -17763840.308 4 -13841921.326 3
  23108185.539   -16005827.233 4 -12472060.104 2
  25472116.524    -2647838.364 2  -2063246.151 1
  26374318.538    28135382.959 2  21923671.549 1
 91  7 23  5 27 45.0060000  0  5 23 21 11 12 17
  23845094.588     -388344.761 3   -302577.513 2
  22157314.310   -17759475.821 4 -13838520.428 3
  23106260.571   -16015969.195 4 -12479962.936 2
  25471510.338    -2651023.300 2  -2065727.881 1
  26385478.912    28194010.990 2  21969355.784 1
 91  7 23  5 28  0.0060000  0  5 23 21 11 12 17
  23852747.085     -348135.397 3   -271245.530 2
  22158162.120   -17755037.884 4 -13835062.300 3
  23104355.391   -16025947.740 4 -12487738.409 2
  25470936.235    -2654055.075 2  -2068090.270 1
  26396644.687    28252674.077 2  22015067.148 1
 91  7 23  5 28 15.0060000  0  5 23 21 11 12 17
  23860404.388     -307888.482 3   -239884.292 2
  22159021.028   -17750523.430 4 -13831544.523 3
  23102490.975   -16035759.720 4 -12495384.097 2
  25470390.916    -2656930.666 2  -2070331.006 1
  26407811.657    28311374.979 2  22060808.138 1
 91  7 23  5 28 30.0060000  0  5 23 21 11 12 17
  23868065.278     -267616.380 3   -208503.429 2
  22159891.925   -17745944.949 4 -13827976.867 3
  23100652.952   -16045417.069 4 -12502909.292 2
  25469867.479    -2659662.054 2  -2072459.349 1
  26418984.918    28370101.262 2  22106568.855 1
 91  7 23  5 28 45.0060000  0  5 23 21 11 12 17
  23875738.471     -227308.732 3   -177094.885 2
  22160776.913   -17741291.802 4 -13824351.040 3
  23098846.104   -16054909.029 4 -12510305.603 2
  25469378.812    -2662238.397 2  -2074466.824 1
  26430172.270    28428863.248 2  22152357.366 1
 91  7 23  5 29  0.0060000  0  5 23 21 11 12 17
  23883416.156     -186967.257 3   -145659.956 2
  22161677.789   -17736565.785 4 -13820668.411 3
  23097067.133   -16064237.135 4 -12517574.253 2
  25468919.531    -2664661.249 2  -2076354.756 1
  26441354.535    28487658.936 2  22198172.137 1
 91  7 23  5 29 15.0060000  0  5 23 21 11 12 17
  23891097.140     -146596.304 3   -114202.066 2
  22162590.357   -17731771.212 4 -13816932.381 3
  23095323.237   -16073405.463 4 -12524718.402 2
  25468486.338    -2666934.729 2  -2078126.338 1
  26452541.285    28546484.177 2  22244009.861 1
 91  7 23  5 29 30.0060000  0  5 23 21 11 12 17
  23898789.214     -106193.126 3    -82719.066 2
  22163518.211   -17726905.188 4 -13813140.677 3
  23093612.923   -16082410.894 4 -12531735.617 2
  25468083.412    -2669055.779 2  -2079779.079 1
  26463752.326    28605341.710 2  22289872.873 1
 91  7 23  5 29 45.0060000  0  5 23 21 11 12 17
  23906481.889      -65755.678 3    -51209.368 2
  22164456.867   -17721965.860 4 -13809291.848 3
  23091930.190   -16091251.075 4 -12538624.062 2
  25467704.777    -2671022.127 2  -2081311.257 1
  26474961.264    28664233.526 2  22335762.546 1
 91  7 23  5 30  0.0060000  0  5 23 21 11 12 17
  23914185.052      -25276.308 3    -19666.992 2
  22165412.302   -17716945.474 4 -13805379.841 3
  23090282.532   -16099917.986 4 -12545377.488 2
  25467366.906    -2672825.947 2  -2082716.776 1
  26486167.209    28723167.080 2  22381684.746 1
 91  7 23  5 30 15.0060000  0  5 23 21 11 12 17
  23921893.921       15242.442 3     11906.054 2
  22166381.836   -17711846.191 4 -13801406.368 3
  23088666.947   -16108413.883 4 -12551997.651 2
  25467054.225    -2674469.324 2  -2083997.378 1
  26497384.244    28782139.874 2  22427637.508 1
 91  7 23  5 30 30.0060000  0  5 23 21 11 12 17
  23929610.573       55794.752 3     43505.259 2
  22167366.647   -17706673.948 4 -13797376.046 3
  23087078.646   -16116744.399 4 -12558488.959 2
  25466770.022    -2675957.919 2  -2085157.244 1
  26508621.364    28841146.073 2  22473616.285 1
 91  7 23  5 30 45.0060000  0  5 23 21 11 12 17
  23937331.431       96382.436 3     75132.026 2
  22168365.856   -17701426.814 4 -13793287.360 3
  23085523.927   -16124907.283 4 -12564849.634 2
  25466511.305    -2677289.567 2  -2086194.892 1
  26519859.086    28900187.264 2  22519622.403 1
 91  7 23  5 31  0.0060000  0  5 23 21 11 12 17
  23945063.980      137005.243 3    106786.166 2
  22169377.357   -17696105.061 4 -13789140.523 3
  23084004.877   -16132902.502 4 -12571079.665 2
  25466292.453    -2678464.217 2  -2087110.250 1
  26531089.907    28959263.119 2  22565655.485 1
 91  7 23  5 31 15.0060000  0  5 23 21 11 12 17
  23952799.522      177657.813 3    138463.495 2
  22170400.848   -17690714.015 4 -13784939.692 3
  23082514.908   -16140735.215 4 -12577183.061 2
  25466099.384    -2679487.085 2  -2087907.208 1
  26542342.016    29018368.254 2  22611711.450 1
 91  7 23  5 31 30.0060000  0  5 23 21 11 12 17
  23960544.356      218344.559 3    170167.448 2
  22171444.432   -17685249.108 4 -13780681.327 3
  23081054.019   -16148400.640 4 -12583156.116 2
  25465936.599    -2680353.459 2  -2088582.310 1
  26553595.932    29077507.073 2  22657793.538 1
 91  7 23  5 31 45.0060000  0  5 23 21 11 12 17
  23968290.098      259062.188 3    201895.489 2
  22172495.502   -17679713.762 4 -13776368.081 3
  23079628.206   -16155901.844 4 -12589001.200 2
  25465799.292    -2681066.483 2  -2089137.890 1
  26564852.832    29136676.145 2  22703899.305 1
 91  7 23  5 32  0.0060000  0  5 23 21 11 12 17
  23976044.233      299816.605 3    233652.178 2
  22173564.258   -17674101.980 4 -13771995.269 3
  23078235.966   -16163232.655 4 -12594713.516 2
  25465689.269    -2681619.977 2  -2089569.149 1
  26576125.935    29195881.196 2  22750033.094 1
 91  7 23  5 32 15.0060000  0  5 23 21 11 12 17
  23983805.558      340601.302 3    265432.468 2
  22174645.011   -17668420.185 4 -13767567.885 3
  23076864.117   -16170399.219 4 -12600297.843 2
  25465618.822    -2682020.100 2  -2089880.969 1
  26587400.529    29255115.746 2  22796189.865 1
 91  7 23  5 32 30.0060000  0  5 23 21 11 12 17
  23991577.675      381417.942 3    297237.622 2
  22175738.058   -17662666.657 4 -13763084.614 3
  23075538.433   -16177399.562 4 -12605752.644 2
  25465566.655    -2682264.927 2  -2090071.693 1
  26598676.615    29314381.363 2  22842370.833 1
 91  7 23  5 32 45.0060000  0  5 23 21 11 12 17
  23999347.097      422259.891 3    329062.527 2
  22176844.288   -17656847.979 4 -13758550.586 3
  23074234.343   -16184240.053 4 -12611082.885 2
  25465552.860    -2682360.924 2  -2090146.514 1
  26609960.205    29373671.361 2  22888570.790 1
 91  7 23  5 33  0.0060000  0  5 23 21 11 12 17
  24007124.615      463128.763 3    360908.406 2
  22177966.712   -17650962.607 4 -13753964.567 3
  23072964.421   -16190918.846 4 -12616287.133 2
  25465563.653    -2682306.201 2  -2090103.820 1
  26621251.892    29432987.321 2  22934790.915 1
 91  7 23  5 33 15.0060000  0  5 23 21 11 12 17
  24014908.128      504035.883 3    392784.064 2
  22179102.922   -17644998.833 4 -13749317.461 3
  23071725.979   -16197424.108 4 -12621356.167 2
  25465605.630    -2682088.973 2  -2089934.580 1
  26632541.476    29492340.785 2  22981040.333 1
 91  7 23  5 33 30.0060000  0  5 23 21 11 12 17
  24022696.736      544969.985 3    424680.753 2
  22180251.434   -17638968.049 4 -13744618.142 3
  23070518.110   -16203766.977 4 -12626298.646 2
  25465680.273    -2681720.523 2  -2089647.438 1
  26643840.955    29551720.001 2  23027309.806 1
 91  7 23  5 33 45.0060000  0  4 23 21 11 12
  24030491.940      585931.007 3    456598.444 2
  22181409.230   -17632870.316 4 -13739866.643 3
  23069344.129   -16209947.318 4 -12631114.493 2
  25465768.414    -2681200.663 2  -2089242.310 1
 91  7 23  5 34  0.0060000  0  4 23 21 11 12
  24038292.833      626930.023 3    488545.743 2
  22182583.516   -17626694.461 4 -13735054.269 3
  23068200.416   -16215953.745 4 -12635794.810 2
  25465904.822    -2680517.975 2  -2088710.368 1
 91  7 23  5 34 15.0060000  0  4 23 21 11 12
  24046103.629      667966.051 3    520521.858 2
  22183773.394   -17620441.512 4 -13730181.826 3
  23067090.887   -16221787.016 4 -12640340.205 2
  25466061.011    -2679673.311 2  -2088052.160 1
 91  7 23  5 34 30.0060000  0  4 23 21 11 12
  24053917.723      709034.799 3    552523.497 2
  22184978.559   -17614115.742 4 -13725252.655 3
  23066011.635   -16227451.224 4 -12644753.876 2
  25466251.977    -2678670.750 2  -2087270.920 1
 91  7 23  5 34 45.0060000  0  4 23 21 11 12
  24061741.703      750139.128 3    584552.845 2
  22186196.916   -17607714.171 4 -13720264.418 3
  23064966.855   -16232943.186 4 -12649033.318 2
  25466472.024    -2677507.138 2  -2086364.178 1
 91  7 23  5 35  0.0060000  0  4 23 21 11 12
  24069567.785      791268.480 3    616601.689 2
  22187427.261   -17601247.188 4 -13715225.202 3
  23063954.158   -16238273.145 4 -12653186.500 2
  25466724.450    -2676192.766 2  -2085339.953 1
 91  7 23  5 35 15.0060000  0  4 23 21 11 12
  24077400.760      832426.841 3    648673.125 2
  22188669.899   -17594710.757 4 -13710131.872 3
  23062969.338   -16243436.784 4 -12657210.117 2
  25467004.160    -2674723.352 2  -2084194.970 1
 91  7 23  5 35 30.0060000  0  4 23 21 11 12
  24085238.534      873617.821 3    680770.002 2
  22189927.537   -17588101.262 4 -13704981.616 3
  23062021.093   -16248430.275 4 -12661101.140 2
  25467311.144    -2673095.212 2  -2082926.318 1
 91  7 23  5 35 45.0060000  0  4 23 21 11 12
  24093079.912      914844.097 3    712894.375 2
  22191201.053   -17581416.033 4 -13699772.332 3
  23061102.531   -16253250.711 4 -12664857.322 2
  25467659.503    -2671305.478 3  -2081531.724 1
 91  7 23  5 36  0.0060000  0  4 23 21 11 12
  24100936.270      956107.194 3    745047.434 2
  22192487.763   -17574653.418 4 -13694502.759 3
  23060220.545   -16257896.113 4 -12668477.107 2
  25468029.753    -2669352.112 3  -2080009.607 1
 91  7 23  5 36 15.0060000  0  4 23 21 11 12
  24108791.730      997403.586 3    777226.450 2
  22193787.961   -17567817.081 4 -13689175.745 3
  23059365.231   -16262370.048 4 -12671963.278 2
  25468430.576    -2667238.723 2  -2078362.783 1
 91  7 23  5 36 30.0060000  0  4 23 21 11 12
  24116657.983     1038730.614 3    809429.331 2
  22195101.352   -17560909.429 4 -13683793.152 3
  23058551.597   -16266674.725 4 -12675317.560 2
  25468858.978    -2664967.595 2  -2076593.073 1
 91  7 23  5 36 45.0060000  0  4 23 21 11 12
  24124532.935     1080093.643 3    841660.259 2
  22196429.130   -17553925.441 4 -13678351.095 3
  23057762.847   -16270804.873 4 -12678535.852 2
  25469320.659    -2662533.456 2  -2074696.315 1
 91  7 23  5 37  0.0060000  0  4 23 21 11 12
  24132408.785     1121490.683 3    873917.699 2
  22197775.798   -17546866.866 4 -13672850.896 3
  23057012.165   -16274761.961 4 -12681619.288 2
  25469810.521    -2659937.872 2  -2072673.747 1
 91  7 23  5 37 15.0060000  0  4 23 21 11 12
  24140289.129     1162914.327 3    906195.861 2
  22199130.860   -17539740.887 4 -13667298.176 3
  23056288.766   -16278553.058 4 -12684573.376 2
  25470341.148    -2657187.842 2  -2070530.851 1
 91  7 23  5 37 30.0060000  0  4 23 21 11 12
  24148178.163     1204369.843 3    938498.861 2
  22200498.512   -17532542.321 4 -13661688.914 3
  23055595.041   -16282172.711 4 -12687393.876 2
  25470896.361    -2654278.013 2  -2068263.485 1
 91  7 23  5 37 45.0060000  0  4 23 21 11 12
  24156069.902     1245851.443 3    970822.178 2
  22201885.054   -17525276.776 4 -13656027.451 3
  23054946.591   -16285626.389 4 -12690085.050 2
  25471474.967    -2651213.959 2  -2065875.881 1
 91  7 23  5 38  0.0060000  0  4 23 21 11 12
  24163970.627     1287368.134 3   1003172.845 2
  22203279.989   -17517935.137 4 -13650306.689 3
  23054316.726   -16288904.810 4 -12692639.646 2
  25472091.038    -2647986.388 2  -2063360.870 1
 91  7 23  5 38 15.0060000  0  4 23 21 11 12
  24171876.754     1328921.882 3   1035552.377 2
  22204693.213   -17510515.447 4 -13644525.112 3
  23053730.634   -16292005.870 4 -12695056.048 2
  25472735.893    -2644593.287 2  -2060716.899 1
 91  7 23  5 38 30.0060000  0  4 23 21 11 12
  24179796.378     1370506.959 3   1067956.327 1
  22206114.524   -17503023.558 4 -13638687.269 3
  23053170.918   -16294935.147 4 -12697338.590 2
  25473412.822    -2641040.264 2  -2057948.282 1
 91  7 23  5 38 45.0060000  0  4 23 21 11 12
  24187711.797     1412123.405 3   1100384.722 2
  22207557.727   -17495459.272 4 -13632793.013 3
  23052646.888   -16297692.228 4 -12699486.949 2
  25474115.839    -2637326.925 2  -2055054.781 1
 91  7 23  5 39  0.0060000  0  4 23 21 11 12
  24195636.508     1453765.039 3   1132832.757 2
  22209006.322   -17487828.855 4 -13626847.213 3
  23052153.126   -16300283.158 4 -12701505.858 2
  25474858.424    -2633459.400 2  -2052041.062 1
 91  7 23  5 39 15.0060000  0  4 23 21 11 12
  24203567.815     1495454.285 3   1165317.890 2
  22210479.504   -17480109.639 4 -13620832.228 3
  23051695.345   -16302685.270 4 -12703377.625 2
  25475626.792    -2629414.993 2  -2048889.601 1
 91  7 23  5 39 30.0060000  0  4 23 21 11 12
  24211505.727     1537171.038 3   1197824.447 2
  22211958.681   -17472321.951 4 -13614763.897 3
  23051271.139   -16304918.581 4 -12705117.856 2
  25476422.740    -2625213.705 2  -2045615.890 1
 91  7 23  5 39 45.0060000  0  4 23 21 11 12
  24219453.219     1578915.083 3   1230352.284 2
  22213454.042   -17464465.726 4 -13608642.164 3
  23050878.405   -16306982.981 4 -12706726.474 2
  25477259.164    -2620855.401 2  -2042219.778 1
 91  7 23  5 40  0.0060000  0  4 23 21 11 12
  24227401.017     1620693.721 3   1262907.056 2
  22214964.699   -17456533.657 4 -13602461.322 3
  23050521.356   -16308870.866 4 -12708197.545 2
  25478114.766    -2616332.607 2  -2038695.492 1
 91  7 23  5 40 15.0060000  0  4 23 21 11 12
  24235359.913     1662504.020 3   1295486.507 2
  22216490.040   -17448528.623 4 -13596223.632 3
  23050191.582   -16310584.823 4 -12709533.093 2
  25479004.256    -2611648.081 2  -2035045.195 1
 91  7 23  5 40 30.0060000  0  4 23 21 11 12
  24243319.996     1704348.154 3   1328092.319 2
  22218024.080   -17440448.583 4 -13589927.487 3
  23049900.782   -16312122.677 4 -12710731.399 2
  25479928.515    -2606799.665 2  -2031267.223 1
 91  7 23  5 40 45.0060000  0  4 23 21 11 12
  24251286.081     1746229.164 3   1360726.865 2
  22219579.706   -17432290.355 4 -13583570.414 3
  23049637.869   -16313481.155 4 -12711789.943 2
  25480883.348    -2601784.021 2  -2027358.932 1
 91  7 23  5 41  0.0060000  0  4 23 21 11 12
  24259263.265     1788142.152 3   1393386.323 2
  22221141.326   -17424058.731 4 -13577156.155 3
  23049419.915   -16314664.946 4 -12712712.365 2
  25481868.168    -2596605.984 2  -2023324.005 1
 91  7 23  5 41 15.0060000  0  4 23 21 11 12
  24267247.333     1830084.875 3   1426068.959 2
  22222725.727   -17415755.929 4 -13570686.443 3
  23049222.658   -16315675.970 4 -12713500.169 2
  25482884.766    -2591267.482 2  -2019164.181 1
 91  7 23  5 41 30.0060000  0  4 23 21 11 12
  24275234.402     1872059.961 3   1458776.817 2
  22224317.326   -17407379.306 4 -13564159.200 3
  23049067.360   -16316511.549 4 -12714151.266 2
  25483928.943    -2585765.779 2  -2014877.102 1
 91  7 23  5 41 45.0060000  0  5 23 21 11 12 15
  24283224.770     1914068.440 3   1491510.680 2
  22225923.313   -17398927.778 4 -13557573.584 3
  23048940.253   -16317170.492 4 -12714664.726 2
  25485009.094    -2580099.632 2  -2010461.920 1
  26457677.931           0.938 2         0.419 1
 91  7 23  5 42  0.0060000  0  5 23 21 11 12 15
  24291229.534     1956109.498 3   1524269.942 1
  22227550.590   -17390402.126 4 -13550930.217 3
  23048847.915   -16317653.379 4 -12715040.982 2
  25486122.226    -2574269.749 2  -2005919.148 1
  26449380.876      -43603.639 2    -33977.125 1
